<?xml version="1.0" encoding="UTF-8" standalone="no" ?>
<gpx xmlns="http://www.topografix.com/GPX/1/1" xmlns:xsi="http://www.w3.org/2001/XMLSchema-instance" xsi:schemaLocation="http://www.topografix.com/GPX/1/1 http://www.topografix.com/GPX/1/1/gpx.xsd" version="1.1" creator="VisuGPX - https://www.visugpx.com">
  <metadata>
    <name>vtt aga</name>
    <desc><![CDATA[dans la valmasque entre 12h et 14h]]></desc>
  </metadata>
  <trk>
    <name><![CDATA[vtt Aga valmasque]]></name>
    <trkseg>
      <trkpt lat="43.62266" lon="7.05918">
        <ele>139</ele>
        <time>2011-04-06T10:17:40.000Z</time>
      </trkpt>
      <trkpt lat="43.62262" lon="7.05926">
        <ele>139</ele>
        <time>2011-04-06T10:17:48.000Z</time>
      </trkpt>
      <trkpt lat="43.62257" lon="7.05938">
        <ele>139</ele>
        <time>2011-04-06T10:17:53.000Z</time>
      </trkpt>
      <trkpt lat="43.62254" lon="7.0595">
        <ele>139</ele>
        <time>2011-04-06T10:17:57.000Z</time>
      </trkpt>
      <trkpt lat="43.62249" lon="7.05963">
        <ele>138.80000305176</ele>
        <time>2011-04-06T10:18:02.000Z</time>
      </trkpt>
      <trkpt lat="43.62248" lon="7.05966">
        <ele>138.60000610352</ele>
        <time>2011-04-06T10:18:03.000Z</time>
      </trkpt>
      <trkpt lat="43.62242" lon="7.05988">
        <ele>138.19999694824</ele>
        <time>2011-04-06T10:18:09.000Z</time>
      </trkpt>
      <trkpt lat="43.62242" lon="7.05995">
        <ele>138.39999389648</ele>
        <time>2011-04-06T10:18:11.000Z</time>
      </trkpt>
      <trkpt lat="43.62238" lon="7.06011">
        <ele>137.19999694824</ele>
        <time>2011-04-06T10:18:15.000Z</time>
      </trkpt>
      <trkpt lat="43.62236" lon="7.06036">
        <ele>135.60000610352</ele>
        <time>2011-04-06T10:18:19.000Z</time>
      </trkpt>
      <trkpt lat="43.62236" lon="7.06049">
        <ele>134.80000305176</ele>
        <time>2011-04-06T10:18:21.000Z</time>
      </trkpt>
      <trkpt lat="43.62238" lon="7.06067">
        <ele>134.19999694824</ele>
        <time>2011-04-06T10:18:24.000Z</time>
      </trkpt>
      <trkpt lat="43.62241" lon="7.06081">
        <ele>133.80000305176</ele>
        <time>2011-04-06T10:18:27.000Z</time>
      </trkpt>
      <trkpt lat="43.62247" lon="7.06091">
        <ele>134</ele>
        <time>2011-04-06T10:18:30.000Z</time>
      </trkpt>
      <trkpt lat="43.6225" lon="7.06096">
        <ele>134.19999694824</ele>
        <time>2011-04-06T10:18:32.000Z</time>
      </trkpt>
      <trkpt lat="43.62258" lon="7.06108">
        <ele>134.19999694824</ele>
        <time>2011-04-06T10:18:38.000Z</time>
      </trkpt>
      <trkpt lat="43.6226" lon="7.0611">
        <ele>134.19999694824</ele>
        <time>2011-04-06T10:18:39.000Z</time>
      </trkpt>
      <trkpt lat="43.62274" lon="7.06132">
        <ele>134</ele>
        <time>2011-04-06T10:18:46.000Z</time>
      </trkpt>
      <trkpt lat="43.62287" lon="7.0615">
        <ele>133.80000305176</ele>
        <time>2011-04-06T10:18:51.000Z</time>
      </trkpt>
      <trkpt lat="43.6229" lon="7.06154">
        <ele>133.60000610352</ele>
        <time>2011-04-06T10:18:52.000Z</time>
      </trkpt>
      <trkpt lat="43.62301" lon="7.06172">
        <ele>133</ele>
        <time>2011-04-06T10:18:56.000Z</time>
      </trkpt>
      <trkpt lat="43.62308" lon="7.06182">
        <ele>132.39999389648</ele>
        <time>2011-04-06T10:18:58.000Z</time>
      </trkpt>
      <trkpt lat="43.62314" lon="7.06191">
        <ele>131.80000305176</ele>
        <time>2011-04-06T10:19:00.000Z</time>
      </trkpt>
      <trkpt lat="43.62318" lon="7.06201">
        <ele>130.80000305176</ele>
        <time>2011-04-06T10:19:02.000Z</time>
      </trkpt>
      <trkpt lat="43.62321" lon="7.0621">
        <ele>129.80000305176</ele>
        <time>2011-04-06T10:19:06.000Z</time>
      </trkpt>
      <trkpt lat="43.62324" lon="7.06214">
        <ele>129.39999389648</ele>
        <time>2011-04-06T10:19:08.000Z</time>
      </trkpt>
      <trkpt lat="43.62325" lon="7.06223">
        <ele>128.39999389648</ele>
        <time>2011-04-06T10:19:11.000Z</time>
      </trkpt>
      <trkpt lat="43.62316" lon="7.06228">
        <ele>127.40000152588</ele>
        <time>2011-04-06T10:19:14.000Z</time>
      </trkpt>
      <trkpt lat="43.6231" lon="7.06231">
        <ele>127</ele>
        <time>2011-04-06T10:19:15.000Z</time>
      </trkpt>
      <trkpt lat="43.62299" lon="7.06241">
        <ele>125.80000305176</ele>
        <time>2011-04-06T10:19:17.000Z</time>
      </trkpt>
      <trkpt lat="43.62294" lon="7.06247">
        <ele>125.19999694824</ele>
        <time>2011-04-06T10:19:18.000Z</time>
      </trkpt>
      <trkpt lat="43.6228" lon="7.06255">
        <ele>124.19999694824</ele>
        <time>2011-04-06T10:19:20.000Z</time>
      </trkpt>
      <trkpt lat="43.62273" lon="7.06259">
        <ele>123.80000305176</ele>
        <time>2011-04-06T10:19:21.000Z</time>
      </trkpt>
      <trkpt lat="43.62248" lon="7.06272">
        <ele>122.40000152588</ele>
        <time>2011-04-06T10:19:24.000Z</time>
      </trkpt>
      <trkpt lat="43.62231" lon="7.06284">
        <ele>120.19999694824</ele>
        <time>2011-04-06T10:19:26.000Z</time>
      </trkpt>
      <trkpt lat="43.62214" lon="7.06298">
        <ele>118.40000152588</ele>
        <time>2011-04-06T10:19:28.000Z</time>
      </trkpt>
      <trkpt lat="43.62195" lon="7.06313">
        <ele>117</ele>
        <time>2011-04-06T10:19:30.000Z</time>
      </trkpt>
      <trkpt lat="43.62176" lon="7.06328">
        <ele>116</ele>
        <time>2011-04-06T10:19:32.000Z</time>
      </trkpt>
      <trkpt lat="43.62159" lon="7.06342">
        <ele>115.40000152588</ele>
        <time>2011-04-06T10:19:34.000Z</time>
      </trkpt>
      <trkpt lat="43.62142" lon="7.06356">
        <ele>114</ele>
        <time>2011-04-06T10:19:36.000Z</time>
      </trkpt>
      <trkpt lat="43.62128" lon="7.06366">
        <ele>112.80000305176</ele>
        <time>2011-04-06T10:19:38.000Z</time>
      </trkpt>
      <trkpt lat="43.62123" lon="7.06371">
        <ele>112.19999694824</ele>
        <time>2011-04-06T10:19:39.000Z</time>
      </trkpt>
      <trkpt lat="43.62116" lon="7.06372">
        <ele>111.80000305176</ele>
        <time>2011-04-06T10:19:41.000Z</time>
      </trkpt>
      <trkpt lat="43.621" lon="7.06373">
        <ele>110.40000152588</ele>
        <time>2011-04-06T10:19:45.000Z</time>
      </trkpt>
      <trkpt lat="43.62095" lon="7.06375">
        <ele>110</ele>
        <time>2011-04-06T10:19:46.000Z</time>
      </trkpt>
      <trkpt lat="43.62086" lon="7.06383">
        <ele>109</ele>
        <time>2011-04-06T10:19:48.000Z</time>
      </trkpt>
      <trkpt lat="43.62083" lon="7.06389">
        <ele>108.59999847412</ele>
        <time>2011-04-06T10:19:49.000Z</time>
      </trkpt>
      <trkpt lat="43.62085" lon="7.06406">
        <ele>108.40000152588</ele>
        <time>2011-04-06T10:19:51.000Z</time>
      </trkpt>
      <trkpt lat="43.62088" lon="7.06413">
        <ele>108.40000152588</ele>
        <time>2011-04-06T10:19:52.000Z</time>
      </trkpt>
      <trkpt lat="43.62093" lon="7.06421">
        <ele>108.40000152588</ele>
        <time>2011-04-06T10:19:54.000Z</time>
      </trkpt>
      <trkpt lat="43.62096" lon="7.06428">
        <ele>108</ele>
        <time>2011-04-06T10:19:56.000Z</time>
      </trkpt>
      <trkpt lat="43.62096" lon="7.06437">
        <ele>107.40000152588</ele>
        <time>2011-04-06T10:19:58.000Z</time>
      </trkpt>
      <trkpt lat="43.62095" lon="7.06452">
        <ele>105.80000305176</ele>
        <time>2011-04-06T10:20:02.000Z</time>
      </trkpt>
      <trkpt lat="43.62094" lon="7.06457">
        <ele>105.19999694824</ele>
        <time>2011-04-06T10:20:03.000Z</time>
      </trkpt>
      <trkpt lat="43.62092" lon="7.06463">
        <ele>104.40000152588</ele>
        <time>2011-04-06T10:20:04.000Z</time>
      </trkpt>
      <trkpt lat="43.62087" lon="7.06473">
        <ele>103</ele>
        <time>2011-04-06T10:20:06.000Z</time>
      </trkpt>
      <trkpt lat="43.62081" lon="7.06484">
        <ele>101.19999694824</ele>
        <time>2011-04-06T10:20:09.000Z</time>
      </trkpt>
      <trkpt lat="43.62075" lon="7.06494">
        <ele>100</ele>
        <time>2011-04-06T10:20:11.000Z</time>
      </trkpt>
      <trkpt lat="43.62067" lon="7.06504">
        <ele>98.800003051758</ele>
        <time>2011-04-06T10:20:13.000Z</time>
      </trkpt>
      <trkpt lat="43.62054" lon="7.06524">
        <ele>97</ele>
        <time>2011-04-06T10:20:16.000Z</time>
      </trkpt>
      <trkpt lat="43.62041" lon="7.06545">
        <ele>95.800003051758</ele>
        <time>2011-04-06T10:20:19.000Z</time>
      </trkpt>
      <trkpt lat="43.62036" lon="7.06551">
        <ele>95.400001525879</ele>
        <time>2011-04-06T10:20:20.000Z</time>
      </trkpt>
      <trkpt lat="43.62028" lon="7.06562">
        <ele>95</ele>
        <time>2011-04-06T10:20:22.000Z</time>
      </trkpt>
      <trkpt lat="43.62024" lon="7.06568">
        <ele>94.800003051758</ele>
        <time>2011-04-06T10:20:23.000Z</time>
      </trkpt>
      <trkpt lat="43.62009" lon="7.06592">
        <ele>95.800003051758</ele>
        <time>2011-04-06T10:20:27.000Z</time>
      </trkpt>
      <trkpt lat="43.61994" lon="7.06614">
        <ele>99.800003051758</ele>
        <time>2011-04-06T10:20:31.000Z</time>
      </trkpt>
      <trkpt lat="43.6199" lon="7.06619">
        <ele>101.19999694824</ele>
        <time>2011-04-06T10:20:33.000Z</time>
      </trkpt>
      <trkpt lat="43.61988" lon="7.06621">
        <ele>101.59999847412</ele>
        <time>2011-04-06T10:20:34.000Z</time>
      </trkpt>
      <trkpt lat="43.61988" lon="7.06621">
        <ele>101.59999847412</ele>
        <time>2011-04-06T10:20:39.000Z</time>
      </trkpt>
      <trkpt lat="43.61991" lon="7.0662">
        <ele>100.80000305176</ele>
        <time>2011-04-06T10:20:45.000Z</time>
      </trkpt>
      <trkpt lat="43.61992" lon="7.06622">
        <ele>101</ele>
        <time>2011-04-06T10:20:47.000Z</time>
      </trkpt>
      <trkpt lat="43.61993" lon="7.06623">
        <ele>100.80000305176</ele>
        <time>2011-04-06T10:20:50.000Z</time>
      </trkpt>
      <trkpt lat="43.61996" lon="7.06624">
        <ele>100.59999847412</ele>
        <time>2011-04-06T10:20:55.000Z</time>
      </trkpt>
      <trkpt lat="43.61998" lon="7.06626">
        <ele>100.40000152588</ele>
        <time>2011-04-06T10:21:00.000Z</time>
      </trkpt>
      <trkpt lat="43.62004" lon="7.06634">
        <ele>100.80000305176</ele>
        <time>2011-04-06T10:21:04.000Z</time>
      </trkpt>
      <trkpt lat="43.62006" lon="7.06637">
        <ele>101</ele>
        <time>2011-04-06T10:21:06.000Z</time>
      </trkpt>
      <trkpt lat="43.62008" lon="7.06642">
        <ele>101.59999847412</ele>
        <time>2011-04-06T10:21:09.000Z</time>
      </trkpt>
      <trkpt lat="43.62009" lon="7.06645">
        <ele>101.80000305176</ele>
        <time>2011-04-06T10:21:11.000Z</time>
      </trkpt>
      <trkpt lat="43.6201" lon="7.0665">
        <ele>102.40000152588</ele>
        <time>2011-04-06T10:21:14.000Z</time>
      </trkpt>
      <trkpt lat="43.62011" lon="7.0665">
        <ele>102.40000152588</ele>
        <time>2011-04-06T10:21:15.000Z</time>
      </trkpt>
      <trkpt lat="43.62012" lon="7.06651">
        <ele>102.40000152588</ele>
        <time>2011-04-06T10:21:19.000Z</time>
      </trkpt>
      <trkpt lat="43.62015" lon="7.06653">
        <ele>102.40000152588</ele>
        <time>2011-04-06T10:21:26.000Z</time>
      </trkpt>
      <trkpt lat="43.62017" lon="7.06651">
        <ele>102.19999694824</ele>
        <time>2011-04-06T10:21:36.000Z</time>
      </trkpt>
      <trkpt lat="43.62021" lon="7.06652">
        <ele>102</ele>
        <time>2011-04-06T10:21:40.000Z</time>
      </trkpt>
      <trkpt lat="43.62022" lon="7.06653">
        <ele>102</ele>
        <time>2011-04-06T10:21:43.000Z</time>
      </trkpt>
      <trkpt lat="43.62024" lon="7.06655">
        <ele>102.19999694824</ele>
        <time>2011-04-06T10:21:46.000Z</time>
      </trkpt>
      <trkpt lat="43.62024" lon="7.06655">
        <ele>102.19999694824</ele>
        <time>2011-04-06T10:21:48.000Z</time>
      </trkpt>
      <trkpt lat="43.6203" lon="7.06659">
        <ele>102.19999694824</ele>
        <time>2011-04-06T10:22:04.000Z</time>
      </trkpt>
      <trkpt lat="43.62034" lon="7.06661">
        <ele>102.19999694824</ele>
        <time>2011-04-06T10:22:10.000Z</time>
      </trkpt>
      <trkpt lat="43.62039" lon="7.06661">
        <ele>102</ele>
        <time>2011-04-06T10:22:16.000Z</time>
      </trkpt>
      <trkpt lat="43.62042" lon="7.06661">
        <ele>101.80000305176</ele>
        <time>2011-04-06T10:22:17.000Z</time>
      </trkpt>
      <trkpt lat="43.62048" lon="7.06662">
        <ele>101.59999847412</ele>
        <time>2011-04-06T10:22:20.000Z</time>
      </trkpt>
      <trkpt lat="43.62061" lon="7.06666">
        <ele>101.19999694824</ele>
        <time>2011-04-06T10:22:25.000Z</time>
      </trkpt>
      <trkpt lat="43.62063" lon="7.06667">
        <ele>101</ele>
        <time>2011-04-06T10:22:26.000Z</time>
      </trkpt>
      <trkpt lat="43.62076" lon="7.06675">
        <ele>101.80000305176</ele>
        <time>2011-04-06T10:22:33.000Z</time>
      </trkpt>
      <trkpt lat="43.62078" lon="7.06677">
        <ele>101.80000305176</ele>
        <time>2011-04-06T10:22:34.000Z</time>
      </trkpt>
      <trkpt lat="43.62091" lon="7.06686">
        <ele>102.59999847412</ele>
        <time>2011-04-06T10:22:41.000Z</time>
      </trkpt>
      <trkpt lat="43.62094" lon="7.06688">
        <ele>102.80000305176</ele>
        <time>2011-04-06T10:22:42.000Z</time>
      </trkpt>
      <trkpt lat="43.62109" lon="7.06695">
        <ele>102.80000305176</ele>
        <time>2011-04-06T10:22:46.000Z</time>
      </trkpt>
      <trkpt lat="43.62112" lon="7.06696">
        <ele>102.80000305176</ele>
        <time>2011-04-06T10:22:47.000Z</time>
      </trkpt>
      <trkpt lat="43.62116" lon="7.06697">
        <ele>102.59999847412</ele>
        <time>2011-04-06T10:22:49.000Z</time>
      </trkpt>
      <trkpt lat="43.62119" lon="7.06698">
        <ele>102.59999847412</ele>
        <time>2011-04-06T10:22:55.000Z</time>
      </trkpt>
      <trkpt lat="43.62126" lon="7.06701">
        <ele>102.40000152588</ele>
        <time>2011-04-06T10:23:00.000Z</time>
      </trkpt>
      <trkpt lat="43.62132" lon="7.06702">
        <ele>102.19999694824</ele>
        <time>2011-04-06T10:23:04.000Z</time>
      </trkpt>
      <trkpt lat="43.62136" lon="7.06703">
        <ele>102</ele>
        <time>2011-04-06T10:23:06.000Z</time>
      </trkpt>
      <trkpt lat="43.62148" lon="7.06703">
        <ele>101</ele>
        <time>2011-04-06T10:23:14.000Z</time>
      </trkpt>
      <trkpt lat="43.62149" lon="7.06703">
        <ele>101</ele>
        <time>2011-04-06T10:23:15.000Z</time>
      </trkpt>
      <trkpt lat="43.6215" lon="7.06705">
        <ele>101.19999694824</ele>
        <time>2011-04-06T10:23:18.000Z</time>
      </trkpt>
      <trkpt lat="43.62151" lon="7.06706">
        <ele>101.19999694824</ele>
        <time>2011-04-06T10:23:19.000Z</time>
      </trkpt>
      <trkpt lat="43.62151" lon="7.06706">
        <ele>101.19999694824</ele>
        <time>2011-04-06T10:23:20.000Z</time>
      </trkpt>
      <trkpt lat="43.62154" lon="7.06707">
        <ele>101.19999694824</ele>
        <time>2011-04-06T10:23:25.000Z</time>
      </trkpt>
      <trkpt lat="43.62161" lon="7.06705">
        <ele>100.40000152588</ele>
        <time>2011-04-06T10:23:30.000Z</time>
      </trkpt>
      <trkpt lat="43.62169" lon="7.06707">
        <ele>100</ele>
        <time>2011-04-06T10:23:33.000Z</time>
      </trkpt>
      <trkpt lat="43.62175" lon="7.06708">
        <ele>100</ele>
        <time>2011-04-06T10:23:35.000Z</time>
      </trkpt>
      <trkpt lat="43.62184" lon="7.06713">
        <ele>100.19999694824</ele>
        <time>2011-04-06T10:23:40.000Z</time>
      </trkpt>
      <trkpt lat="43.62186" lon="7.06714">
        <ele>100.19999694824</ele>
        <time>2011-04-06T10:23:41.000Z</time>
      </trkpt>
      <trkpt lat="43.62196" lon="7.06722">
        <ele>100.80000305176</ele>
        <time>2011-04-06T10:23:46.000Z</time>
      </trkpt>
      <trkpt lat="43.62203" lon="7.06728">
        <ele>101.19999694824</ele>
        <time>2011-04-06T10:23:51.000Z</time>
      </trkpt>
      <trkpt lat="43.62212" lon="7.06737">
        <ele>101.80000305176</ele>
        <time>2011-04-06T10:23:59.000Z</time>
      </trkpt>
      <trkpt lat="43.62216" lon="7.06743">
        <ele>102.19999694824</ele>
        <time>2011-04-06T10:24:03.000Z</time>
      </trkpt>
      <trkpt lat="43.62217" lon="7.06745">
        <ele>102.40000152588</ele>
        <time>2011-04-06T10:24:04.000Z</time>
      </trkpt>
      <trkpt lat="43.62219" lon="7.06747">
        <ele>102.40000152588</ele>
        <time>2011-04-06T10:24:06.000Z</time>
      </trkpt>
      <trkpt lat="43.62226" lon="7.06752">
        <ele>102.59999847412</ele>
        <time>2011-04-06T10:24:11.000Z</time>
      </trkpt>
      <trkpt lat="43.62229" lon="7.06754">
        <ele>102.59999847412</ele>
        <time>2011-04-06T10:24:13.000Z</time>
      </trkpt>
      <trkpt lat="43.62233" lon="7.06757">
        <ele>102.59999847412</ele>
        <time>2011-04-06T10:24:16.000Z</time>
      </trkpt>
      <trkpt lat="43.62237" lon="7.06764">
        <ele>103.19999694824</ele>
        <time>2011-04-06T10:24:20.000Z</time>
      </trkpt>
      <trkpt lat="43.62242" lon="7.06779">
        <ele>104.40000152588</ele>
        <time>2011-04-06T10:24:28.000Z</time>
      </trkpt>
      <trkpt lat="43.62251" lon="7.0679">
        <ele>105.19999694824</ele>
        <time>2011-04-06T10:24:36.000Z</time>
      </trkpt>
      <trkpt lat="43.62257" lon="7.06794">
        <ele>105.59999847412</ele>
        <time>2011-04-06T10:24:41.000Z</time>
      </trkpt>
      <trkpt lat="43.6226" lon="7.06794">
        <ele>105.40000152588</ele>
        <time>2011-04-06T10:24:43.000Z</time>
      </trkpt>
      <trkpt lat="43.62271" lon="7.06797">
        <ele>105.59999847412</ele>
        <time>2011-04-06T10:24:50.000Z</time>
      </trkpt>
      <trkpt lat="43.62275" lon="7.06801">
        <ele>106</ele>
        <time>2011-04-06T10:24:53.000Z</time>
      </trkpt>
      <trkpt lat="43.62276" lon="7.06806">
        <ele>106.59999847412</ele>
        <time>2011-04-06T10:24:55.000Z</time>
      </trkpt>
      <trkpt lat="43.6228" lon="7.06823">
        <ele>108.40000152588</ele>
        <time>2011-04-06T10:25:02.000Z</time>
      </trkpt>
      <trkpt lat="43.6228" lon="7.06826">
        <ele>108.80000305176</ele>
        <time>2011-04-06T10:25:03.000Z</time>
      </trkpt>
      <trkpt lat="43.62282" lon="7.06837">
        <ele>109.59999847412</ele>
        <time>2011-04-06T10:25:07.000Z</time>
      </trkpt>
      <trkpt lat="43.62285" lon="7.06846">
        <ele>109.80000305176</ele>
        <time>2011-04-06T10:25:10.000Z</time>
      </trkpt>
      <trkpt lat="43.62289" lon="7.0685">
        <ele>109.80000305176</ele>
        <time>2011-04-06T10:25:12.000Z</time>
      </trkpt>
      <trkpt lat="43.6229" lon="7.06852">
        <ele>109.80000305176</ele>
        <time>2011-04-06T10:25:13.000Z</time>
      </trkpt>
      <trkpt lat="43.62293" lon="7.06866">
        <ele>110.19999694824</ele>
        <time>2011-04-06T10:25:18.000Z</time>
      </trkpt>
      <trkpt lat="43.62291" lon="7.06871">
        <ele>110.40000152588</ele>
        <time>2011-04-06T10:25:19.000Z</time>
      </trkpt>
      <trkpt lat="43.62287" lon="7.06887">
        <ele>110.80000305176</ele>
        <time>2011-04-06T10:25:22.000Z</time>
      </trkpt>
      <trkpt lat="43.62287" lon="7.06892">
        <ele>110.80000305176</ele>
        <time>2011-04-06T10:25:23.000Z</time>
      </trkpt>
      <trkpt lat="43.62286" lon="7.06898">
        <ele>111</ele>
        <time>2011-04-06T10:25:25.000Z</time>
      </trkpt>
      <trkpt lat="43.62287" lon="7.06901">
        <ele>111</ele>
        <time>2011-04-06T10:25:26.000Z</time>
      </trkpt>
      <trkpt lat="43.62292" lon="7.06915">
        <ele>111.40000152588</ele>
        <time>2011-04-06T10:25:31.000Z</time>
      </trkpt>
      <trkpt lat="43.62294" lon="7.06922">
        <ele>111.40000152588</ele>
        <time>2011-04-06T10:25:33.000Z</time>
      </trkpt>
      <trkpt lat="43.62296" lon="7.06941">
        <ele>111.80000305176</ele>
        <time>2011-04-06T10:25:38.000Z</time>
      </trkpt>
      <trkpt lat="43.62296" lon="7.06949">
        <ele>112</ele>
        <time>2011-04-06T10:25:40.000Z</time>
      </trkpt>
      <trkpt lat="43.62298" lon="7.06969">
        <ele>112.40000152588</ele>
        <time>2011-04-06T10:25:46.000Z</time>
      </trkpt>
      <trkpt lat="43.62298" lon="7.06976">
        <ele>112.40000152588</ele>
        <time>2011-04-06T10:25:48.000Z</time>
      </trkpt>
      <trkpt lat="43.62299" lon="7.07001">
        <ele>113</ele>
        <time>2011-04-06T10:25:54.000Z</time>
      </trkpt>
      <trkpt lat="43.62299" lon="7.07005">
        <ele>113</ele>
        <time>2011-04-06T10:25:55.000Z</time>
      </trkpt>
      <trkpt lat="43.62298" lon="7.07029">
        <ele>113.40000152588</ele>
        <time>2011-04-06T10:26:01.000Z</time>
      </trkpt>
      <trkpt lat="43.62298" lon="7.07033">
        <ele>113.40000152588</ele>
        <time>2011-04-06T10:26:02.000Z</time>
      </trkpt>
      <trkpt lat="43.62299" lon="7.07052">
        <ele>113.80000305176</ele>
        <time>2011-04-06T10:26:07.000Z</time>
      </trkpt>
      <trkpt lat="43.62298" lon="7.0706">
        <ele>113.80000305176</ele>
        <time>2011-04-06T10:26:09.000Z</time>
      </trkpt>
      <trkpt lat="43.62296" lon="7.07077">
        <ele>114</ele>
        <time>2011-04-06T10:26:13.000Z</time>
      </trkpt>
      <trkpt lat="43.62295" lon="7.07086">
        <ele>114</ele>
        <time>2011-04-06T10:26:15.000Z</time>
      </trkpt>
      <trkpt lat="43.62294" lon="7.07096">
        <ele>113.80000305176</ele>
        <time>2011-04-06T10:26:17.000Z</time>
      </trkpt>
      <trkpt lat="43.62292" lon="7.07111">
        <ele>113.59999847412</ele>
        <time>2011-04-06T10:26:20.000Z</time>
      </trkpt>
      <trkpt lat="43.62289" lon="7.07122">
        <ele>113.40000152588</ele>
        <time>2011-04-06T10:26:22.000Z</time>
      </trkpt>
      <trkpt lat="43.62286" lon="7.0714">
        <ele>113</ele>
        <time>2011-04-06T10:26:25.000Z</time>
      </trkpt>
      <trkpt lat="43.62281" lon="7.07163">
        <ele>112.59999847412</ele>
        <time>2011-04-06T10:26:29.000Z</time>
      </trkpt>
      <trkpt lat="43.6228" lon="7.07169">
        <ele>112.40000152588</ele>
        <time>2011-04-06T10:26:30.000Z</time>
      </trkpt>
      <trkpt lat="43.62278" lon="7.07175">
        <ele>111.59999847412</ele>
        <time>2011-04-06T10:26:31.000Z</time>
      </trkpt>
      <trkpt lat="43.62271" lon="7.07197">
        <ele>109.40000152588</ele>
        <time>2011-04-06T10:26:34.000Z</time>
      </trkpt>
      <trkpt lat="43.62263" lon="7.07224">
        <ele>106.59999847412</ele>
        <time>2011-04-06T10:26:37.000Z</time>
      </trkpt>
      <trkpt lat="43.62259" lon="7.07233">
        <ele>105.59999847412</ele>
        <time>2011-04-06T10:26:38.000Z</time>
      </trkpt>
      <trkpt lat="43.62255" lon="7.07242">
        <ele>104.80000305176</ele>
        <time>2011-04-06T10:26:39.000Z</time>
      </trkpt>
      <trkpt lat="43.62251" lon="7.07251">
        <ele>103.80000305176</ele>
        <time>2011-04-06T10:26:40.000Z</time>
      </trkpt>
      <trkpt lat="43.62239" lon="7.07277">
        <ele>101.19999694824</ele>
        <time>2011-04-06T10:26:43.000Z</time>
      </trkpt>
      <trkpt lat="43.62231" lon="7.07294">
        <ele>99.599998474121</ele>
        <time>2011-04-06T10:26:45.000Z</time>
      </trkpt>
      <trkpt lat="43.62227" lon="7.07301">
        <ele>98.800003051758</ele>
        <time>2011-04-06T10:26:46.000Z</time>
      </trkpt>
      <trkpt lat="43.62213" lon="7.07324">
        <ele>96.400001525879</ele>
        <time>2011-04-06T10:26:49.000Z</time>
      </trkpt>
      <trkpt lat="43.62199" lon="7.07345">
        <ele>96.800003051758</ele>
        <time>2011-04-06T10:26:52.000Z</time>
      </trkpt>
      <trkpt lat="43.62189" lon="7.07359">
        <ele>98.199996948242</ele>
        <time>2011-04-06T10:26:54.000Z</time>
      </trkpt>
      <trkpt lat="43.62185" lon="7.07366">
        <ele>99</ele>
        <time>2011-04-06T10:26:55.000Z</time>
      </trkpt>
      <trkpt lat="43.62175" lon="7.07378">
        <ele>100.59999847412</ele>
        <time>2011-04-06T10:26:57.000Z</time>
      </trkpt>
      <trkpt lat="43.62169" lon="7.07384">
        <ele>101.19999694824</ele>
        <time>2011-04-06T10:26:58.000Z</time>
      </trkpt>
      <trkpt lat="43.62152" lon="7.07399">
        <ele>102.59999847412</ele>
        <time>2011-04-06T10:27:01.000Z</time>
      </trkpt>
      <trkpt lat="43.62136" lon="7.07414">
        <ele>103.19999694824</ele>
        <time>2011-04-06T10:27:04.000Z</time>
      </trkpt>
      <trkpt lat="43.62127" lon="7.07423">
        <ele>103.59999847412</ele>
        <time>2011-04-06T10:27:06.000Z</time>
      </trkpt>
      <trkpt lat="43.62118" lon="7.0743">
        <ele>103.59999847412</ele>
        <time>2011-04-06T10:27:09.000Z</time>
      </trkpt>
      <trkpt lat="43.62105" lon="7.0744">
        <ele>103.80000305176</ele>
        <time>2011-04-06T10:27:14.000Z</time>
      </trkpt>
      <trkpt lat="43.62101" lon="7.07442">
        <ele>103.80000305176</ele>
        <time>2011-04-06T10:27:15.000Z</time>
      </trkpt>
      <trkpt lat="43.62081" lon="7.07454">
        <ele>103.59999847412</ele>
        <time>2011-04-06T10:27:20.000Z</time>
      </trkpt>
      <trkpt lat="43.62062" lon="7.07464">
        <ele>104.19999694824</ele>
        <time>2011-04-06T10:27:25.000Z</time>
      </trkpt>
      <trkpt lat="43.62043" lon="7.07473">
        <ele>104.80000305176</ele>
        <time>2011-04-06T10:27:30.000Z</time>
      </trkpt>
      <trkpt lat="43.62033" lon="7.07476">
        <ele>105</ele>
        <time>2011-04-06T10:27:33.000Z</time>
      </trkpt>
      <trkpt lat="43.62022" lon="7.07479">
        <ele>105</ele>
        <time>2011-04-06T10:27:36.000Z</time>
      </trkpt>
      <trkpt lat="43.62003" lon="7.07484">
        <ele>105.19999694824</ele>
        <time>2011-04-06T10:27:41.000Z</time>
      </trkpt>
      <trkpt lat="43.61988" lon="7.07488">
        <ele>105.40000152588</ele>
        <time>2011-04-06T10:27:45.000Z</time>
      </trkpt>
      <trkpt lat="43.61984" lon="7.07488">
        <ele>105.59999847412</ele>
        <time>2011-04-06T10:27:46.000Z</time>
      </trkpt>
      <trkpt lat="43.61963" lon="7.0749">
        <ele>106</ele>
        <time>2011-04-06T10:27:52.000Z</time>
      </trkpt>
      <trkpt lat="43.6196" lon="7.0749">
        <ele>106</ele>
        <time>2011-04-06T10:27:53.000Z</time>
      </trkpt>
      <trkpt lat="43.61943" lon="7.07491">
        <ele>106.19999694824</ele>
        <time>2011-04-06T10:27:58.000Z</time>
      </trkpt>
      <trkpt lat="43.61933" lon="7.0749">
        <ele>106.40000152588</ele>
        <time>2011-04-06T10:28:01.000Z</time>
      </trkpt>
      <trkpt lat="43.61923" lon="7.0749">
        <ele>106.59999847412</ele>
        <time>2011-04-06T10:28:04.000Z</time>
      </trkpt>
      <trkpt lat="43.61904" lon="7.07488">
        <ele>107.40000152588</ele>
        <time>2011-04-06T10:28:11.000Z</time>
      </trkpt>
      <trkpt lat="43.61903" lon="7.07495">
        <ele>107.59999847412</ele>
        <time>2011-04-06T10:28:14.000Z</time>
      </trkpt>
      <trkpt lat="43.61905" lon="7.07503">
        <ele>108</ele>
        <time>2011-04-06T10:28:16.000Z</time>
      </trkpt>
      <trkpt lat="43.61907" lon="7.07512">
        <ele>108.59999847412</ele>
        <time>2011-04-06T10:28:18.000Z</time>
      </trkpt>
      <trkpt lat="43.61905" lon="7.07537">
        <ele>111</ele>
        <time>2011-04-06T10:28:24.000Z</time>
      </trkpt>
      <trkpt lat="43.61904" lon="7.0754">
        <ele>111.40000152588</ele>
        <time>2011-04-06T10:28:25.000Z</time>
      </trkpt>
      <trkpt lat="43.61896" lon="7.07563">
        <ele>113.80000305176</ele>
        <time>2011-04-06T10:28:31.000Z</time>
      </trkpt>
      <trkpt lat="43.61892" lon="7.07577">
        <ele>115.19999694824</ele>
        <time>2011-04-06T10:28:34.000Z</time>
      </trkpt>
      <trkpt lat="43.61889" lon="7.07587">
        <ele>116.19999694824</ele>
        <time>2011-04-06T10:28:36.000Z</time>
      </trkpt>
      <trkpt lat="43.61885" lon="7.07604">
        <ele>117.80000305176</ele>
        <time>2011-04-06T10:28:40.000Z</time>
      </trkpt>
      <trkpt lat="43.61882" lon="7.07612">
        <ele>118.59999847412</ele>
        <time>2011-04-06T10:28:43.000Z</time>
      </trkpt>
      <trkpt lat="43.61879" lon="7.07618">
        <ele>119.40000152588</ele>
        <time>2011-04-06T10:28:45.000Z</time>
      </trkpt>
      <trkpt lat="43.61876" lon="7.07619">
        <ele>119.59999847412</ele>
        <time>2011-04-06T10:28:46.000Z</time>
      </trkpt>
      <trkpt lat="43.61866" lon="7.07616">
        <ele>119.80000305176</ele>
        <time>2011-04-06T10:28:49.000Z</time>
      </trkpt>
      <trkpt lat="43.61862" lon="7.07616">
        <ele>120</ele>
        <time>2011-04-06T10:28:50.000Z</time>
      </trkpt>
      <trkpt lat="43.61845" lon="7.0761">
        <ele>120.19999694824</ele>
        <time>2011-04-06T10:28:55.000Z</time>
      </trkpt>
      <trkpt lat="43.61827" lon="7.07601">
        <ele>120</ele>
        <time>2011-04-06T10:29:00.000Z</time>
      </trkpt>
      <trkpt lat="43.61816" lon="7.07595">
        <ele>119.80000305176</ele>
        <time>2011-04-06T10:29:03.000Z</time>
      </trkpt>
      <trkpt lat="43.61808" lon="7.07591">
        <ele>119.80000305176</ele>
        <time>2011-04-06T10:29:05.000Z</time>
      </trkpt>
      <trkpt lat="43.61791" lon="7.07582">
        <ele>119.80000305176</ele>
        <time>2011-04-06T10:29:09.000Z</time>
      </trkpt>
      <trkpt lat="43.61787" lon="7.07579">
        <ele>119.80000305176</ele>
        <time>2011-04-06T10:29:10.000Z</time>
      </trkpt>
      <trkpt lat="43.61774" lon="7.07575">
        <ele>120.19999694824</ele>
        <time>2011-04-06T10:29:13.000Z</time>
      </trkpt>
      <trkpt lat="43.61766" lon="7.07577">
        <ele>120.59999847412</ele>
        <time>2011-04-06T10:29:15.000Z</time>
      </trkpt>
      <trkpt lat="43.6176" lon="7.07581">
        <ele>121.19999694824</ele>
        <time>2011-04-06T10:29:17.000Z</time>
      </trkpt>
      <trkpt lat="43.6175" lon="7.07585">
        <ele>122</ele>
        <time>2011-04-06T10:29:20.000Z</time>
      </trkpt>
      <trkpt lat="43.61747" lon="7.07586">
        <ele>122</ele>
        <time>2011-04-06T10:29:21.000Z</time>
      </trkpt>
      <trkpt lat="43.61741" lon="7.0759">
        <ele>122</ele>
        <time>2011-04-06T10:29:23.000Z</time>
      </trkpt>
      <trkpt lat="43.61729" lon="7.07599">
        <ele>122</ele>
        <time>2011-04-06T10:29:27.000Z</time>
      </trkpt>
      <trkpt lat="43.61727" lon="7.07601">
        <ele>122</ele>
        <time>2011-04-06T10:29:28.000Z</time>
      </trkpt>
      <trkpt lat="43.61714" lon="7.07614">
        <ele>122.19999694824</ele>
        <time>2011-04-06T10:29:33.000Z</time>
      </trkpt>
      <trkpt lat="43.6171" lon="7.07621">
        <ele>122.19999694824</ele>
        <time>2011-04-06T10:29:35.000Z</time>
      </trkpt>
      <trkpt lat="43.61705" lon="7.07638">
        <ele>122.80000305176</ele>
        <time>2011-04-06T10:29:40.000Z</time>
      </trkpt>
      <trkpt lat="43.61704" lon="7.07644">
        <ele>123</ele>
        <time>2011-04-06T10:29:42.000Z</time>
      </trkpt>
      <trkpt lat="43.61698" lon="7.07662">
        <ele>123.59999847412</ele>
        <time>2011-04-06T10:29:48.000Z</time>
      </trkpt>
      <trkpt lat="43.61703" lon="7.07663">
        <ele>124</ele>
        <time>2011-04-06T10:29:51.000Z</time>
      </trkpt>
      <trkpt lat="43.61712" lon="7.07652">
        <ele>124</ele>
        <time>2011-04-06T10:29:55.000Z</time>
      </trkpt>
      <trkpt lat="43.61715" lon="7.07649">
        <ele>124</ele>
        <time>2011-04-06T10:29:56.000Z</time>
      </trkpt>
      <trkpt lat="43.61729" lon="7.07639">
        <ele>124.19999694824</ele>
        <time>2011-04-06T10:30:01.000Z</time>
      </trkpt>
      <trkpt lat="43.61749" lon="7.07634">
        <ele>124.80000305176</ele>
        <time>2011-04-06T10:30:06.000Z</time>
      </trkpt>
      <trkpt lat="43.61753" lon="7.07635">
        <ele>125</ele>
        <time>2011-04-06T10:30:07.000Z</time>
      </trkpt>
      <trkpt lat="43.61767" lon="7.07639">
        <ele>125</ele>
        <time>2011-04-06T10:30:11.000Z</time>
      </trkpt>
      <trkpt lat="43.61779" lon="7.07644">
        <ele>125.19999694824</ele>
        <time>2011-04-06T10:30:14.000Z</time>
      </trkpt>
      <trkpt lat="43.61787" lon="7.07647">
        <ele>125.40000152588</ele>
        <time>2011-04-06T10:30:16.000Z</time>
      </trkpt>
      <trkpt lat="43.61805" lon="7.07655">
        <ele>125.80000305176</ele>
        <time>2011-04-06T10:30:21.000Z</time>
      </trkpt>
      <trkpt lat="43.61824" lon="7.07665">
        <ele>126.80000305176</ele>
        <time>2011-04-06T10:30:26.000Z</time>
      </trkpt>
      <trkpt lat="43.61837" lon="7.0767">
        <ele>127</ele>
        <time>2011-04-06T10:30:29.000Z</time>
      </trkpt>
      <trkpt lat="43.61842" lon="7.07671">
        <ele>127</ele>
        <time>2011-04-06T10:30:30.000Z</time>
      </trkpt>
      <trkpt lat="43.6186" lon="7.0768">
        <ele>126.59999847412</ele>
        <time>2011-04-06T10:30:34.000Z</time>
      </trkpt>
      <trkpt lat="43.61868" lon="7.07684">
        <ele>126.59999847412</ele>
        <time>2011-04-06T10:30:36.000Z</time>
      </trkpt>
      <trkpt lat="43.61871" lon="7.07687">
        <ele>126.59999847412</ele>
        <time>2011-04-06T10:30:37.000Z</time>
      </trkpt>
      <trkpt lat="43.61878" lon="7.07694">
        <ele>126.80000305176</ele>
        <time>2011-04-06T10:30:39.000Z</time>
      </trkpt>
      <trkpt lat="43.61884" lon="7.07701">
        <ele>127</ele>
        <time>2011-04-06T10:30:41.000Z</time>
      </trkpt>
      <trkpt lat="43.61892" lon="7.07712">
        <ele>127.19999694824</ele>
        <time>2011-04-06T10:30:44.000Z</time>
      </trkpt>
      <trkpt lat="43.61894" lon="7.07716">
        <ele>127.40000152588</ele>
        <time>2011-04-06T10:30:45.000Z</time>
      </trkpt>
      <trkpt lat="43.619" lon="7.07725">
        <ele>127.80000305176</ele>
        <time>2011-04-06T10:30:48.000Z</time>
      </trkpt>
      <trkpt lat="43.61905" lon="7.07732">
        <ele>127.80000305176</ele>
        <time>2011-04-06T10:30:50.000Z</time>
      </trkpt>
      <trkpt lat="43.61911" lon="7.07743">
        <ele>128</ele>
        <time>2011-04-06T10:30:53.000Z</time>
      </trkpt>
      <trkpt lat="43.61918" lon="7.07754">
        <ele>128.39999389648</ele>
        <time>2011-04-06T10:30:56.000Z</time>
      </trkpt>
      <trkpt lat="43.61924" lon="7.07763">
        <ele>129.80000305176</ele>
        <time>2011-04-06T10:30:59.000Z</time>
      </trkpt>
      <trkpt lat="43.61931" lon="7.07776">
        <ele>131.60000610352</ele>
        <time>2011-04-06T10:31:03.000Z</time>
      </trkpt>
      <trkpt lat="43.61935" lon="7.07782">
        <ele>132.39999389648</ele>
        <time>2011-04-06T10:31:05.000Z</time>
      </trkpt>
      <trkpt lat="43.61943" lon="7.07794">
        <ele>133.80000305176</ele>
        <time>2011-04-06T10:31:09.000Z</time>
      </trkpt>
      <trkpt lat="43.61951" lon="7.07807">
        <ele>135.19999694824</ele>
        <time>2011-04-06T10:31:13.000Z</time>
      </trkpt>
      <trkpt lat="43.61956" lon="7.07816">
        <ele>136.19999694824</ele>
        <time>2011-04-06T10:31:16.000Z</time>
      </trkpt>
      <trkpt lat="43.61965" lon="7.07831">
        <ele>137.60000610352</ele>
        <time>2011-04-06T10:31:21.000Z</time>
      </trkpt>
      <trkpt lat="43.61969" lon="7.07837">
        <ele>138</ele>
        <time>2011-04-06T10:31:23.000Z</time>
      </trkpt>
      <trkpt lat="43.61982" lon="7.07857">
        <ele>139.39999389648</ele>
        <time>2011-04-06T10:31:30.000Z</time>
      </trkpt>
      <trkpt lat="43.61991" lon="7.0788">
        <ele>141.39999389648</ele>
        <time>2011-04-06T10:31:37.000Z</time>
      </trkpt>
      <trkpt lat="43.61992" lon="7.07884">
        <ele>141.60000610352</ele>
        <time>2011-04-06T10:31:38.000Z</time>
      </trkpt>
      <trkpt lat="43.61995" lon="7.07905">
        <ele>143.80000305176</ele>
        <time>2011-04-06T10:31:44.000Z</time>
      </trkpt>
      <trkpt lat="43.61996" lon="7.07915">
        <ele>145</ele>
        <time>2011-04-06T10:31:47.000Z</time>
      </trkpt>
      <trkpt lat="43.61995" lon="7.07933">
        <ele>145.19999694824</ele>
        <time>2011-04-06T10:31:52.000Z</time>
      </trkpt>
      <trkpt lat="43.61993" lon="7.07941">
        <ele>145.39999389648</ele>
        <time>2011-04-06T10:31:54.000Z</time>
      </trkpt>
      <trkpt lat="43.6199" lon="7.07961">
        <ele>145.39999389648</ele>
        <time>2011-04-06T10:31:59.000Z</time>
      </trkpt>
      <trkpt lat="43.61986" lon="7.07976">
        <ele>145.60000610352</ele>
        <time>2011-04-06T10:32:03.000Z</time>
      </trkpt>
      <trkpt lat="43.61984" lon="7.07986">
        <ele>145.60000610352</ele>
        <time>2011-04-06T10:32:06.000Z</time>
      </trkpt>
      <trkpt lat="43.61979" lon="7.08006">
        <ele>145</ele>
        <time>2011-04-06T10:32:11.000Z</time>
      </trkpt>
      <trkpt lat="43.61977" lon="7.08009">
        <ele>144.80000305176</ele>
        <time>2011-04-06T10:32:12.000Z</time>
      </trkpt>
      <trkpt lat="43.61973" lon="7.08021">
        <ele>144</ele>
        <time>2011-04-06T10:32:16.000Z</time>
      </trkpt>
      <trkpt lat="43.61978" lon="7.08033">
        <ele>143.60000610352</ele>
        <time>2011-04-06T10:32:20.000Z</time>
      </trkpt>
      <trkpt lat="43.6198" lon="7.08035">
        <ele>143.60000610352</ele>
        <time>2011-04-06T10:32:21.000Z</time>
      </trkpt>
      <trkpt lat="43.61989" lon="7.08037">
        <ele>144</ele>
        <time>2011-04-06T10:32:25.000Z</time>
      </trkpt>
      <trkpt lat="43.61997" lon="7.08042">
        <ele>144.19999694824</ele>
        <time>2011-04-06T10:32:28.000Z</time>
      </trkpt>
      <trkpt lat="43.62005" lon="7.08048">
        <ele>144</ele>
        <time>2011-04-06T10:32:31.000Z</time>
      </trkpt>
      <trkpt lat="43.62013" lon="7.0805">
        <ele>143.60000610352</ele>
        <time>2011-04-06T10:32:33.000Z</time>
      </trkpt>
      <trkpt lat="43.62021" lon="7.08049">
        <ele>143.19999694824</ele>
        <time>2011-04-06T10:32:35.000Z</time>
      </trkpt>
      <trkpt lat="43.62032" lon="7.08048">
        <ele>142.80000305176</ele>
        <time>2011-04-06T10:32:38.000Z</time>
      </trkpt>
      <trkpt lat="43.62044" lon="7.08046">
        <ele>142.19999694824</ele>
        <time>2011-04-06T10:32:41.000Z</time>
      </trkpt>
      <trkpt lat="43.62052" lon="7.08044">
        <ele>141.80000305176</ele>
        <time>2011-04-06T10:32:43.000Z</time>
      </trkpt>
      <trkpt lat="43.62065" lon="7.08042">
        <ele>141.19999694824</ele>
        <time>2011-04-06T10:32:46.000Z</time>
      </trkpt>
      <trkpt lat="43.6207" lon="7.08042">
        <ele>141</ele>
        <time>2011-04-06T10:32:47.000Z</time>
      </trkpt>
      <trkpt lat="43.6209" lon="7.08042">
        <ele>140</ele>
        <time>2011-04-06T10:32:51.000Z</time>
      </trkpt>
      <trkpt lat="43.62112" lon="7.0804">
        <ele>139</ele>
        <time>2011-04-06T10:32:55.000Z</time>
      </trkpt>
      <trkpt lat="43.62124" lon="7.0804">
        <ele>138.39999389648</ele>
        <time>2011-04-06T10:32:57.000Z</time>
      </trkpt>
      <trkpt lat="43.62129" lon="7.08039">
        <ele>138.19999694824</ele>
        <time>2011-04-06T10:32:58.000Z</time>
      </trkpt>
      <trkpt lat="43.62136" lon="7.08038">
        <ele>137.80000305176</ele>
        <time>2011-04-06T10:32:59.000Z</time>
      </trkpt>
      <trkpt lat="43.6215" lon="7.08033">
        <ele>136.80000305176</ele>
        <time>2011-04-06T10:33:02.000Z</time>
      </trkpt>
      <trkpt lat="43.62154" lon="7.0803">
        <ele>136.60000610352</ele>
        <time>2011-04-06T10:33:03.000Z</time>
      </trkpt>
      <trkpt lat="43.62159" lon="7.08027">
        <ele>136.19999694824</ele>
        <time>2011-04-06T10:33:05.000Z</time>
      </trkpt>
      <trkpt lat="43.62163" lon="7.08026">
        <ele>136</ele>
        <time>2011-04-06T10:33:06.000Z</time>
      </trkpt>
      <trkpt lat="43.62171" lon="7.0802">
        <ele>134.80000305176</ele>
        <time>2011-04-06T10:33:09.000Z</time>
      </trkpt>
      <trkpt lat="43.62174" lon="7.08016">
        <ele>134.19999694824</ele>
        <time>2011-04-06T10:33:10.000Z</time>
      </trkpt>
      <trkpt lat="43.62185" lon="7.08004">
        <ele>131.39999389648</ele>
        <time>2011-04-06T10:33:14.000Z</time>
      </trkpt>
      <trkpt lat="43.62202" lon="7.07991">
        <ele>127</ele>
        <time>2011-04-06T10:33:19.000Z</time>
      </trkpt>
      <trkpt lat="43.62217" lon="7.07978">
        <ele>122.80000305176</ele>
        <time>2011-04-06T10:33:24.000Z</time>
      </trkpt>
      <trkpt lat="43.6222" lon="7.07975">
        <ele>122</ele>
        <time>2011-04-06T10:33:25.000Z</time>
      </trkpt>
      <trkpt lat="43.6223" lon="7.07967">
        <ele>118.80000305176</ele>
        <time>2011-04-06T10:33:29.000Z</time>
      </trkpt>
      <trkpt lat="43.62236" lon="7.07964">
        <ele>117.40000152588</ele>
        <time>2011-04-06T10:33:32.000Z</time>
      </trkpt>
      <trkpt lat="43.62239" lon="7.07964">
        <ele>116.80000305176</ele>
        <time>2011-04-06T10:33:33.000Z</time>
      </trkpt>
      <trkpt lat="43.62243" lon="7.07962">
        <ele>115.80000305176</ele>
        <time>2011-04-06T10:33:34.000Z</time>
      </trkpt>
      <trkpt lat="43.62256" lon="7.07955">
        <ele>111.40000152588</ele>
        <time>2011-04-06T10:33:39.000Z</time>
      </trkpt>
      <trkpt lat="43.62259" lon="7.07954">
        <ele>110.40000152588</ele>
        <time>2011-04-06T10:33:40.000Z</time>
      </trkpt>
      <trkpt lat="43.62266" lon="7.07948">
        <ele>107.40000152588</ele>
        <time>2011-04-06T10:33:43.000Z</time>
      </trkpt>
      <trkpt lat="43.62277" lon="7.07946">
        <ele>104</ele>
        <time>2011-04-06T10:33:47.000Z</time>
      </trkpt>
      <trkpt lat="43.6228" lon="7.07945">
        <ele>103</ele>
        <time>2011-04-06T10:33:48.000Z</time>
      </trkpt>
      <trkpt lat="43.62296" lon="7.07941">
        <ele>97.400001525879</ele>
        <time>2011-04-06T10:33:54.000Z</time>
      </trkpt>
      <trkpt lat="43.62311" lon="7.07939">
        <ele>92.599998474121</ele>
        <time>2011-04-06T10:34:00.000Z</time>
      </trkpt>
      <trkpt lat="43.62315" lon="7.07941">
        <ele>91.599998474121</ele>
        <time>2011-04-06T10:34:02.000Z</time>
      </trkpt>
      <trkpt lat="43.6232" lon="7.07944">
        <ele>90</ele>
        <time>2011-04-06T10:34:04.000Z</time>
      </trkpt>
      <trkpt lat="43.62326" lon="7.07944">
        <ele>88.400001525879</ele>
        <time>2011-04-06T10:34:06.000Z</time>
      </trkpt>
      <trkpt lat="43.62328" lon="7.07945">
        <ele>87.400001525879</ele>
        <time>2011-04-06T10:34:07.000Z</time>
      </trkpt>
      <trkpt lat="43.62333" lon="7.07952">
        <ele>86.199996948242</ele>
        <time>2011-04-06T10:34:09.000Z</time>
      </trkpt>
      <trkpt lat="43.62335" lon="7.07957">
        <ele>85.800003051758</ele>
        <time>2011-04-06T10:34:10.000Z</time>
      </trkpt>
      <trkpt lat="43.62341" lon="7.07974">
        <ele>84.400001525879</ele>
        <time>2011-04-06T10:34:13.000Z</time>
      </trkpt>
      <trkpt lat="43.62345" lon="7.07985">
        <ele>83.599998474121</ele>
        <time>2011-04-06T10:34:15.000Z</time>
      </trkpt>
      <trkpt lat="43.62349" lon="7.07997">
        <ele>82.800003051758</ele>
        <time>2011-04-06T10:34:17.000Z</time>
      </trkpt>
      <trkpt lat="43.62358" lon="7.0802">
        <ele>80</ele>
        <time>2011-04-06T10:34:21.000Z</time>
      </trkpt>
      <trkpt lat="43.6236" lon="7.08026">
        <ele>79.400001525879</ele>
        <time>2011-04-06T10:34:22.000Z</time>
      </trkpt>
      <trkpt lat="43.6237" lon="7.08046">
        <ele>77</ele>
        <time>2011-04-06T10:34:26.000Z</time>
      </trkpt>
      <trkpt lat="43.62372" lon="7.08051">
        <ele>76.400001525879</ele>
        <time>2011-04-06T10:34:27.000Z</time>
      </trkpt>
      <trkpt lat="43.62379" lon="7.08057">
        <ele>74.599998474121</ele>
        <time>2011-04-06T10:34:29.000Z</time>
      </trkpt>
      <trkpt lat="43.62389" lon="7.08061">
        <ele>72.400001525879</ele>
        <time>2011-04-06T10:34:31.000Z</time>
      </trkpt>
      <trkpt lat="43.62399" lon="7.08061">
        <ele>69.800003051758</ele>
        <time>2011-04-06T10:34:33.000Z</time>
      </trkpt>
      <trkpt lat="43.62408" lon="7.08058">
        <ele>67.400001525879</ele>
        <time>2011-04-06T10:34:35.000Z</time>
      </trkpt>
      <trkpt lat="43.62412" lon="7.08057">
        <ele>66.199996948242</ele>
        <time>2011-04-06T10:34:36.000Z</time>
      </trkpt>
      <trkpt lat="43.62415" lon="7.08057">
        <ele>65.199996948242</ele>
        <time>2011-04-06T10:34:37.000Z</time>
      </trkpt>
      <trkpt lat="43.62423" lon="7.08065">
        <ele>64.800003051758</ele>
        <time>2011-04-06T10:34:40.000Z</time>
      </trkpt>
      <trkpt lat="43.62427" lon="7.08069">
        <ele>64.599998474121</ele>
        <time>2011-04-06T10:34:41.000Z</time>
      </trkpt>
      <trkpt lat="43.6243" lon="7.08073">
        <ele>64.400001525879</ele>
        <time>2011-04-06T10:34:42.000Z</time>
      </trkpt>
      <trkpt lat="43.62438" lon="7.08086">
        <ele>64.199996948242</ele>
        <time>2011-04-06T10:34:45.000Z</time>
      </trkpt>
      <trkpt lat="43.62441" lon="7.0809">
        <ele>64.199996948242</ele>
        <time>2011-04-06T10:34:46.000Z</time>
      </trkpt>
      <trkpt lat="43.62445" lon="7.08094">
        <ele>64</ele>
        <time>2011-04-06T10:34:47.000Z</time>
      </trkpt>
      <trkpt lat="43.62454" lon="7.081">
        <ele>63.200000762939</ele>
        <time>2011-04-06T10:34:49.000Z</time>
      </trkpt>
      <trkpt lat="43.62462" lon="7.08105">
        <ele>62.400001525879</ele>
        <time>2011-04-06T10:34:51.000Z</time>
      </trkpt>
      <trkpt lat="43.6247" lon="7.08113">
        <ele>62.200000762939</ele>
        <time>2011-04-06T10:34:53.000Z</time>
      </trkpt>
      <trkpt lat="43.62474" lon="7.08124">
        <ele>62.599998474121</ele>
        <time>2011-04-06T10:34:55.000Z</time>
      </trkpt>
      <trkpt lat="43.6248" lon="7.08134">
        <ele>62.599998474121</ele>
        <time>2011-04-06T10:34:58.000Z</time>
      </trkpt>
      <trkpt lat="43.62486" lon="7.08126">
        <ele>60.799999237061</ele>
        <time>2011-04-06T10:35:01.000Z</time>
      </trkpt>
      <trkpt lat="43.62485" lon="7.08114">
        <ele>60</ele>
        <time>2011-04-06T10:35:03.000Z</time>
      </trkpt>
      <trkpt lat="43.62484" lon="7.08108">
        <ele>59.599998474121</ele>
        <time>2011-04-06T10:35:04.000Z</time>
      </trkpt>
      <trkpt lat="43.62483" lon="7.08101">
        <ele>59</ele>
        <time>2011-04-06T10:35:05.000Z</time>
      </trkpt>
      <trkpt lat="43.62482" lon="7.08089">
        <ele>58</ele>
        <time>2011-04-06T10:35:07.000Z</time>
      </trkpt>
      <trkpt lat="43.62485" lon="7.08072">
        <ele>57.200000762939</ele>
        <time>2011-04-06T10:35:10.000Z</time>
      </trkpt>
      <trkpt lat="43.62488" lon="7.0806">
        <ele>57</ele>
        <time>2011-04-06T10:35:12.000Z</time>
      </trkpt>
      <trkpt lat="43.62492" lon="7.08049">
        <ele>57</ele>
        <time>2011-04-06T10:35:14.000Z</time>
      </trkpt>
      <trkpt lat="43.62495" lon="7.08039">
        <ele>57</ele>
        <time>2011-04-06T10:35:16.000Z</time>
      </trkpt>
      <trkpt lat="43.62499" lon="7.08035">
        <ele>56.799999237061</ele>
        <time>2011-04-06T10:35:17.000Z</time>
      </trkpt>
      <trkpt lat="43.62501" lon="7.0803">
        <ele>57</ele>
        <time>2011-04-06T10:35:18.000Z</time>
      </trkpt>
      <trkpt lat="43.62504" lon="7.08019">
        <ele>57.599998474121</ele>
        <time>2011-04-06T10:35:21.000Z</time>
      </trkpt>
      <trkpt lat="43.62506" lon="7.08011">
        <ele>58.200000762939</ele>
        <time>2011-04-06T10:35:23.000Z</time>
      </trkpt>
      <trkpt lat="43.62506" lon="7.08006">
        <ele>58.400001525879</ele>
        <time>2011-04-06T10:35:25.000Z</time>
      </trkpt>
      <trkpt lat="43.625" lon="7.07993">
        <ele>58.799999237061</ele>
        <time>2011-04-06T10:35:31.000Z</time>
      </trkpt>
      <trkpt lat="43.62498" lon="7.07991">
        <ele>59.200000762939</ele>
        <time>2011-04-06T10:35:32.000Z</time>
      </trkpt>
      <trkpt lat="43.62497" lon="7.07989">
        <ele>59.599998474121</ele>
        <time>2011-04-06T10:35:33.000Z</time>
      </trkpt>
      <trkpt lat="43.62489" lon="7.07976">
        <ele>61.200000762939</ele>
        <time>2011-04-06T10:35:39.000Z</time>
      </trkpt>
      <trkpt lat="43.62483" lon="7.0797">
        <ele>61.599998474121</ele>
        <time>2011-04-06T10:35:43.000Z</time>
      </trkpt>
      <trkpt lat="43.62481" lon="7.07966">
        <ele>62</ele>
        <time>2011-04-06T10:35:45.000Z</time>
      </trkpt>
      <trkpt lat="43.62477" lon="7.0795">
        <ele>63</ele>
        <time>2011-04-06T10:35:53.000Z</time>
      </trkpt>
      <trkpt lat="43.62475" lon="7.07945">
        <ele>63.400001525879</ele>
        <time>2011-04-06T10:35:55.000Z</time>
      </trkpt>
      <trkpt lat="43.6247" lon="7.0793">
        <ele>64</ele>
        <time>2011-04-06T10:36:02.000Z</time>
      </trkpt>
      <trkpt lat="43.62467" lon="7.07922">
        <ele>64</ele>
        <time>2011-04-06T10:36:06.000Z</time>
      </trkpt>
      <trkpt lat="43.62463" lon="7.0791">
        <ele>64</ele>
        <time>2011-04-06T10:36:12.000Z</time>
      </trkpt>
      <trkpt lat="43.6246" lon="7.07898">
        <ele>64.199996948242</ele>
        <time>2011-04-06T10:36:18.000Z</time>
      </trkpt>
      <trkpt lat="43.62459" lon="7.07891">
        <ele>64.400001525879</ele>
        <time>2011-04-06T10:36:22.000Z</time>
      </trkpt>
      <trkpt lat="43.62456" lon="7.07878">
        <ele>64.599998474121</ele>
        <time>2011-04-06T10:36:29.000Z</time>
      </trkpt>
      <trkpt lat="43.62455" lon="7.07874">
        <ele>64.599998474121</ele>
        <time>2011-04-06T10:36:31.000Z</time>
      </trkpt>
      <trkpt lat="43.62455" lon="7.07862">
        <ele>65.199996948242</ele>
        <time>2011-04-06T10:36:37.000Z</time>
      </trkpt>
      <trkpt lat="43.62458" lon="7.07848">
        <ele>66.599998474121</ele>
        <time>2011-04-06T10:36:44.000Z</time>
      </trkpt>
      <trkpt lat="43.6246" lon="7.07843">
        <ele>67.199996948242</ele>
        <time>2011-04-06T10:36:46.000Z</time>
      </trkpt>
      <trkpt lat="43.6247" lon="7.07827">
        <ele>70.199996948242</ele>
        <time>2011-04-06T10:36:55.000Z</time>
      </trkpt>
      <trkpt lat="43.62481" lon="7.07814">
        <ele>72.199996948242</ele>
        <time>2011-04-06T10:37:04.000Z</time>
      </trkpt>
      <trkpt lat="43.62484" lon="7.0781">
        <ele>72.800003051758</ele>
        <time>2011-04-06T10:37:07.000Z</time>
      </trkpt>
      <trkpt lat="43.6249" lon="7.07802">
        <ele>73.599998474121</ele>
        <time>2011-04-06T10:37:13.000Z</time>
      </trkpt>
      <trkpt lat="43.62498" lon="7.07793">
        <ele>74.800003051758</ele>
        <time>2011-04-06T10:37:19.000Z</time>
      </trkpt>
      <trkpt lat="43.62501" lon="7.07789">
        <ele>75</ele>
        <time>2011-04-06T10:37:21.000Z</time>
      </trkpt>
      <trkpt lat="43.62508" lon="7.07776">
        <ele>76.599998474121</ele>
        <time>2011-04-06T10:37:28.000Z</time>
      </trkpt>
      <trkpt lat="43.6251" lon="7.07773">
        <ele>76.800003051758</ele>
        <time>2011-04-06T10:37:30.000Z</time>
      </trkpt>
      <trkpt lat="43.62514" lon="7.07766">
        <ele>77.599998474121</ele>
        <time>2011-04-06T10:37:34.000Z</time>
      </trkpt>
      <trkpt lat="43.62516" lon="7.07762">
        <ele>78</ele>
        <time>2011-04-06T10:37:36.000Z</time>
      </trkpt>
      <trkpt lat="43.62522" lon="7.07753">
        <ele>79</ele>
        <time>2011-04-06T10:37:42.000Z</time>
      </trkpt>
      <trkpt lat="43.62526" lon="7.07747">
        <ele>79.800003051758</ele>
        <time>2011-04-06T10:37:46.000Z</time>
      </trkpt>
      <trkpt lat="43.62534" lon="7.07736">
        <ele>81.199996948242</ele>
        <time>2011-04-06T10:37:54.000Z</time>
      </trkpt>
      <trkpt lat="43.62535" lon="7.07735">
        <ele>81.400001525879</ele>
        <time>2011-04-06T10:37:55.000Z</time>
      </trkpt>
      <trkpt lat="43.62542" lon="7.07725">
        <ele>82.599998474121</ele>
        <time>2011-04-06T10:38:02.000Z</time>
      </trkpt>
      <trkpt lat="43.62547" lon="7.07714">
        <ele>83.400001525879</ele>
        <time>2011-04-06T10:38:07.000Z</time>
      </trkpt>
      <trkpt lat="43.62548" lon="7.07712">
        <ele>83.599998474121</ele>
        <time>2011-04-06T10:38:08.000Z</time>
      </trkpt>
      <trkpt lat="43.62554" lon="7.07702">
        <ele>84.599998474121</ele>
        <time>2011-04-06T10:38:15.000Z</time>
      </trkpt>
      <trkpt lat="43.6256" lon="7.07695">
        <ele>85.800003051758</ele>
        <time>2011-04-06T10:38:19.000Z</time>
      </trkpt>
      <trkpt lat="43.62572" lon="7.07683">
        <ele>88.400001525879</ele>
        <time>2011-04-06T10:38:27.000Z</time>
      </trkpt>
      <trkpt lat="43.62575" lon="7.0768">
        <ele>89.400001525879</ele>
        <time>2011-04-06T10:38:30.000Z</time>
      </trkpt>
      <trkpt lat="43.62581" lon="7.07676">
        <ele>90.599998474121</ele>
        <time>2011-04-06T10:38:34.000Z</time>
      </trkpt>
      <trkpt lat="43.62589" lon="7.07663">
        <ele>91.599998474121</ele>
        <time>2011-04-06T10:38:41.000Z</time>
      </trkpt>
      <trkpt lat="43.62601" lon="7.07651">
        <ele>92.800003051758</ele>
        <time>2011-04-06T10:38:48.000Z</time>
      </trkpt>
      <trkpt lat="43.62605" lon="7.07649">
        <ele>93.199996948242</ele>
        <time>2011-04-06T10:38:50.000Z</time>
      </trkpt>
      <trkpt lat="43.62609" lon="7.07646">
        <ele>93.599998474121</ele>
        <time>2011-04-06T10:38:53.000Z</time>
      </trkpt>
      <trkpt lat="43.6262" lon="7.07635">
        <ele>94.599998474121</ele>
        <time>2011-04-06T10:39:01.000Z</time>
      </trkpt>
      <trkpt lat="43.62631" lon="7.07629">
        <ele>96</ele>
        <time>2011-04-06T10:39:08.000Z</time>
      </trkpt>
      <trkpt lat="43.62638" lon="7.07627">
        <ele>96.800003051758</ele>
        <time>2011-04-06T10:39:12.000Z</time>
      </trkpt>
      <trkpt lat="43.62643" lon="7.07626">
        <ele>97.400001525879</ele>
        <time>2011-04-06T10:39:15.000Z</time>
      </trkpt>
      <trkpt lat="43.62652" lon="7.07625">
        <ele>98.400001525879</ele>
        <time>2011-04-06T10:39:21.000Z</time>
      </trkpt>
      <trkpt lat="43.62656" lon="7.07624">
        <ele>99</ele>
        <time>2011-04-06T10:39:22.000Z</time>
      </trkpt>
      <trkpt lat="43.62661" lon="7.07622">
        <ele>99.400001525879</ele>
        <time>2011-04-06T10:39:25.000Z</time>
      </trkpt>
      <trkpt lat="43.62673" lon="7.07618">
        <ele>100.59999847412</ele>
        <time>2011-04-06T10:39:32.000Z</time>
      </trkpt>
      <trkpt lat="43.62685" lon="7.0761">
        <ele>100.80000305176</ele>
        <time>2011-04-06T10:39:37.000Z</time>
      </trkpt>
      <trkpt lat="43.62691" lon="7.07604">
        <ele>100.80000305176</ele>
        <time>2011-04-06T10:39:41.000Z</time>
      </trkpt>
      <trkpt lat="43.62695" lon="7.076">
        <ele>100.80000305176</ele>
        <time>2011-04-06T10:39:43.000Z</time>
      </trkpt>
      <trkpt lat="43.62707" lon="7.07589">
        <ele>100.80000305176</ele>
        <time>2011-04-06T10:39:47.000Z</time>
      </trkpt>
      <trkpt lat="43.62715" lon="7.07583">
        <ele>100.80000305176</ele>
        <time>2011-04-06T10:39:50.000Z</time>
      </trkpt>
      <trkpt lat="43.62723" lon="7.07576">
        <ele>101</ele>
        <time>2011-04-06T10:39:53.000Z</time>
      </trkpt>
      <trkpt lat="43.62734" lon="7.07565">
        <ele>101.40000152588</ele>
        <time>2011-04-06T10:39:57.000Z</time>
      </trkpt>
      <trkpt lat="43.62739" lon="7.0756">
        <ele>101.40000152588</ele>
        <time>2011-04-06T10:39:59.000Z</time>
      </trkpt>
      <trkpt lat="43.62752" lon="7.07541">
        <ele>101.59999847412</ele>
        <time>2011-04-06T10:40:06.000Z</time>
      </trkpt>
      <trkpt lat="43.62764" lon="7.07522">
        <ele>102.19999694824</ele>
        <time>2011-04-06T10:40:14.000Z</time>
      </trkpt>
      <trkpt lat="43.62768" lon="7.07515">
        <ele>102.59999847412</ele>
        <time>2011-04-06T10:40:15.000Z</time>
      </trkpt>
      <trkpt lat="43.62776" lon="7.075">
        <ele>103</ele>
        <time>2011-04-06T10:40:21.000Z</time>
      </trkpt>
      <trkpt lat="43.62785" lon="7.07486">
        <ele>104.59999847412</ele>
        <time>2011-04-06T10:40:26.000Z</time>
      </trkpt>
      <trkpt lat="43.62788" lon="7.07481">
        <ele>105.19999694824</ele>
        <time>2011-04-06T10:40:27.000Z</time>
      </trkpt>
      <trkpt lat="43.62799" lon="7.07465">
        <ele>106.59999847412</ele>
        <time>2011-04-06T10:40:33.000Z</time>
      </trkpt>
      <trkpt lat="43.62802" lon="7.0746">
        <ele>107</ele>
        <time>2011-04-06T10:40:36.000Z</time>
      </trkpt>
      <trkpt lat="43.62813" lon="7.07443">
        <ele>108.40000152588</ele>
        <time>2011-04-06T10:40:42.000Z</time>
      </trkpt>
      <trkpt lat="43.62815" lon="7.07441">
        <ele>108.40000152588</ele>
        <time>2011-04-06T10:40:43.000Z</time>
      </trkpt>
      <trkpt lat="43.62821" lon="7.0743">
        <ele>109</ele>
        <time>2011-04-06T10:40:48.000Z</time>
      </trkpt>
      <trkpt lat="43.62827" lon="7.0742">
        <ele>109.40000152588</ele>
        <time>2011-04-06T10:40:51.000Z</time>
      </trkpt>
      <trkpt lat="43.62832" lon="7.07413">
        <ele>110</ele>
        <time>2011-04-06T10:40:55.000Z</time>
      </trkpt>
      <trkpt lat="43.62839" lon="7.074">
        <ele>110.80000305176</ele>
        <time>2011-04-06T10:41:00.000Z</time>
      </trkpt>
      <trkpt lat="43.62845" lon="7.07391">
        <ele>111.40000152588</ele>
        <time>2011-04-06T10:41:03.000Z</time>
      </trkpt>
      <trkpt lat="43.62851" lon="7.07381">
        <ele>111.80000305176</ele>
        <time>2011-04-06T10:41:07.000Z</time>
      </trkpt>
      <trkpt lat="43.62856" lon="7.07372">
        <ele>112.40000152588</ele>
        <time>2011-04-06T10:41:11.000Z</time>
      </trkpt>
      <trkpt lat="43.62863" lon="7.0736">
        <ele>112.80000305176</ele>
        <time>2011-04-06T10:41:16.000Z</time>
      </trkpt>
      <trkpt lat="43.62868" lon="7.07353">
        <ele>113.19999694824</ele>
        <time>2011-04-06T10:41:19.000Z</time>
      </trkpt>
      <trkpt lat="43.62876" lon="7.07342">
        <ele>113.59999847412</ele>
        <time>2011-04-06T10:41:25.000Z</time>
      </trkpt>
      <trkpt lat="43.62883" lon="7.07333">
        <ele>114</ele>
        <time>2011-04-06T10:41:29.000Z</time>
      </trkpt>
      <trkpt lat="43.62891" lon="7.07325">
        <ele>114</ele>
        <time>2011-04-06T10:41:32.000Z</time>
      </trkpt>
      <trkpt lat="43.62896" lon="7.07318">
        <ele>114.19999694824</ele>
        <time>2011-04-06T10:41:35.000Z</time>
      </trkpt>
      <trkpt lat="43.62905" lon="7.07305">
        <ele>114.40000152588</ele>
        <time>2011-04-06T10:41:39.000Z</time>
      </trkpt>
      <trkpt lat="43.62912" lon="7.07293">
        <ele>114.40000152588</ele>
        <time>2011-04-06T10:41:42.000Z</time>
      </trkpt>
      <trkpt lat="43.62916" lon="7.07283">
        <ele>114.59999847412</ele>
        <time>2011-04-06T10:41:43.000Z</time>
      </trkpt>
      <trkpt lat="43.62928" lon="7.07254">
        <ele>114.40000152588</ele>
        <time>2011-04-06T10:41:49.000Z</time>
      </trkpt>
      <trkpt lat="43.62936" lon="7.07234">
        <ele>114.80000305176</ele>
        <time>2011-04-06T10:41:53.000Z</time>
      </trkpt>
      <trkpt lat="43.62943" lon="7.07218">
        <ele>115</ele>
        <time>2011-04-06T10:41:57.000Z</time>
      </trkpt>
      <trkpt lat="43.62947" lon="7.07208">
        <ele>115.40000152588</ele>
        <time>2011-04-06T10:41:59.000Z</time>
      </trkpt>
      <trkpt lat="43.62959" lon="7.07184">
        <ele>115.80000305176</ele>
        <time>2011-04-06T10:42:03.000Z</time>
      </trkpt>
      <trkpt lat="43.6297" lon="7.0716">
        <ele>116.19999694824</ele>
        <time>2011-04-06T10:42:09.000Z</time>
      </trkpt>
      <trkpt lat="43.62972" lon="7.07155">
        <ele>116.19999694824</ele>
        <time>2011-04-06T10:42:10.000Z</time>
      </trkpt>
      <trkpt lat="43.62982" lon="7.07136">
        <ele>116.19999694824</ele>
        <time>2011-04-06T10:42:14.000Z</time>
      </trkpt>
      <trkpt lat="43.62993" lon="7.07109">
        <ele>116.40000152588</ele>
        <time>2011-04-06T10:42:19.000Z</time>
      </trkpt>
      <trkpt lat="43.63003" lon="7.07088">
        <ele>116.59999847412</ele>
        <time>2011-04-06T10:42:23.000Z</time>
      </trkpt>
      <trkpt lat="43.6301" lon="7.07067">
        <ele>116</ele>
        <time>2011-04-06T10:42:27.000Z</time>
      </trkpt>
      <trkpt lat="43.63011" lon="7.07062">
        <ele>116</ele>
        <time>2011-04-06T10:42:28.000Z</time>
      </trkpt>
      <trkpt lat="43.63012" lon="7.07058">
        <ele>115.80000305176</ele>
        <time>2011-04-06T10:42:29.000Z</time>
      </trkpt>
      <trkpt lat="43.63009" lon="7.07051">
        <ele>116.19999694824</ele>
        <time>2011-04-06T10:42:31.000Z</time>
      </trkpt>
      <trkpt lat="43.62998" lon="7.07046">
        <ele>117</ele>
        <time>2011-04-06T10:42:34.000Z</time>
      </trkpt>
      <trkpt lat="43.62987" lon="7.07042">
        <ele>117.19999694824</ele>
        <time>2011-04-06T10:42:37.000Z</time>
      </trkpt>
      <trkpt lat="43.6298" lon="7.07039">
        <ele>117.40000152588</ele>
        <time>2011-04-06T10:42:39.000Z</time>
      </trkpt>
      <trkpt lat="43.62964" lon="7.07032">
        <ele>117.80000305176</ele>
        <time>2011-04-06T10:42:43.000Z</time>
      </trkpt>
      <trkpt lat="43.6296" lon="7.07031">
        <ele>117.80000305176</ele>
        <time>2011-04-06T10:42:44.000Z</time>
      </trkpt>
      <trkpt lat="43.6294" lon="7.07024">
        <ele>118.40000152588</ele>
        <time>2011-04-06T10:42:49.000Z</time>
      </trkpt>
      <trkpt lat="43.62927" lon="7.07016">
        <ele>118.59999847412</ele>
        <time>2011-04-06T10:42:51.000Z</time>
      </trkpt>
      <trkpt lat="43.62923" lon="7.07014">
        <ele>118.80000305176</ele>
        <time>2011-04-06T10:42:53.000Z</time>
      </trkpt>
      <trkpt lat="43.62912" lon="7.0701">
        <ele>118.80000305176</ele>
        <time>2011-04-06T10:42:55.000Z</time>
      </trkpt>
      <trkpt lat="43.62902" lon="7.07006">
        <ele>118.80000305176</ele>
        <time>2011-04-06T10:42:57.000Z</time>
      </trkpt>
      <trkpt lat="43.62882" lon="7.06996">
        <ele>118.40000152588</ele>
        <time>2011-04-06T10:43:01.000Z</time>
      </trkpt>
      <trkpt lat="43.62878" lon="7.06993">
        <ele>118.19999694824</ele>
        <time>2011-04-06T10:43:02.000Z</time>
      </trkpt>
      <trkpt lat="43.62873" lon="7.06989">
        <ele>118</ele>
        <time>2011-04-06T10:43:03.000Z</time>
      </trkpt>
      <trkpt lat="43.62865" lon="7.06981">
        <ele>117.80000305176</ele>
        <time>2011-04-06T10:43:05.000Z</time>
      </trkpt>
      <trkpt lat="43.62857" lon="7.06974">
        <ele>117.40000152588</ele>
        <time>2011-04-06T10:43:07.000Z</time>
      </trkpt>
      <trkpt lat="43.62852" lon="7.06971">
        <ele>117.40000152588</ele>
        <time>2011-04-06T10:43:08.000Z</time>
      </trkpt>
      <trkpt lat="43.62848" lon="7.06969">
        <ele>117.19999694824</ele>
        <time>2011-04-06T10:43:09.000Z</time>
      </trkpt>
      <trkpt lat="43.62829" lon="7.0696">
        <ele>116.59999847412</ele>
        <time>2011-04-06T10:43:13.000Z</time>
      </trkpt>
      <trkpt lat="43.62825" lon="7.06959">
        <ele>116.40000152588</ele>
        <time>2011-04-06T10:43:14.000Z</time>
      </trkpt>
      <trkpt lat="43.62811" lon="7.06954">
        <ele>115.19999694824</ele>
        <time>2011-04-06T10:43:17.000Z</time>
      </trkpt>
      <trkpt lat="43.62795" lon="7.06945">
        <ele>113.59999847412</ele>
        <time>2011-04-06T10:43:21.000Z</time>
      </trkpt>
      <trkpt lat="43.62792" lon="7.06943">
        <ele>113.40000152588</ele>
        <time>2011-04-06T10:43:22.000Z</time>
      </trkpt>
      <trkpt lat="43.62787" lon="7.06939">
        <ele>112.80000305176</ele>
        <time>2011-04-06T10:43:24.000Z</time>
      </trkpt>
      <trkpt lat="43.62785" lon="7.06939">
        <ele>112.59999847412</ele>
        <time>2011-04-06T10:43:25.000Z</time>
      </trkpt>
      <trkpt lat="43.62775" lon="7.06945">
        <ele>112.19999694824</ele>
        <time>2011-04-06T10:43:29.000Z</time>
      </trkpt>
      <trkpt lat="43.6276" lon="7.0696">
        <ele>111.59999847412</ele>
        <time>2011-04-06T10:43:33.000Z</time>
      </trkpt>
      <trkpt lat="43.62757" lon="7.06964">
        <ele>111.59999847412</ele>
        <time>2011-04-06T10:43:35.000Z</time>
      </trkpt>
      <trkpt lat="43.62745" lon="7.06981">
        <ele>110.40000152588</ele>
        <time>2011-04-06T10:43:39.000Z</time>
      </trkpt>
      <trkpt lat="43.62741" lon="7.06986">
        <ele>109.59999847412</ele>
        <time>2011-04-06T10:43:40.000Z</time>
      </trkpt>
      <trkpt lat="43.62733" lon="7.07001">
        <ele>107.19999694824</ele>
        <time>2011-04-06T10:43:43.000Z</time>
      </trkpt>
      <trkpt lat="43.62726" lon="7.07016">
        <ele>104</ele>
        <time>2011-04-06T10:43:46.000Z</time>
      </trkpt>
      <trkpt lat="43.62724" lon="7.07021">
        <ele>103.19999694824</ele>
        <time>2011-04-06T10:43:47.000Z</time>
      </trkpt>
      <trkpt lat="43.62722" lon="7.07026">
        <ele>102.19999694824</ele>
        <time>2011-04-06T10:43:48.000Z</time>
      </trkpt>
      <trkpt lat="43.62716" lon="7.07038">
        <ele>99.599998474121</ele>
        <time>2011-04-06T10:43:51.000Z</time>
      </trkpt>
      <trkpt lat="43.62714" lon="7.0704">
        <ele>98.599998474121</ele>
        <time>2011-04-06T10:43:53.000Z</time>
      </trkpt>
      <trkpt lat="43.62714" lon="7.0704">
        <ele>98.400001525879</ele>
        <time>2011-04-06T10:43:54.000Z</time>
      </trkpt>
      <trkpt lat="43.62714" lon="7.07041">
        <ele>98.599998474121</ele>
        <time>2011-04-06T10:44:03.000Z</time>
      </trkpt>
      <trkpt lat="43.62711" lon="7.07033">
        <ele>97.800003051758</ele>
        <time>2011-04-06T10:44:29.000Z</time>
      </trkpt>
      <trkpt lat="43.62708" lon="7.07016">
        <ele>98.199996948242</ele>
        <time>2011-04-06T10:44:33.000Z</time>
      </trkpt>
      <trkpt lat="43.62708" lon="7.0701">
        <ele>98.400001525879</ele>
        <time>2011-04-06T10:44:34.000Z</time>
      </trkpt>
      <trkpt lat="43.62704" lon="7.06981">
        <ele>98.199996948242</ele>
        <time>2011-04-06T10:44:39.000Z</time>
      </trkpt>
      <trkpt lat="43.62703" lon="7.06975">
        <ele>98</ele>
        <time>2011-04-06T10:44:40.000Z</time>
      </trkpt>
      <trkpt lat="43.62701" lon="7.06952">
        <ele>97.400001525879</ele>
        <time>2011-04-06T10:44:45.000Z</time>
      </trkpt>
      <trkpt lat="43.627" lon="7.06947">
        <ele>97.400001525879</ele>
        <time>2011-04-06T10:44:46.000Z</time>
      </trkpt>
      <trkpt lat="43.62698" lon="7.06926">
        <ele>96.800003051758</ele>
        <time>2011-04-06T10:44:51.000Z</time>
      </trkpt>
      <trkpt lat="43.62697" lon="7.06919">
        <ele>96.800003051758</ele>
        <time>2011-04-06T10:44:53.000Z</time>
      </trkpt>
      <trkpt lat="43.62696" lon="7.0691">
        <ele>96</ele>
        <time>2011-04-06T10:44:58.000Z</time>
      </trkpt>
      <trkpt lat="43.62691" lon="7.06902">
        <ele>94.199996948242</ele>
        <time>2011-04-06T10:45:25.000Z</time>
      </trkpt>
      <trkpt lat="43.62691" lon="7.06899">
        <ele>93.800003051758</ele>
        <time>2011-04-06T10:45:26.000Z</time>
      </trkpt>
      <trkpt lat="43.62689" lon="7.06879">
        <ele>91.599998474121</ele>
        <time>2011-04-06T10:45:31.000Z</time>
      </trkpt>
      <trkpt lat="43.62689" lon="7.06873">
        <ele>91</ele>
        <time>2011-04-06T10:45:32.000Z</time>
      </trkpt>
      <trkpt lat="43.6269" lon="7.0685">
        <ele>89.199996948242</ele>
        <time>2011-04-06T10:45:37.000Z</time>
      </trkpt>
      <trkpt lat="43.62698" lon="7.06827">
        <ele>88.400001525879</ele>
        <time>2011-04-06T10:45:42.000Z</time>
      </trkpt>
      <trkpt lat="43.627" lon="7.06824">
        <ele>88.400001525879</ele>
        <time>2011-04-06T10:45:43.000Z</time>
      </trkpt>
      <trkpt lat="43.6271" lon="7.06814">
        <ele>89</ele>
        <time>2011-04-06T10:45:48.000Z</time>
      </trkpt>
      <trkpt lat="43.62712" lon="7.06811">
        <ele>89</ele>
        <time>2011-04-06T10:45:49.000Z</time>
      </trkpt>
      <trkpt lat="43.62722" lon="7.06799">
        <ele>89.599998474121</ele>
        <time>2011-04-06T10:45:53.000Z</time>
      </trkpt>
      <trkpt lat="43.62727" lon="7.06791">
        <ele>89.599998474121</ele>
        <time>2011-04-06T10:45:55.000Z</time>
      </trkpt>
      <trkpt lat="43.62728" lon="7.06779">
        <ele>88.199996948242</ele>
        <time>2011-04-06T10:45:57.000Z</time>
      </trkpt>
      <trkpt lat="43.62726" lon="7.06766">
        <ele>86</ele>
        <time>2011-04-06T10:45:59.000Z</time>
      </trkpt>
      <trkpt lat="43.62724" lon="7.06748">
        <ele>83.199996948242</ele>
        <time>2011-04-06T10:46:02.000Z</time>
      </trkpt>
      <trkpt lat="43.62723" lon="7.06741">
        <ele>82.400001525879</ele>
        <time>2011-04-06T10:46:03.000Z</time>
      </trkpt>
      <trkpt lat="43.6272" lon="7.06715">
        <ele>79.199996948242</ele>
        <time>2011-04-06T10:46:07.000Z</time>
      </trkpt>
      <trkpt lat="43.62719" lon="7.06707">
        <ele>78.199996948242</ele>
        <time>2011-04-06T10:46:08.000Z</time>
      </trkpt>
      <trkpt lat="43.62713" lon="7.06688">
        <ele>75.400001525879</ele>
        <time>2011-04-06T10:46:12.000Z</time>
      </trkpt>
      <trkpt lat="43.62713" lon="7.06685">
        <ele>75</ele>
        <time>2011-04-06T10:46:13.000Z</time>
      </trkpt>
      <trkpt lat="43.62714" lon="7.06679">
        <ele>74.800003051758</ele>
        <time>2011-04-06T10:46:16.000Z</time>
      </trkpt>
      <trkpt lat="43.62715" lon="7.06677">
        <ele>74.800003051758</ele>
        <time>2011-04-06T10:46:21.000Z</time>
      </trkpt>
      <trkpt lat="43.62718" lon="7.06673">
        <ele>74.800003051758</ele>
        <time>2011-04-06T10:46:28.000Z</time>
      </trkpt>
      <trkpt lat="43.6272" lon="7.06665">
        <ele>74.599998474121</ele>
        <time>2011-04-06T10:46:35.000Z</time>
      </trkpt>
      <trkpt lat="43.62727" lon="7.06652">
        <ele>74.800003051758</ele>
        <time>2011-04-06T10:46:41.000Z</time>
      </trkpt>
      <trkpt lat="43.62733" lon="7.06647">
        <ele>75.400001525879</ele>
        <time>2011-04-06T10:46:45.000Z</time>
      </trkpt>
      <trkpt lat="43.62737" lon="7.06646">
        <ele>75.800003051758</ele>
        <time>2011-04-06T10:46:47.000Z</time>
      </trkpt>
      <trkpt lat="43.62749" lon="7.06644">
        <ele>77.199996948242</ele>
        <time>2011-04-06T10:46:52.000Z</time>
      </trkpt>
      <trkpt lat="43.62753" lon="7.06643">
        <ele>77.599998474121</ele>
        <time>2011-04-06T10:46:53.000Z</time>
      </trkpt>
      <trkpt lat="43.62763" lon="7.0664">
        <ele>78.599998474121</ele>
        <time>2011-04-06T10:46:56.000Z</time>
      </trkpt>
      <trkpt lat="43.62771" lon="7.06641">
        <ele>79.599998474121</ele>
        <time>2011-04-06T10:46:59.000Z</time>
      </trkpt>
      <trkpt lat="43.62774" lon="7.06642">
        <ele>80</ele>
        <time>2011-04-06T10:47:01.000Z</time>
      </trkpt>
      <trkpt lat="43.62781" lon="7.06636">
        <ele>80.199996948242</ele>
        <time>2011-04-06T10:47:06.000Z</time>
      </trkpt>
      <trkpt lat="43.62788" lon="7.0663">
        <ele>80</ele>
        <time>2011-04-06T10:47:10.000Z</time>
      </trkpt>
      <trkpt lat="43.62792" lon="7.06628">
        <ele>80</ele>
        <time>2011-04-06T10:47:12.000Z</time>
      </trkpt>
      <trkpt lat="43.628" lon="7.06615">
        <ele>78.800003051758</ele>
        <time>2011-04-06T10:47:18.000Z</time>
      </trkpt>
      <trkpt lat="43.62801" lon="7.06614">
        <ele>78.599998474121</ele>
        <time>2011-04-06T10:47:19.000Z</time>
      </trkpt>
      <trkpt lat="43.62802" lon="7.06613">
        <ele>78.599998474121</ele>
        <time>2011-04-06T10:47:20.000Z</time>
      </trkpt>
      <trkpt lat="43.62807" lon="7.06607">
        <ele>77.800003051758</ele>
        <time>2011-04-06T10:47:24.000Z</time>
      </trkpt>
      <trkpt lat="43.62816" lon="7.06599">
        <ele>76.800003051758</ele>
        <time>2011-04-06T10:47:29.000Z</time>
      </trkpt>
      <trkpt lat="43.62817" lon="7.06597">
        <ele>76.400001525879</ele>
        <time>2011-04-06T10:47:30.000Z</time>
      </trkpt>
      <trkpt lat="43.62826" lon="7.06591">
        <ele>75.599998474121</ele>
        <time>2011-04-06T10:47:35.000Z</time>
      </trkpt>
      <trkpt lat="43.62835" lon="7.0659">
        <ele>75.599998474121</ele>
        <time>2011-04-06T10:47:41.000Z</time>
      </trkpt>
      <trkpt lat="43.62837" lon="7.0659">
        <ele>75.800003051758</ele>
        <time>2011-04-06T10:47:42.000Z</time>
      </trkpt>
      <trkpt lat="43.62848" lon="7.06591">
        <ele>76.800003051758</ele>
        <time>2011-04-06T10:47:49.000Z</time>
      </trkpt>
      <trkpt lat="43.62853" lon="7.06591">
        <ele>77.400001525879</ele>
        <time>2011-04-06T10:47:52.000Z</time>
      </trkpt>
      <trkpt lat="43.62861" lon="7.06591">
        <ele>77.800003051758</ele>
        <time>2011-04-06T10:47:56.000Z</time>
      </trkpt>
      <trkpt lat="43.6287" lon="7.06594">
        <ele>79.400001525879</ele>
        <time>2011-04-06T10:48:01.000Z</time>
      </trkpt>
      <trkpt lat="43.62872" lon="7.06594">
        <ele>79.599998474121</ele>
        <time>2011-04-06T10:48:02.000Z</time>
      </trkpt>
      <trkpt lat="43.62875" lon="7.06595">
        <ele>80</ele>
        <time>2011-04-06T10:48:04.000Z</time>
      </trkpt>
      <trkpt lat="43.62879" lon="7.06598">
        <ele>81</ele>
        <time>2011-04-06T10:48:07.000Z</time>
      </trkpt>
      <trkpt lat="43.62886" lon="7.06603">
        <ele>82.599998474121</ele>
        <time>2011-04-06T10:48:13.000Z</time>
      </trkpt>
      <trkpt lat="43.62888" lon="7.06605">
        <ele>83.400001525879</ele>
        <time>2011-04-06T10:48:16.000Z</time>
      </trkpt>
      <trkpt lat="43.62891" lon="7.06607">
        <ele>83.800003051758</ele>
        <time>2011-04-06T10:48:18.000Z</time>
      </trkpt>
      <trkpt lat="43.62897" lon="7.0661">
        <ele>85.199996948242</ele>
        <time>2011-04-06T10:48:24.000Z</time>
      </trkpt>
      <trkpt lat="43.62895" lon="7.06607">
        <ele>84.400001525879</ele>
        <time>2011-04-06T10:48:35.000Z</time>
      </trkpt>
      <trkpt lat="43.62895" lon="7.06609">
        <ele>84.599998474121</ele>
        <time>2011-04-06T10:48:37.000Z</time>
      </trkpt>
      <trkpt lat="43.62898" lon="7.0661">
        <ele>85</ele>
        <time>2011-04-06T10:48:42.000Z</time>
      </trkpt>
      <trkpt lat="43.62899" lon="7.0661">
        <ele>85.199996948242</ele>
        <time>2011-04-06T10:48:44.000Z</time>
      </trkpt>
      <trkpt lat="43.62903" lon="7.06613">
        <ele>86.199996948242</ele>
        <time>2011-04-06T10:48:48.000Z</time>
      </trkpt>
      <trkpt lat="43.62914" lon="7.06615">
        <ele>87.400001525879</ele>
        <time>2011-04-06T10:48:55.000Z</time>
      </trkpt>
      <trkpt lat="43.62917" lon="7.06615">
        <ele>87.599998474121</ele>
        <time>2011-04-06T10:48:57.000Z</time>
      </trkpt>
      <trkpt lat="43.62927" lon="7.06618">
        <ele>88.800003051758</ele>
        <time>2011-04-06T10:49:03.000Z</time>
      </trkpt>
      <trkpt lat="43.62928" lon="7.06618">
        <ele>88.800003051758</ele>
        <time>2011-04-06T10:49:04.000Z</time>
      </trkpt>
      <trkpt lat="43.62935" lon="7.06618">
        <ele>89.400001525879</ele>
        <time>2011-04-06T10:49:07.000Z</time>
      </trkpt>
      <trkpt lat="43.62937" lon="7.06619">
        <ele>89.599998474121</ele>
        <time>2011-04-06T10:49:08.000Z</time>
      </trkpt>
      <trkpt lat="43.62947" lon="7.0662">
        <ele>90.400001525879</ele>
        <time>2011-04-06T10:49:13.000Z</time>
      </trkpt>
      <trkpt lat="43.62953" lon="7.0662">
        <ele>90.800003051758</ele>
        <time>2011-04-06T10:49:17.000Z</time>
      </trkpt>
      <trkpt lat="43.62955" lon="7.06621">
        <ele>90.800003051758</ele>
        <time>2011-04-06T10:49:18.000Z</time>
      </trkpt>
      <trkpt lat="43.6296" lon="7.06623">
        <ele>91.400001525879</ele>
        <time>2011-04-06T10:49:21.000Z</time>
      </trkpt>
      <trkpt lat="43.62965" lon="7.06625">
        <ele>91.800003051758</ele>
        <time>2011-04-06T10:49:24.000Z</time>
      </trkpt>
      <trkpt lat="43.62972" lon="7.06628">
        <ele>92.599998474121</ele>
        <time>2011-04-06T10:49:29.000Z</time>
      </trkpt>
      <trkpt lat="43.62974" lon="7.06628">
        <ele>92.599998474121</ele>
        <time>2011-04-06T10:49:30.000Z</time>
      </trkpt>
      <trkpt lat="43.62984" lon="7.06633">
        <ele>93.599998474121</ele>
        <time>2011-04-06T10:49:35.000Z</time>
      </trkpt>
      <trkpt lat="43.62989" lon="7.06635">
        <ele>94</ele>
        <time>2011-04-06T10:49:39.000Z</time>
      </trkpt>
      <trkpt lat="43.62991" lon="7.06637">
        <ele>94.199996948242</ele>
        <time>2011-04-06T10:49:41.000Z</time>
      </trkpt>
      <trkpt lat="43.62999" lon="7.06644">
        <ele>95</ele>
        <time>2011-04-06T10:49:48.000Z</time>
      </trkpt>
      <trkpt lat="43.63005" lon="7.06647">
        <ele>95.599998474121</ele>
        <time>2011-04-06T10:49:52.000Z</time>
      </trkpt>
      <trkpt lat="43.63009" lon="7.06649">
        <ele>95.800003051758</ele>
        <time>2011-04-06T10:49:54.000Z</time>
      </trkpt>
      <trkpt lat="43.63017" lon="7.06654">
        <ele>96.599998474121</ele>
        <time>2011-04-06T10:50:00.000Z</time>
      </trkpt>
      <trkpt lat="43.63022" lon="7.06656">
        <ele>97.199996948242</ele>
        <time>2011-04-06T10:50:03.000Z</time>
      </trkpt>
      <trkpt lat="43.6303" lon="7.06659">
        <ele>97.599998474121</ele>
        <time>2011-04-06T10:50:07.000Z</time>
      </trkpt>
      <trkpt lat="43.63038" lon="7.06663">
        <ele>98.400001525879</ele>
        <time>2011-04-06T10:50:14.000Z</time>
      </trkpt>
      <trkpt lat="43.63039" lon="7.06665">
        <ele>98.599998474121</ele>
        <time>2011-04-06T10:50:15.000Z</time>
      </trkpt>
      <trkpt lat="43.63045" lon="7.06669">
        <ele>99.599998474121</ele>
        <time>2011-04-06T10:50:20.000Z</time>
      </trkpt>
      <trkpt lat="43.63054" lon="7.06676">
        <ele>101</ele>
        <time>2011-04-06T10:50:27.000Z</time>
      </trkpt>
      <trkpt lat="43.63055" lon="7.06677">
        <ele>101.19999694824</ele>
        <time>2011-04-06T10:50:28.000Z</time>
      </trkpt>
      <trkpt lat="43.63056" lon="7.0668">
        <ele>101.80000305176</ele>
        <time>2011-04-06T10:50:32.000Z</time>
      </trkpt>
      <trkpt lat="43.6306" lon="7.06681">
        <ele>102.19999694824</ele>
        <time>2011-04-06T10:50:43.000Z</time>
      </trkpt>
      <trkpt lat="43.63062" lon="7.06682">
        <ele>102.19999694824</ele>
        <time>2011-04-06T10:50:47.000Z</time>
      </trkpt>
      <trkpt lat="43.63066" lon="7.06684">
        <ele>102.80000305176</ele>
        <time>2011-04-06T10:50:52.000Z</time>
      </trkpt>
      <trkpt lat="43.63066" lon="7.06684">
        <ele>102.80000305176</ele>
        <time>2011-04-06T10:50:53.000Z</time>
      </trkpt>
      <trkpt lat="43.63069" lon="7.06685">
        <ele>103</ele>
        <time>2011-04-06T10:50:58.000Z</time>
      </trkpt>
      <trkpt lat="43.63072" lon="7.06686">
        <ele>103.40000152588</ele>
        <time>2011-04-06T10:51:02.000Z</time>
      </trkpt>
      <trkpt lat="43.63073" lon="7.06686">
        <ele>103.40000152588</ele>
        <time>2011-04-06T10:51:03.000Z</time>
      </trkpt>
      <trkpt lat="43.63078" lon="7.06687">
        <ele>103.59999847412</ele>
        <time>2011-04-06T10:51:09.000Z</time>
      </trkpt>
      <trkpt lat="43.63079" lon="7.06687">
        <ele>103.59999847412</ele>
        <time>2011-04-06T10:51:10.000Z</time>
      </trkpt>
      <trkpt lat="43.63084" lon="7.06689">
        <ele>104.19999694824</ele>
        <time>2011-04-06T10:51:20.000Z</time>
      </trkpt>
      <trkpt lat="43.63087" lon="7.06693">
        <ele>104.80000305176</ele>
        <time>2011-04-06T10:51:32.000Z</time>
      </trkpt>
      <trkpt lat="43.63088" lon="7.06695">
        <ele>105.19999694824</ele>
        <time>2011-04-06T10:51:34.000Z</time>
      </trkpt>
      <trkpt lat="43.63096" lon="7.06704">
        <ele>106.59999847412</ele>
        <time>2011-04-06T10:51:42.000Z</time>
      </trkpt>
      <trkpt lat="43.63103" lon="7.0671">
        <ele>107.40000152588</ele>
        <time>2011-04-06T10:51:47.000Z</time>
      </trkpt>
      <trkpt lat="43.63105" lon="7.06713">
        <ele>108</ele>
        <time>2011-04-06T10:51:49.000Z</time>
      </trkpt>
      <trkpt lat="43.63112" lon="7.06723">
        <ele>109.40000152588</ele>
        <time>2011-04-06T10:51:56.000Z</time>
      </trkpt>
      <trkpt lat="43.63115" lon="7.06728">
        <ele>110</ele>
        <time>2011-04-06T10:52:00.000Z</time>
      </trkpt>
      <trkpt lat="43.63119" lon="7.06732">
        <ele>110.59999847412</ele>
        <time>2011-04-06T10:52:03.000Z</time>
      </trkpt>
      <trkpt lat="43.63124" lon="7.06737">
        <ele>111.19999694824</ele>
        <time>2011-04-06T10:52:07.000Z</time>
      </trkpt>
      <trkpt lat="43.63126" lon="7.06741">
        <ele>111.80000305176</ele>
        <time>2011-04-06T10:52:10.000Z</time>
      </trkpt>
      <trkpt lat="43.63129" lon="7.06745">
        <ele>112.19999694824</ele>
        <time>2011-04-06T10:52:13.000Z</time>
      </trkpt>
      <trkpt lat="43.63134" lon="7.06753">
        <ele>113.19999694824</ele>
        <time>2011-04-06T10:52:18.000Z</time>
      </trkpt>
      <trkpt lat="43.63141" lon="7.06766">
        <ele>114.19999694824</ele>
        <time>2011-04-06T10:52:26.000Z</time>
      </trkpt>
      <trkpt lat="43.63147" lon="7.06778">
        <ele>115</ele>
        <time>2011-04-06T10:52:33.000Z</time>
      </trkpt>
      <trkpt lat="43.63154" lon="7.06782">
        <ele>115.19999694824</ele>
        <time>2011-04-06T10:52:38.000Z</time>
      </trkpt>
      <trkpt lat="43.63155" lon="7.06784">
        <ele>115.40000152588</ele>
        <time>2011-04-06T10:52:39.000Z</time>
      </trkpt>
      <trkpt lat="43.63163" lon="7.06795">
        <ele>116.19999694824</ele>
        <time>2011-04-06T10:52:45.000Z</time>
      </trkpt>
      <trkpt lat="43.63167" lon="7.06799">
        <ele>116.40000152588</ele>
        <time>2011-04-06T10:52:47.000Z</time>
      </trkpt>
      <trkpt lat="43.63171" lon="7.06804">
        <ele>116.80000305176</ele>
        <time>2011-04-06T10:52:49.000Z</time>
      </trkpt>
      <trkpt lat="43.63181" lon="7.06817">
        <ele>117.59999847412</ele>
        <time>2011-04-06T10:52:53.000Z</time>
      </trkpt>
      <trkpt lat="43.63187" lon="7.06823">
        <ele>118</ele>
        <time>2011-04-06T10:52:55.000Z</time>
      </trkpt>
      <trkpt lat="43.63196" lon="7.06835">
        <ele>118.59999847412</ele>
        <time>2011-04-06T10:52:59.000Z</time>
      </trkpt>
      <trkpt lat="43.63199" lon="7.06844">
        <ele>118.40000152588</ele>
        <time>2011-04-06T10:53:03.000Z</time>
      </trkpt>
      <trkpt lat="43.63197" lon="7.06845">
        <ele>118.40000152588</ele>
        <time>2011-04-06T10:53:08.000Z</time>
      </trkpt>
      <trkpt lat="43.63194" lon="7.06843">
        <ele>118.40000152588</ele>
        <time>2011-04-06T10:53:13.000Z</time>
      </trkpt>
      <trkpt lat="43.63189" lon="7.06842">
        <ele>118.40000152588</ele>
        <time>2011-04-06T10:53:17.000Z</time>
      </trkpt>
      <trkpt lat="43.63186" lon="7.0684">
        <ele>118.59999847412</ele>
        <time>2011-04-06T10:53:19.000Z</time>
      </trkpt>
      <trkpt lat="43.63171" lon="7.06838">
        <ele>118.80000305176</ele>
        <time>2011-04-06T10:53:25.000Z</time>
      </trkpt>
      <trkpt lat="43.63168" lon="7.06837">
        <ele>118.80000305176</ele>
        <time>2011-04-06T10:53:26.000Z</time>
      </trkpt>
      <trkpt lat="43.63151" lon="7.06839">
        <ele>119</ele>
        <time>2011-04-06T10:53:33.000Z</time>
      </trkpt>
      <trkpt lat="43.63149" lon="7.06839">
        <ele>119</ele>
        <time>2011-04-06T10:53:34.000Z</time>
      </trkpt>
      <trkpt lat="43.63136" lon="7.06839">
        <ele>119.19999694824</ele>
        <time>2011-04-06T10:53:40.000Z</time>
      </trkpt>
      <trkpt lat="43.63129" lon="7.06837">
        <ele>119.19999694824</ele>
        <time>2011-04-06T10:53:43.000Z</time>
      </trkpt>
      <trkpt lat="43.63116" lon="7.06838">
        <ele>119.40000152588</ele>
        <time>2011-04-06T10:53:47.000Z</time>
      </trkpt>
      <trkpt lat="43.6311" lon="7.06838">
        <ele>119.40000152588</ele>
        <time>2011-04-06T10:53:49.000Z</time>
      </trkpt>
      <trkpt lat="43.63105" lon="7.06838">
        <ele>119.40000152588</ele>
        <time>2011-04-06T10:53:52.000Z</time>
      </trkpt>
      <trkpt lat="43.63091" lon="7.06838">
        <ele>119.59999847412</ele>
        <time>2011-04-06T10:53:58.000Z</time>
      </trkpt>
      <trkpt lat="43.6309" lon="7.06838">
        <ele>119.59999847412</ele>
        <time>2011-04-06T10:53:59.000Z</time>
      </trkpt>
      <trkpt lat="43.63077" lon="7.06835">
        <ele>119.59999847412</ele>
        <time>2011-04-06T10:54:04.000Z</time>
      </trkpt>
      <trkpt lat="43.63071" lon="7.06833">
        <ele>119.59999847412</ele>
        <time>2011-04-06T10:54:07.000Z</time>
      </trkpt>
      <trkpt lat="43.63066" lon="7.06831">
        <ele>119.40000152588</ele>
        <time>2011-04-06T10:54:11.000Z</time>
      </trkpt>
      <trkpt lat="43.63066" lon="7.0683">
        <ele>119.19999694824</ele>
        <time>2011-04-06T10:54:12.000Z</time>
      </trkpt>
      <trkpt lat="43.63065" lon="7.06829">
        <ele>119.19999694824</ele>
        <time>2011-04-06T10:54:13.000Z</time>
      </trkpt>
      <trkpt lat="43.63062" lon="7.0683">
        <ele>119</ele>
        <time>2011-04-06T10:54:18.000Z</time>
      </trkpt>
      <trkpt lat="43.63068" lon="7.06832">
        <ele>119.40000152588</ele>
        <time>2011-04-06T10:54:26.000Z</time>
      </trkpt>
      <trkpt lat="43.6307" lon="7.06832">
        <ele>119.40000152588</ele>
        <time>2011-04-06T10:54:27.000Z</time>
      </trkpt>
      <trkpt lat="43.63087" lon="7.06832">
        <ele>119.80000305176</ele>
        <time>2011-04-06T10:54:34.000Z</time>
      </trkpt>
      <trkpt lat="43.6309" lon="7.06832">
        <ele>119.59999847412</ele>
        <time>2011-04-06T10:54:35.000Z</time>
      </trkpt>
      <trkpt lat="43.63103" lon="7.06831">
        <ele>119.40000152588</ele>
        <time>2011-04-06T10:54:40.000Z</time>
      </trkpt>
      <trkpt lat="43.63109" lon="7.06832">
        <ele>119.40000152588</ele>
        <time>2011-04-06T10:54:42.000Z</time>
      </trkpt>
      <trkpt lat="43.63121" lon="7.06833">
        <ele>119.40000152588</ele>
        <time>2011-04-06T10:54:45.000Z</time>
      </trkpt>
      <trkpt lat="43.63129" lon="7.06834">
        <ele>119.40000152588</ele>
        <time>2011-04-06T10:54:47.000Z</time>
      </trkpt>
      <trkpt lat="43.63146" lon="7.06835">
        <ele>119.19999694824</ele>
        <time>2011-04-06T10:54:51.000Z</time>
      </trkpt>
      <trkpt lat="43.63149" lon="7.06835">
        <ele>119</ele>
        <time>2011-04-06T10:54:52.000Z</time>
      </trkpt>
      <trkpt lat="43.63162" lon="7.06835">
        <ele>119</ele>
        <time>2011-04-06T10:54:55.000Z</time>
      </trkpt>
      <trkpt lat="43.63167" lon="7.06835">
        <ele>118.80000305176</ele>
        <time>2011-04-06T10:54:56.000Z</time>
      </trkpt>
      <trkpt lat="43.63187" lon="7.06842">
        <ele>118.40000152588</ele>
        <time>2011-04-06T10:55:01.000Z</time>
      </trkpt>
      <trkpt lat="43.63197" lon="7.06844">
        <ele>118.40000152588</ele>
        <time>2011-04-06T10:55:03.000Z</time>
      </trkpt>
      <trkpt lat="43.63208" lon="7.06848">
        <ele>118.19999694824</ele>
        <time>2011-04-06T10:55:06.000Z</time>
      </trkpt>
      <trkpt lat="43.63215" lon="7.06856">
        <ele>118</ele>
        <time>2011-04-06T10:55:10.000Z</time>
      </trkpt>
      <trkpt lat="43.63216" lon="7.06859">
        <ele>118</ele>
        <time>2011-04-06T10:55:12.000Z</time>
      </trkpt>
      <trkpt lat="43.63218" lon="7.06861">
        <ele>118</ele>
        <time>2011-04-06T10:55:15.000Z</time>
      </trkpt>
      <trkpt lat="43.63223" lon="7.06867">
        <ele>118</ele>
        <time>2011-04-06T10:55:19.000Z</time>
      </trkpt>
      <trkpt lat="43.63224" lon="7.06869">
        <ele>118</ele>
        <time>2011-04-06T10:55:20.000Z</time>
      </trkpt>
      <trkpt lat="43.63232" lon="7.06884">
        <ele>117.80000305176</ele>
        <time>2011-04-06T10:55:27.000Z</time>
      </trkpt>
      <trkpt lat="43.63233" lon="7.06887">
        <ele>117.80000305176</ele>
        <time>2011-04-06T10:55:28.000Z</time>
      </trkpt>
      <trkpt lat="43.63242" lon="7.06906">
        <ele>117.80000305176</ele>
        <time>2011-04-06T10:55:35.000Z</time>
      </trkpt>
      <trkpt lat="43.63243" lon="7.06908">
        <ele>117.80000305176</ele>
        <time>2011-04-06T10:55:36.000Z</time>
      </trkpt>
      <trkpt lat="43.63254" lon="7.06917">
        <ele>118</ele>
        <time>2011-04-06T10:55:41.000Z</time>
      </trkpt>
      <trkpt lat="43.63261" lon="7.0692">
        <ele>118.19999694824</ele>
        <time>2011-04-06T10:55:44.000Z</time>
      </trkpt>
      <trkpt lat="43.63272" lon="7.06924">
        <ele>118.19999694824</ele>
        <time>2011-04-06T10:55:48.000Z</time>
      </trkpt>
      <trkpt lat="43.6328" lon="7.06927">
        <ele>118.40000152588</ele>
        <time>2011-04-06T10:55:50.000Z</time>
      </trkpt>
      <trkpt lat="43.63293" lon="7.06931">
        <ele>118.59999847412</ele>
        <time>2011-04-06T10:55:54.000Z</time>
      </trkpt>
      <trkpt lat="43.63298" lon="7.06932">
        <ele>118.80000305176</ele>
        <time>2011-04-06T10:55:56.000Z</time>
      </trkpt>
      <trkpt lat="43.63305" lon="7.0693">
        <ele>119</ele>
        <time>2011-04-06T10:55:59.000Z</time>
      </trkpt>
      <trkpt lat="43.63306" lon="7.06927">
        <ele>119.19999694824</ele>
        <time>2011-04-06T10:56:00.000Z</time>
      </trkpt>
      <trkpt lat="43.63308" lon="7.06916">
        <ele>120</ele>
        <time>2011-04-06T10:56:03.000Z</time>
      </trkpt>
      <trkpt lat="43.63308" lon="7.06911">
        <ele>120</ele>
        <time>2011-04-06T10:56:04.000Z</time>
      </trkpt>
      <trkpt lat="43.63308" lon="7.06906">
        <ele>120</ele>
        <time>2011-04-06T10:56:05.000Z</time>
      </trkpt>
      <trkpt lat="43.63309" lon="7.06891">
        <ele>120.19999694824</ele>
        <time>2011-04-06T10:56:08.000Z</time>
      </trkpt>
      <trkpt lat="43.63308" lon="7.06876">
        <ele>120.40000152588</ele>
        <time>2011-04-06T10:56:11.000Z</time>
      </trkpt>
      <trkpt lat="43.63308" lon="7.06865">
        <ele>120.40000152588</ele>
        <time>2011-04-06T10:56:13.000Z</time>
      </trkpt>
      <trkpt lat="43.6331" lon="7.0684">
        <ele>120.80000305176</ele>
        <time>2011-04-06T10:56:17.000Z</time>
      </trkpt>
      <trkpt lat="43.63312" lon="7.06813">
        <ele>120.40000152588</ele>
        <time>2011-04-06T10:56:21.000Z</time>
      </trkpt>
      <trkpt lat="43.63314" lon="7.06784">
        <ele>120.19999694824</ele>
        <time>2011-04-06T10:56:25.000Z</time>
      </trkpt>
      <trkpt lat="43.63315" lon="7.06769">
        <ele>119.80000305176</ele>
        <time>2011-04-06T10:56:27.000Z</time>
      </trkpt>
      <trkpt lat="43.63316" lon="7.06754">
        <ele>119.80000305176</ele>
        <time>2011-04-06T10:56:29.000Z</time>
      </trkpt>
      <trkpt lat="43.63319" lon="7.06724">
        <ele>119.19999694824</ele>
        <time>2011-04-06T10:56:33.000Z</time>
      </trkpt>
      <trkpt lat="43.63321" lon="7.06711">
        <ele>119</ele>
        <time>2011-04-06T10:56:35.000Z</time>
      </trkpt>
      <trkpt lat="43.63322" lon="7.06704">
        <ele>119.19999694824</ele>
        <time>2011-04-06T10:56:36.000Z</time>
      </trkpt>
      <trkpt lat="43.63324" lon="7.06698">
        <ele>119.19999694824</ele>
        <time>2011-04-06T10:56:37.000Z</time>
      </trkpt>
      <trkpt lat="43.63326" lon="7.06692">
        <ele>119.40000152588</ele>
        <time>2011-04-06T10:56:38.000Z</time>
      </trkpt>
      <trkpt lat="43.63336" lon="7.06678">
        <ele>120.19999694824</ele>
        <time>2011-04-06T10:56:41.000Z</time>
      </trkpt>
      <trkpt lat="43.63339" lon="7.06675">
        <ele>120.40000152588</ele>
        <time>2011-04-06T10:56:42.000Z</time>
      </trkpt>
      <trkpt lat="43.6335" lon="7.06664">
        <ele>120.80000305176</ele>
        <time>2011-04-06T10:56:45.000Z</time>
      </trkpt>
      <trkpt lat="43.63365" lon="7.06648">
        <ele>119.59999847412</ele>
        <time>2011-04-06T10:56:49.000Z</time>
      </trkpt>
      <trkpt lat="43.63373" lon="7.06638">
        <ele>118.80000305176</ele>
        <time>2011-04-06T10:56:51.000Z</time>
      </trkpt>
      <trkpt lat="43.63384" lon="7.06628">
        <ele>118.19999694824</ele>
        <time>2011-04-06T10:56:53.000Z</time>
      </trkpt>
      <trkpt lat="43.6339" lon="7.06622">
        <ele>117.80000305176</ele>
        <time>2011-04-06T10:56:54.000Z</time>
      </trkpt>
      <trkpt lat="43.63401" lon="7.06607">
        <ele>116.40000152588</ele>
        <time>2011-04-06T10:56:56.000Z</time>
      </trkpt>
      <trkpt lat="43.63406" lon="7.06598">
        <ele>115.40000152588</ele>
        <time>2011-04-06T10:56:57.000Z</time>
      </trkpt>
      <trkpt lat="43.63412" lon="7.06588">
        <ele>114.40000152588</ele>
        <time>2011-04-06T10:56:58.000Z</time>
      </trkpt>
      <trkpt lat="43.63418" lon="7.06578">
        <ele>113.80000305176</ele>
        <time>2011-04-06T10:56:59.000Z</time>
      </trkpt>
      <trkpt lat="43.63434" lon="7.06561">
        <ele>113.80000305176</ele>
        <time>2011-04-06T10:57:01.000Z</time>
      </trkpt>
      <trkpt lat="43.63454" lon="7.06545">
        <ele>114</ele>
        <time>2011-04-06T10:57:03.000Z</time>
      </trkpt>
      <trkpt lat="43.63464" lon="7.06539">
        <ele>114.19999694824</ele>
        <time>2011-04-06T10:57:04.000Z</time>
      </trkpt>
      <trkpt lat="43.63475" lon="7.06533">
        <ele>114.40000152588</ele>
        <time>2011-04-06T10:57:05.000Z</time>
      </trkpt>
      <trkpt lat="43.63485" lon="7.06527">
        <ele>114.40000152588</ele>
        <time>2011-04-06T10:57:06.000Z</time>
      </trkpt>
      <trkpt lat="43.63494" lon="7.0652">
        <ele>114.40000152588</ele>
        <time>2011-04-06T10:57:07.000Z</time>
      </trkpt>
      <trkpt lat="43.63502" lon="7.06511">
        <ele>114</ele>
        <time>2011-04-06T10:57:08.000Z</time>
      </trkpt>
      <trkpt lat="43.63508" lon="7.06501">
        <ele>113.80000305176</ele>
        <time>2011-04-06T10:57:09.000Z</time>
      </trkpt>
      <trkpt lat="43.63514" lon="7.06492">
        <ele>114.59999847412</ele>
        <time>2011-04-06T10:57:10.000Z</time>
      </trkpt>
      <trkpt lat="43.63518" lon="7.06484">
        <ele>115.40000152588</ele>
        <time>2011-04-06T10:57:11.000Z</time>
      </trkpt>
      <trkpt lat="43.63522" lon="7.06476">
        <ele>116.19999694824</ele>
        <time>2011-04-06T10:57:12.000Z</time>
      </trkpt>
      <trkpt lat="43.63533" lon="7.06459">
        <ele>117.80000305176</ele>
        <time>2011-04-06T10:57:15.000Z</time>
      </trkpt>
      <trkpt lat="43.63535" lon="7.06453">
        <ele>118.19999694824</ele>
        <time>2011-04-06T10:57:16.000Z</time>
      </trkpt>
      <trkpt lat="43.63543" lon="7.06434">
        <ele>119.40000152588</ele>
        <time>2011-04-06T10:57:20.000Z</time>
      </trkpt>
      <trkpt lat="43.63545" lon="7.06431">
        <ele>119.59999847412</ele>
        <time>2011-04-06T10:57:21.000Z</time>
      </trkpt>
      <trkpt lat="43.6355" lon="7.06419">
        <ele>120.19999694824</ele>
        <time>2011-04-06T10:57:24.000Z</time>
      </trkpt>
      <trkpt lat="43.63551" lon="7.06409">
        <ele>120.59999847412</ele>
        <time>2011-04-06T10:57:27.000Z</time>
      </trkpt>
      <trkpt lat="43.63551" lon="7.06405">
        <ele>120.80000305176</ele>
        <time>2011-04-06T10:57:28.000Z</time>
      </trkpt>
      <trkpt lat="43.63552" lon="7.06395">
        <ele>121.19999694824</ele>
        <time>2011-04-06T10:57:31.000Z</time>
      </trkpt>
      <trkpt lat="43.63553" lon="7.06392">
        <ele>121.40000152588</ele>
        <time>2011-04-06T10:57:33.000Z</time>
      </trkpt>
      <trkpt lat="43.63554" lon="7.06391">
        <ele>121.40000152588</ele>
        <time>2011-04-06T10:57:35.000Z</time>
      </trkpt>
      <trkpt lat="43.63554" lon="7.0639">
        <ele>121.40000152588</ele>
        <time>2011-04-06T10:57:36.000Z</time>
      </trkpt>
      <trkpt lat="43.63556" lon="7.06388">
        <ele>121.59999847412</ele>
        <time>2011-04-06T10:57:38.000Z</time>
      </trkpt>
      <trkpt lat="43.63555" lon="7.06386">
        <ele>121.59999847412</ele>
        <time>2011-04-06T10:57:43.000Z</time>
      </trkpt>
      <trkpt lat="43.63556" lon="7.06383">
        <ele>121.80000305176</ele>
        <time>2011-04-06T10:57:48.000Z</time>
      </trkpt>
      <trkpt lat="43.63559" lon="7.06383">
        <ele>121.80000305176</ele>
        <time>2011-04-06T10:57:55.000Z</time>
      </trkpt>
      <trkpt lat="43.63565" lon="7.06375">
        <ele>122.40000152588</ele>
        <time>2011-04-06T10:58:01.000Z</time>
      </trkpt>
      <trkpt lat="43.63569" lon="7.0637">
        <ele>122.59999847412</ele>
        <time>2011-04-06T10:58:04.000Z</time>
      </trkpt>
      <trkpt lat="43.63571" lon="7.06367">
        <ele>122.80000305176</ele>
        <time>2011-04-06T10:58:06.000Z</time>
      </trkpt>
      <trkpt lat="43.63572" lon="7.06365">
        <ele>122.80000305176</ele>
        <time>2011-04-06T10:58:07.000Z</time>
      </trkpt>
      <trkpt lat="43.63575" lon="7.0636">
        <ele>123</ele>
        <time>2011-04-06T10:58:10.000Z</time>
      </trkpt>
      <trkpt lat="43.63576" lon="7.06356">
        <ele>123.19999694824</ele>
        <time>2011-04-06T10:58:12.000Z</time>
      </trkpt>
      <trkpt lat="43.63582" lon="7.0635">
        <ele>123.40000152588</ele>
        <time>2011-04-06T10:58:17.000Z</time>
      </trkpt>
      <trkpt lat="43.63582" lon="7.06348">
        <ele>123.59999847412</ele>
        <time>2011-04-06T10:58:18.000Z</time>
      </trkpt>
      <trkpt lat="43.63583" lon="7.06347">
        <ele>123.59999847412</ele>
        <time>2011-04-06T10:58:19.000Z</time>
      </trkpt>
      <trkpt lat="43.63584" lon="7.06345">
        <ele>123.59999847412</ele>
        <time>2011-04-06T10:58:20.000Z</time>
      </trkpt>
      <trkpt lat="43.63585" lon="7.0634">
        <ele>124</ele>
        <time>2011-04-06T10:58:23.000Z</time>
      </trkpt>
      <trkpt lat="43.63588" lon="7.06328">
        <ele>124.59999847412</ele>
        <time>2011-04-06T10:58:29.000Z</time>
      </trkpt>
      <trkpt lat="43.63589" lon="7.06326">
        <ele>124.80000305176</ele>
        <time>2011-04-06T10:58:30.000Z</time>
      </trkpt>
      <trkpt lat="43.63592" lon="7.06322">
        <ele>125.40000152588</ele>
        <time>2011-04-06T10:58:33.000Z</time>
      </trkpt>
      <trkpt lat="43.63596" lon="7.06315">
        <ele>126</ele>
        <time>2011-04-06T10:58:37.000Z</time>
      </trkpt>
      <trkpt lat="43.63606" lon="7.06304">
        <ele>127.59999847412</ele>
        <time>2011-04-06T10:58:45.000Z</time>
      </trkpt>
      <trkpt lat="43.63614" lon="7.06297">
        <ele>128.80000305176</ele>
        <time>2011-04-06T10:58:52.000Z</time>
      </trkpt>
      <trkpt lat="43.63621" lon="7.06291">
        <ele>129.60000610352</ele>
        <time>2011-04-06T10:58:59.000Z</time>
      </trkpt>
      <trkpt lat="43.63621" lon="7.0629">
        <ele>129.80000305176</ele>
        <time>2011-04-06T10:59:00.000Z</time>
      </trkpt>
      <trkpt lat="43.63621" lon="7.06289">
        <ele>129.80000305176</ele>
        <time>2011-04-06T10:59:03.000Z</time>
      </trkpt>
      <trkpt lat="43.63626" lon="7.06284">
        <ele>130.60000610352</ele>
        <time>2011-04-06T10:59:10.000Z</time>
      </trkpt>
      <trkpt lat="43.63629" lon="7.06282">
        <ele>130.80000305176</ele>
        <time>2011-04-06T10:59:13.000Z</time>
      </trkpt>
      <trkpt lat="43.6363" lon="7.06277">
        <ele>131.19999694824</ele>
        <time>2011-04-06T10:59:17.000Z</time>
      </trkpt>
      <trkpt lat="43.63631" lon="7.06274">
        <ele>131.39999389648</ele>
        <time>2011-04-06T10:59:23.000Z</time>
      </trkpt>
      <trkpt lat="43.63632" lon="7.0627">
        <ele>131.60000610352</ele>
        <time>2011-04-06T10:59:26.000Z</time>
      </trkpt>
      <trkpt lat="43.63633" lon="7.06263">
        <ele>132</ele>
        <time>2011-04-06T10:59:29.000Z</time>
      </trkpt>
      <trkpt lat="43.63636" lon="7.06251">
        <ele>132.60000610352</ele>
        <time>2011-04-06T10:59:35.000Z</time>
      </trkpt>
      <trkpt lat="43.63637" lon="7.06244">
        <ele>133</ele>
        <time>2011-04-06T10:59:39.000Z</time>
      </trkpt>
      <trkpt lat="43.6364" lon="7.06235">
        <ele>133.80000305176</ele>
        <time>2011-04-06T10:59:43.000Z</time>
      </trkpt>
      <trkpt lat="43.63643" lon="7.06222">
        <ele>134.60000610352</ele>
        <time>2011-04-06T10:59:49.000Z</time>
      </trkpt>
      <trkpt lat="43.63644" lon="7.0622">
        <ele>134.80000305176</ele>
        <time>2011-04-06T10:59:50.000Z</time>
      </trkpt>
      <trkpt lat="43.63648" lon="7.06208">
        <ele>135.60000610352</ele>
        <time>2011-04-06T10:59:56.000Z</time>
      </trkpt>
      <trkpt lat="43.63649" lon="7.06205">
        <ele>136</ele>
        <time>2011-04-06T10:59:58.000Z</time>
      </trkpt>
      <trkpt lat="43.63651" lon="7.062">
        <ele>136.39999389648</ele>
        <time>2011-04-06T11:00:01.000Z</time>
      </trkpt>
      <trkpt lat="43.63652" lon="7.06198">
        <ele>136.39999389648</ele>
        <time>2011-04-06T11:00:02.000Z</time>
      </trkpt>
      <trkpt lat="43.63653" lon="7.06192">
        <ele>136.80000305176</ele>
        <time>2011-04-06T11:00:05.000Z</time>
      </trkpt>
      <trkpt lat="43.63655" lon="7.06188">
        <ele>137.19999694824</ele>
        <time>2011-04-06T11:00:07.000Z</time>
      </trkpt>
      <trkpt lat="43.63662" lon="7.06175">
        <ele>138.19999694824</ele>
        <time>2011-04-06T11:00:14.000Z</time>
      </trkpt>
      <trkpt lat="43.63666" lon="7.06161">
        <ele>139</ele>
        <time>2011-04-06T11:00:20.000Z</time>
      </trkpt>
      <trkpt lat="43.63667" lon="7.0615">
        <ele>139.60000610352</ele>
        <time>2011-04-06T11:00:26.000Z</time>
      </trkpt>
      <trkpt lat="43.63667" lon="7.06147">
        <ele>139.80000305176</ele>
        <time>2011-04-06T11:00:27.000Z</time>
      </trkpt>
      <trkpt lat="43.6367" lon="7.06132">
        <ele>140.80000305176</ele>
        <time>2011-04-06T11:00:34.000Z</time>
      </trkpt>
      <trkpt lat="43.63674" lon="7.06127">
        <ele>141.60000610352</ele>
        <time>2011-04-06T11:00:39.000Z</time>
      </trkpt>
      <trkpt lat="43.63674" lon="7.06124">
        <ele>141.80000305176</ele>
        <time>2011-04-06T11:00:40.000Z</time>
      </trkpt>
      <trkpt lat="43.63675" lon="7.06112">
        <ele>142.39999389648</ele>
        <time>2011-04-06T11:00:45.000Z</time>
      </trkpt>
      <trkpt lat="43.63677" lon="7.06101">
        <ele>143.19999694824</ele>
        <time>2011-04-06T11:00:50.000Z</time>
      </trkpt>
      <trkpt lat="43.63678" lon="7.06097">
        <ele>143.60000610352</ele>
        <time>2011-04-06T11:00:53.000Z</time>
      </trkpt>
      <trkpt lat="43.63678" lon="7.06094">
        <ele>143.80000305176</ele>
        <time>2011-04-06T11:00:54.000Z</time>
      </trkpt>
      <trkpt lat="43.63678" lon="7.06092">
        <ele>143.80000305176</ele>
        <time>2011-04-06T11:00:55.000Z</time>
      </trkpt>
      <trkpt lat="43.63682" lon="7.06079">
        <ele>145.19999694824</ele>
        <time>2011-04-06T11:01:00.000Z</time>
      </trkpt>
      <trkpt lat="43.63682" lon="7.06077">
        <ele>145.39999389648</ele>
        <time>2011-04-06T11:01:01.000Z</time>
      </trkpt>
      <trkpt lat="43.63687" lon="7.06063">
        <ele>147.19999694824</ele>
        <time>2011-04-06T11:01:07.000Z</time>
      </trkpt>
      <trkpt lat="43.63691" lon="7.06054">
        <ele>148.39999389648</ele>
        <time>2011-04-06T11:01:13.000Z</time>
      </trkpt>
      <trkpt lat="43.63693" lon="7.06051">
        <ele>148.80000305176</ele>
        <time>2011-04-06T11:01:15.000Z</time>
      </trkpt>
      <trkpt lat="43.63699" lon="7.06037">
        <ele>150.60000610352</ele>
        <time>2011-04-06T11:01:23.000Z</time>
      </trkpt>
      <trkpt lat="43.63701" lon="7.06032">
        <ele>151</ele>
        <time>2011-04-06T11:01:26.000Z</time>
      </trkpt>
      <trkpt lat="43.63701" lon="7.06031">
        <ele>151.19999694824</ele>
        <time>2011-04-06T11:01:27.000Z</time>
      </trkpt>
      <trkpt lat="43.63702" lon="7.06028">
        <ele>151.39999389648</ele>
        <time>2011-04-06T11:01:29.000Z</time>
      </trkpt>
      <trkpt lat="43.63707" lon="7.06021">
        <ele>152.39999389648</ele>
        <time>2011-04-06T11:01:34.000Z</time>
      </trkpt>
      <trkpt lat="43.63711" lon="7.06014">
        <ele>153.19999694824</ele>
        <time>2011-04-06T11:01:39.000Z</time>
      </trkpt>
      <trkpt lat="43.63712" lon="7.06012">
        <ele>153.19999694824</ele>
        <time>2011-04-06T11:01:40.000Z</time>
      </trkpt>
      <trkpt lat="43.63717" lon="7.06001">
        <ele>154.19999694824</ele>
        <time>2011-04-06T11:01:47.000Z</time>
      </trkpt>
      <trkpt lat="43.63724" lon="7.05993">
        <ele>155.19999694824</ele>
        <time>2011-04-06T11:01:53.000Z</time>
      </trkpt>
      <trkpt lat="43.63727" lon="7.0599">
        <ele>155.60000610352</ele>
        <time>2011-04-06T11:01:55.000Z</time>
      </trkpt>
      <trkpt lat="43.63733" lon="7.05982">
        <ele>156.60000610352</ele>
        <time>2011-04-06T11:02:01.000Z</time>
      </trkpt>
      <trkpt lat="43.63734" lon="7.05981">
        <ele>156.80000305176</ele>
        <time>2011-04-06T11:02:02.000Z</time>
      </trkpt>
      <trkpt lat="43.63738" lon="7.05976">
        <ele>157.19999694824</ele>
        <time>2011-04-06T11:02:06.000Z</time>
      </trkpt>
      <trkpt lat="43.63739" lon="7.05974">
        <ele>157.39999389648</ele>
        <time>2011-04-06T11:02:08.000Z</time>
      </trkpt>
      <trkpt lat="43.63744" lon="7.05968">
        <ele>158.19999694824</ele>
        <time>2011-04-06T11:02:13.000Z</time>
      </trkpt>
      <trkpt lat="43.63749" lon="7.05961">
        <ele>158.80000305176</ele>
        <time>2011-04-06T11:02:18.000Z</time>
      </trkpt>
      <trkpt lat="43.63751" lon="7.05959">
        <ele>159</ele>
        <time>2011-04-06T11:02:19.000Z</time>
      </trkpt>
      <trkpt lat="43.63755" lon="7.05952">
        <ele>159.80000305176</ele>
        <time>2011-04-06T11:02:23.000Z</time>
      </trkpt>
      <trkpt lat="43.63757" lon="7.05951">
        <ele>160</ele>
        <time>2011-04-06T11:02:25.000Z</time>
      </trkpt>
      <trkpt lat="43.63762" lon="7.05947">
        <ele>160.80000305176</ele>
        <time>2011-04-06T11:02:30.000Z</time>
      </trkpt>
      <trkpt lat="43.63764" lon="7.05946">
        <ele>161.19999694824</ele>
        <time>2011-04-06T11:02:31.000Z</time>
      </trkpt>
      <trkpt lat="43.63766" lon="7.05945">
        <ele>161.39999389648</ele>
        <time>2011-04-06T11:02:32.000Z</time>
      </trkpt>
      <trkpt lat="43.63771" lon="7.05941">
        <ele>162</ele>
        <time>2011-04-06T11:02:37.000Z</time>
      </trkpt>
      <trkpt lat="43.63776" lon="7.0593">
        <ele>162.80000305176</ele>
        <time>2011-04-06T11:02:43.000Z</time>
      </trkpt>
      <trkpt lat="43.63778" lon="7.05927">
        <ele>163.19999694824</ele>
        <time>2011-04-06T11:02:45.000Z</time>
      </trkpt>
      <trkpt lat="43.63783" lon="7.05923">
        <ele>163.60000610352</ele>
        <time>2011-04-06T11:02:50.000Z</time>
      </trkpt>
      <trkpt lat="43.63793" lon="7.05915">
        <ele>164.60000610352</ele>
        <time>2011-04-06T11:02:56.000Z</time>
      </trkpt>
      <trkpt lat="43.63795" lon="7.05913">
        <ele>164.60000610352</ele>
        <time>2011-04-06T11:02:57.000Z</time>
      </trkpt>
      <trkpt lat="43.63801" lon="7.05909">
        <ele>165.19999694824</ele>
        <time>2011-04-06T11:03:01.000Z</time>
      </trkpt>
      <trkpt lat="43.63802" lon="7.05909">
        <ele>165.19999694824</ele>
        <time>2011-04-06T11:03:02.000Z</time>
      </trkpt>
      <trkpt lat="43.63807" lon="7.05906">
        <ele>165.60000610352</ele>
        <time>2011-04-06T11:03:06.000Z</time>
      </trkpt>
      <trkpt lat="43.63808" lon="7.05904">
        <ele>165.60000610352</ele>
        <time>2011-04-06T11:03:07.000Z</time>
      </trkpt>
      <trkpt lat="43.63811" lon="7.05902">
        <ele>165.60000610352</ele>
        <time>2011-04-06T11:03:10.000Z</time>
      </trkpt>
      <trkpt lat="43.63816" lon="7.05897">
        <ele>165.80000305176</ele>
        <time>2011-04-06T11:03:14.000Z</time>
      </trkpt>
      <trkpt lat="43.63817" lon="7.05896">
        <ele>165.80000305176</ele>
        <time>2011-04-06T11:03:15.000Z</time>
      </trkpt>
      <trkpt lat="43.63818" lon="7.05894">
        <ele>165.80000305176</ele>
        <time>2011-04-06T11:03:17.000Z</time>
      </trkpt>
      <trkpt lat="43.63822" lon="7.05891">
        <ele>165.80000305176</ele>
        <time>2011-04-06T11:03:20.000Z</time>
      </trkpt>
      <trkpt lat="43.63823" lon="7.0589">
        <ele>165.80000305176</ele>
        <time>2011-04-06T11:03:21.000Z</time>
      </trkpt>
      <trkpt lat="43.63826" lon="7.05887">
        <ele>165.80000305176</ele>
        <time>2011-04-06T11:03:23.000Z</time>
      </trkpt>
      <trkpt lat="43.63832" lon="7.05881">
        <ele>165.80000305176</ele>
        <time>2011-04-06T11:03:27.000Z</time>
      </trkpt>
      <trkpt lat="43.6384" lon="7.05871">
        <ele>166</ele>
        <time>2011-04-06T11:03:33.000Z</time>
      </trkpt>
      <trkpt lat="43.63841" lon="7.0587">
        <ele>166</ele>
        <time>2011-04-06T11:03:34.000Z</time>
      </trkpt>
      <trkpt lat="43.63843" lon="7.05868">
        <ele>166</ele>
        <time>2011-04-06T11:03:35.000Z</time>
      </trkpt>
      <trkpt lat="43.63848" lon="7.05861">
        <ele>166.19999694824</ele>
        <time>2011-04-06T11:03:39.000Z</time>
      </trkpt>
      <trkpt lat="43.6385" lon="7.05859">
        <ele>166.39999389648</ele>
        <time>2011-04-06T11:03:41.000Z</time>
      </trkpt>
      <trkpt lat="43.63851" lon="7.05857">
        <ele>166.39999389648</ele>
        <time>2011-04-06T11:03:42.000Z</time>
      </trkpt>
      <trkpt lat="43.63854" lon="7.0585">
        <ele>166.19999694824</ele>
        <time>2011-04-06T11:03:46.000Z</time>
      </trkpt>
      <trkpt lat="43.63856" lon="7.05846">
        <ele>166.19999694824</ele>
        <time>2011-04-06T11:03:48.000Z</time>
      </trkpt>
      <trkpt lat="43.63858" lon="7.05843">
        <ele>166.19999694824</ele>
        <time>2011-04-06T11:03:50.000Z</time>
      </trkpt>
      <trkpt lat="43.63861" lon="7.05838">
        <ele>166.19999694824</ele>
        <time>2011-04-06T11:03:53.000Z</time>
      </trkpt>
      <trkpt lat="43.63864" lon="7.05833">
        <ele>166.19999694824</ele>
        <time>2011-04-06T11:03:56.000Z</time>
      </trkpt>
      <trkpt lat="43.63865" lon="7.05828">
        <ele>166.60000610352</ele>
        <time>2011-04-06T11:03:58.000Z</time>
      </trkpt>
      <trkpt lat="43.63865" lon="7.05826">
        <ele>166.60000610352</ele>
        <time>2011-04-06T11:03:59.000Z</time>
      </trkpt>
      <trkpt lat="43.63865" lon="7.05824">
        <ele>166.80000305176</ele>
        <time>2011-04-06T11:04:00.000Z</time>
      </trkpt>
      <trkpt lat="43.63867" lon="7.05818">
        <ele>167.19999694824</ele>
        <time>2011-04-06T11:04:03.000Z</time>
      </trkpt>
      <trkpt lat="43.6387" lon="7.05807">
        <ele>168</ele>
        <time>2011-04-06T11:04:08.000Z</time>
      </trkpt>
      <trkpt lat="43.63871" lon="7.05805">
        <ele>168</ele>
        <time>2011-04-06T11:04:09.000Z</time>
      </trkpt>
      <trkpt lat="43.6387" lon="7.05803">
        <ele>168</ele>
        <time>2011-04-06T11:04:10.000Z</time>
      </trkpt>
      <trkpt lat="43.63871" lon="7.05793">
        <ele>168.60000610352</ele>
        <time>2011-04-06T11:04:14.000Z</time>
      </trkpt>
      <trkpt lat="43.63874" lon="7.05786">
        <ele>169</ele>
        <time>2011-04-06T11:04:20.000Z</time>
      </trkpt>
      <trkpt lat="43.63879" lon="7.05781">
        <ele>169.39999389648</ele>
        <time>2011-04-06T11:04:25.000Z</time>
      </trkpt>
      <trkpt lat="43.63879" lon="7.05779">
        <ele>169.60000610352</ele>
        <time>2011-04-06T11:04:26.000Z</time>
      </trkpt>
      <trkpt lat="43.63879" lon="7.05765">
        <ele>170</ele>
        <time>2011-04-06T11:04:32.000Z</time>
      </trkpt>
      <trkpt lat="43.6388" lon="7.05763">
        <ele>170.19999694824</ele>
        <time>2011-04-06T11:04:33.000Z</time>
      </trkpt>
      <trkpt lat="43.6388" lon="7.05757">
        <ele>170.39999389648</ele>
        <time>2011-04-06T11:04:35.000Z</time>
      </trkpt>
      <trkpt lat="43.63882" lon="7.05748">
        <ele>170.80000305176</ele>
        <time>2011-04-06T11:04:39.000Z</time>
      </trkpt>
      <trkpt lat="43.63884" lon="7.05735">
        <ele>172.19999694824</ele>
        <time>2011-04-06T11:04:47.000Z</time>
      </trkpt>
      <trkpt lat="43.63885" lon="7.05731">
        <ele>172.39999389648</ele>
        <time>2011-04-06T11:04:49.000Z</time>
      </trkpt>
      <trkpt lat="43.63886" lon="7.05729">
        <ele>172.60000610352</ele>
        <time>2011-04-06T11:04:50.000Z</time>
      </trkpt>
      <trkpt lat="43.63888" lon="7.05723">
        <ele>173.19999694824</ele>
        <time>2011-04-06T11:04:53.000Z</time>
      </trkpt>
      <trkpt lat="43.63889" lon="7.05711">
        <ele>174.39999389648</ele>
        <time>2011-04-06T11:05:00.000Z</time>
      </trkpt>
      <trkpt lat="43.63889" lon="7.05707">
        <ele>174.60000610352</ele>
        <time>2011-04-06T11:05:02.000Z</time>
      </trkpt>
      <trkpt lat="43.63893" lon="7.05698">
        <ele>175.60000610352</ele>
        <time>2011-04-06T11:05:08.000Z</time>
      </trkpt>
      <trkpt lat="43.63896" lon="7.05687">
        <ele>176.39999389648</ele>
        <time>2011-04-06T11:05:13.000Z</time>
      </trkpt>
      <trkpt lat="43.63898" lon="7.05685">
        <ele>176.60000610352</ele>
        <time>2011-04-06T11:05:14.000Z</time>
      </trkpt>
      <trkpt lat="43.63904" lon="7.05679">
        <ele>177</ele>
        <time>2011-04-06T11:05:18.000Z</time>
      </trkpt>
      <trkpt lat="43.6391" lon="7.05677">
        <ele>177.19999694824</ele>
        <time>2011-04-06T11:05:21.000Z</time>
      </trkpt>
      <trkpt lat="43.63915" lon="7.05677">
        <ele>177.19999694824</ele>
        <time>2011-04-06T11:05:24.000Z</time>
      </trkpt>
      <trkpt lat="43.6392" lon="7.05675">
        <ele>177.60000610352</ele>
        <time>2011-04-06T11:05:27.000Z</time>
      </trkpt>
      <trkpt lat="43.63931" lon="7.05673">
        <ele>178.80000305176</ele>
        <time>2011-04-06T11:05:33.000Z</time>
      </trkpt>
      <trkpt lat="43.63933" lon="7.05673">
        <ele>179</ele>
        <time>2011-04-06T11:05:34.000Z</time>
      </trkpt>
      <trkpt lat="43.63939" lon="7.05671">
        <ele>179.80000305176</ele>
        <time>2011-04-06T11:05:37.000Z</time>
      </trkpt>
      <trkpt lat="43.63943" lon="7.05669">
        <ele>180.19999694824</ele>
        <time>2011-04-06T11:05:39.000Z</time>
      </trkpt>
      <trkpt lat="43.63947" lon="7.0566">
        <ele>181.19999694824</ele>
        <time>2011-04-06T11:05:43.000Z</time>
      </trkpt>
      <trkpt lat="43.63948" lon="7.05655">
        <ele>181.39999389648</ele>
        <time>2011-04-06T11:05:45.000Z</time>
      </trkpt>
      <trkpt lat="43.63948" lon="7.05641">
        <ele>182</ele>
        <time>2011-04-06T11:05:50.000Z</time>
      </trkpt>
      <trkpt lat="43.63948" lon="7.05634">
        <ele>182.39999389648</ele>
        <time>2011-04-06T11:05:52.000Z</time>
      </trkpt>
      <trkpt lat="43.63946" lon="7.05617">
        <ele>182.80000305176</ele>
        <time>2011-04-06T11:05:57.000Z</time>
      </trkpt>
      <trkpt lat="43.63945" lon="7.0561">
        <ele>183.19999694824</ele>
        <time>2011-04-06T11:05:59.000Z</time>
      </trkpt>
      <trkpt lat="43.63945" lon="7.056">
        <ele>183.60000610352</ele>
        <time>2011-04-06T11:06:02.000Z</time>
      </trkpt>
      <trkpt lat="43.63946" lon="7.05583">
        <ele>184.39999389648</ele>
        <time>2011-04-06T11:06:07.000Z</time>
      </trkpt>
      <trkpt lat="43.63946" lon="7.05573">
        <ele>184.39999389648</ele>
        <time>2011-04-06T11:06:10.000Z</time>
      </trkpt>
      <trkpt lat="43.63946" lon="7.05557">
        <ele>184.60000610352</ele>
        <time>2011-04-06T11:06:15.000Z</time>
      </trkpt>
      <trkpt lat="43.63946" lon="7.0555">
        <ele>184.60000610352</ele>
        <time>2011-04-06T11:06:17.000Z</time>
      </trkpt>
      <trkpt lat="43.63947" lon="7.05535">
        <ele>184.80000305176</ele>
        <time>2011-04-06T11:06:22.000Z</time>
      </trkpt>
      <trkpt lat="43.63947" lon="7.05531">
        <ele>185</ele>
        <time>2011-04-06T11:06:23.000Z</time>
      </trkpt>
      <trkpt lat="43.63949" lon="7.05516">
        <ele>185.19999694824</ele>
        <time>2011-04-06T11:06:26.000Z</time>
      </trkpt>
      <trkpt lat="43.63949" lon="7.05502">
        <ele>185.39999389648</ele>
        <time>2011-04-06T11:06:29.000Z</time>
      </trkpt>
      <trkpt lat="43.63953" lon="7.05489">
        <ele>185.60000610352</ele>
        <time>2011-04-06T11:06:32.000Z</time>
      </trkpt>
      <trkpt lat="43.63957" lon="7.05479">
        <ele>185.60000610352</ele>
        <time>2011-04-06T11:06:35.000Z</time>
      </trkpt>
      <trkpt lat="43.63958" lon="7.05471">
        <ele>185.60000610352</ele>
        <time>2011-04-06T11:06:37.000Z</time>
      </trkpt>
      <trkpt lat="43.63959" lon="7.05452">
        <ele>185.39999389648</ele>
        <time>2011-04-06T11:06:41.000Z</time>
      </trkpt>
      <trkpt lat="43.63959" lon="7.05443">
        <ele>185.19999694824</ele>
        <time>2011-04-06T11:06:43.000Z</time>
      </trkpt>
      <trkpt lat="43.63959" lon="7.05425">
        <ele>184.80000305176</ele>
        <time>2011-04-06T11:06:47.000Z</time>
      </trkpt>
      <trkpt lat="43.6396" lon="7.05412">
        <ele>184.60000610352</ele>
        <time>2011-04-06T11:06:50.000Z</time>
      </trkpt>
      <trkpt lat="43.63962" lon="7.05399">
        <ele>184.39999389648</ele>
        <time>2011-04-06T11:06:53.000Z</time>
      </trkpt>
      <trkpt lat="43.63963" lon="7.05388">
        <ele>184.39999389648</ele>
        <time>2011-04-06T11:06:55.000Z</time>
      </trkpt>
      <trkpt lat="43.63965" lon="7.05373">
        <ele>184.39999389648</ele>
        <time>2011-04-06T11:06:58.000Z</time>
      </trkpt>
      <trkpt lat="43.63969" lon="7.05352">
        <ele>184.60000610352</ele>
        <time>2011-04-06T11:07:02.000Z</time>
      </trkpt>
      <trkpt lat="43.6397" lon="7.05347">
        <ele>184.80000305176</ele>
        <time>2011-04-06T11:07:03.000Z</time>
      </trkpt>
      <trkpt lat="43.6398" lon="7.05322">
        <ele>185.60000610352</ele>
        <time>2011-04-06T11:07:08.000Z</time>
      </trkpt>
      <trkpt lat="43.63982" lon="7.05318">
        <ele>185.80000305176</ele>
        <time>2011-04-06T11:07:09.000Z</time>
      </trkpt>
      <trkpt lat="43.63985" lon="7.05313">
        <ele>185.80000305176</ele>
        <time>2011-04-06T11:07:10.000Z</time>
      </trkpt>
      <trkpt lat="43.63991" lon="7.05298">
        <ele>186</ele>
        <time>2011-04-06T11:07:13.000Z</time>
      </trkpt>
      <trkpt lat="43.63997" lon="7.0529">
        <ele>186.19999694824</ele>
        <time>2011-04-06T11:07:15.000Z</time>
      </trkpt>
      <trkpt lat="43.64004" lon="7.05277">
        <ele>186.39999389648</ele>
        <time>2011-04-06T11:07:18.000Z</time>
      </trkpt>
      <trkpt lat="43.64012" lon="7.05256">
        <ele>186.19999694824</ele>
        <time>2011-04-06T11:07:22.000Z</time>
      </trkpt>
      <trkpt lat="43.64014" lon="7.0525">
        <ele>186.19999694824</ele>
        <time>2011-04-06T11:07:23.000Z</time>
      </trkpt>
      <trkpt lat="43.64016" lon="7.05226">
        <ele>185.39999389648</ele>
        <time>2011-04-06T11:07:26.000Z</time>
      </trkpt>
      <trkpt lat="43.64017" lon="7.0522">
        <ele>185.19999694824</ele>
        <time>2011-04-06T11:07:27.000Z</time>
      </trkpt>
      <trkpt lat="43.64019" lon="7.05209">
        <ele>185.19999694824</ele>
        <time>2011-04-06T11:07:29.000Z</time>
      </trkpt>
      <trkpt lat="43.64021" lon="7.05199">
        <ele>185</ele>
        <time>2011-04-06T11:07:31.000Z</time>
      </trkpt>
      <trkpt lat="43.64024" lon="7.05192">
        <ele>185.19999694824</ele>
        <time>2011-04-06T11:07:33.000Z</time>
      </trkpt>
      <trkpt lat="43.64026" lon="7.05189">
        <ele>185.39999389648</ele>
        <time>2011-04-06T11:07:35.000Z</time>
      </trkpt>
      <trkpt lat="43.64029" lon="7.05187">
        <ele>185.60000610352</ele>
        <time>2011-04-06T11:07:41.000Z</time>
      </trkpt>
      <trkpt lat="43.6403" lon="7.05185">
        <ele>185.80000305176</ele>
        <time>2011-04-06T11:07:49.000Z</time>
      </trkpt>
      <trkpt lat="43.64031" lon="7.05182">
        <ele>185.80000305176</ele>
        <time>2011-04-06T11:07:54.000Z</time>
      </trkpt>
      <trkpt lat="43.64035" lon="7.05178">
        <ele>186.19999694824</ele>
        <time>2011-04-06T11:07:58.000Z</time>
      </trkpt>
      <trkpt lat="43.64038" lon="7.05173">
        <ele>186.60000610352</ele>
        <time>2011-04-06T11:08:01.000Z</time>
      </trkpt>
      <trkpt lat="43.64041" lon="7.05166">
        <ele>186.80000305176</ele>
        <time>2011-04-06T11:08:04.000Z</time>
      </trkpt>
      <trkpt lat="43.64051" lon="7.05154">
        <ele>187.39999389648</ele>
        <time>2011-04-06T11:08:10.000Z</time>
      </trkpt>
      <trkpt lat="43.64063" lon="7.05136">
        <ele>187.39999389648</ele>
        <time>2011-04-06T11:08:17.000Z</time>
      </trkpt>
      <trkpt lat="43.64065" lon="7.05135">
        <ele>187.60000610352</ele>
        <time>2011-04-06T11:08:18.000Z</time>
      </trkpt>
      <trkpt lat="43.64076" lon="7.05125">
        <ele>188</ele>
        <time>2011-04-06T11:08:23.000Z</time>
      </trkpt>
      <trkpt lat="43.64078" lon="7.05124">
        <ele>188.19999694824</ele>
        <time>2011-04-06T11:08:24.000Z</time>
      </trkpt>
      <trkpt lat="43.64082" lon="7.05123">
        <ele>188.39999389648</ele>
        <time>2011-04-06T11:08:26.000Z</time>
      </trkpt>
      <trkpt lat="43.64083" lon="7.0512">
        <ele>188.19999694824</ele>
        <time>2011-04-06T11:08:27.000Z</time>
      </trkpt>
      <trkpt lat="43.64084" lon="7.05116">
        <ele>187.80000305176</ele>
        <time>2011-04-06T11:08:28.000Z</time>
      </trkpt>
      <trkpt lat="43.64092" lon="7.05105">
        <ele>186.60000610352</ele>
        <time>2011-04-06T11:08:31.000Z</time>
      </trkpt>
      <trkpt lat="43.64095" lon="7.05103">
        <ele>186.39999389648</ele>
        <time>2011-04-06T11:08:32.000Z</time>
      </trkpt>
      <trkpt lat="43.6411" lon="7.0509">
        <ele>185</ele>
        <time>2011-04-06T11:08:36.000Z</time>
      </trkpt>
      <trkpt lat="43.64114" lon="7.05087">
        <ele>184.80000305176</ele>
        <time>2011-04-06T11:08:37.000Z</time>
      </trkpt>
      <trkpt lat="43.64135" lon="7.05077">
        <ele>184</ele>
        <time>2011-04-06T11:08:42.000Z</time>
      </trkpt>
      <trkpt lat="43.64154" lon="7.05072">
        <ele>183.60000610352</ele>
        <time>2011-04-06T11:08:46.000Z</time>
      </trkpt>
      <trkpt lat="43.64165" lon="7.05069">
        <ele>183.39999389648</ele>
        <time>2011-04-06T11:08:48.000Z</time>
      </trkpt>
      <trkpt lat="43.64175" lon="7.05067">
        <ele>182.60000610352</ele>
        <time>2011-04-06T11:08:50.000Z</time>
      </trkpt>
      <trkpt lat="43.64192" lon="7.05062">
        <ele>181.19999694824</ele>
        <time>2011-04-06T11:08:53.000Z</time>
      </trkpt>
      <trkpt lat="43.64205" lon="7.0506">
        <ele>180.39999389648</ele>
        <time>2011-04-06T11:08:55.000Z</time>
      </trkpt>
      <trkpt lat="43.64211" lon="7.05059">
        <ele>180</ele>
        <time>2011-04-06T11:08:56.000Z</time>
      </trkpt>
      <trkpt lat="43.64217" lon="7.05057">
        <ele>179.39999389648</ele>
        <time>2011-04-06T11:08:57.000Z</time>
      </trkpt>
      <trkpt lat="43.64232" lon="7.05054">
        <ele>178.39999389648</ele>
        <time>2011-04-06T11:09:00.000Z</time>
      </trkpt>
      <trkpt lat="43.64236" lon="7.05053">
        <ele>178</ele>
        <time>2011-04-06T11:09:01.000Z</time>
      </trkpt>
      <trkpt lat="43.6425" lon="7.05053">
        <ele>177.39999389648</ele>
        <time>2011-04-06T11:09:04.000Z</time>
      </trkpt>
      <trkpt lat="43.64254" lon="7.05054">
        <ele>177.39999389648</ele>
        <time>2011-04-06T11:09:05.000Z</time>
      </trkpt>
      <trkpt lat="43.64261" lon="7.05056">
        <ele>177.39999389648</ele>
        <time>2011-04-06T11:09:07.000Z</time>
      </trkpt>
      <trkpt lat="43.64264" lon="7.05058">
        <ele>177.39999389648</ele>
        <time>2011-04-06T11:09:08.000Z</time>
      </trkpt>
      <trkpt lat="43.64266" lon="7.0506">
        <ele>177.60000610352</ele>
        <time>2011-04-06T11:09:09.000Z</time>
      </trkpt>
      <trkpt lat="43.64271" lon="7.05063">
        <ele>177.60000610352</ele>
        <time>2011-04-06T11:09:11.000Z</time>
      </trkpt>
      <trkpt lat="43.64274" lon="7.05063">
        <ele>177.60000610352</ele>
        <time>2011-04-06T11:09:12.000Z</time>
      </trkpt>
      <trkpt lat="43.64288" lon="7.0506">
        <ele>177</ele>
        <time>2011-04-06T11:09:16.000Z</time>
      </trkpt>
      <trkpt lat="43.64291" lon="7.05059">
        <ele>176.80000305176</ele>
        <time>2011-04-06T11:09:17.000Z</time>
      </trkpt>
      <trkpt lat="43.64299" lon="7.05054">
        <ele>176.19999694824</ele>
        <time>2011-04-06T11:09:20.000Z</time>
      </trkpt>
      <trkpt lat="43.64303" lon="7.05053">
        <ele>176</ele>
        <time>2011-04-06T11:09:24.000Z</time>
      </trkpt>
      <trkpt lat="43.64304" lon="7.05052">
        <ele>176</ele>
        <time>2011-04-06T11:09:25.000Z</time>
      </trkpt>
      <trkpt lat="43.64306" lon="7.05049">
        <ele>175.60000610352</ele>
        <time>2011-04-06T11:09:26.000Z</time>
      </trkpt>
      <trkpt lat="43.6431" lon="7.05041">
        <ele>175</ele>
        <time>2011-04-06T11:09:28.000Z</time>
      </trkpt>
      <trkpt lat="43.64313" lon="7.05026">
        <ele>173.60000610352</ele>
        <time>2011-04-06T11:09:31.000Z</time>
      </trkpt>
      <trkpt lat="43.64315" lon="7.05022">
        <ele>173.19999694824</ele>
        <time>2011-04-06T11:09:32.000Z</time>
      </trkpt>
      <trkpt lat="43.64323" lon="7.05016">
        <ele>172.39999389648</ele>
        <time>2011-04-06T11:09:34.000Z</time>
      </trkpt>
      <trkpt lat="43.64328" lon="7.05013">
        <ele>172.19999694824</ele>
        <time>2011-04-06T11:09:35.000Z</time>
      </trkpt>
      <trkpt lat="43.64332" lon="7.05011">
        <ele>171.80000305176</ele>
        <time>2011-04-06T11:09:36.000Z</time>
      </trkpt>
      <trkpt lat="43.64344" lon="7.05001">
        <ele>171.19999694824</ele>
        <time>2011-04-06T11:09:39.000Z</time>
      </trkpt>
      <trkpt lat="43.6435" lon="7.04995">
        <ele>171</ele>
        <time>2011-04-06T11:09:41.000Z</time>
      </trkpt>
      <trkpt lat="43.64351" lon="7.04987">
        <ele>170.39999389648</ele>
        <time>2011-04-06T11:09:45.000Z</time>
      </trkpt>
      <trkpt lat="43.64346" lon="7.04988">
        <ele>170.39999389648</ele>
        <time>2011-04-06T11:09:47.000Z</time>
      </trkpt>
      <trkpt lat="43.64344" lon="7.0499">
        <ele>170.39999389648</ele>
        <time>2011-04-06T11:09:48.000Z</time>
      </trkpt>
      <trkpt lat="43.64341" lon="7.04992">
        <ele>170.60000610352</ele>
        <time>2011-04-06T11:09:49.000Z</time>
      </trkpt>
      <trkpt lat="43.64328" lon="7.04999">
        <ele>171</ele>
        <time>2011-04-06T11:09:54.000Z</time>
      </trkpt>
      <trkpt lat="43.64326" lon="7.04999">
        <ele>171</ele>
        <time>2011-04-06T11:09:55.000Z</time>
      </trkpt>
      <trkpt lat="43.64321" lon="7.04992">
        <ele>170.60000610352</ele>
        <time>2011-04-06T11:09:58.000Z</time>
      </trkpt>
      <trkpt lat="43.64313" lon="7.04981">
        <ele>170</ele>
        <time>2011-04-06T11:10:01.000Z</time>
      </trkpt>
      <trkpt lat="43.64307" lon="7.04977">
        <ele>169.80000305176</ele>
        <time>2011-04-06T11:10:03.000Z</time>
      </trkpt>
      <trkpt lat="43.64302" lon="7.04968">
        <ele>169.19999694824</ele>
        <time>2011-04-06T11:10:07.000Z</time>
      </trkpt>
      <trkpt lat="43.64302" lon="7.04967">
        <ele>169.19999694824</ele>
        <time>2011-04-06T11:10:08.000Z</time>
      </trkpt>
      <trkpt lat="43.643" lon="7.04968">
        <ele>169.19999694824</ele>
        <time>2011-04-06T11:10:12.000Z</time>
      </trkpt>
      <trkpt lat="43.64299" lon="7.04969">
        <ele>169.39999389648</ele>
        <time>2011-04-06T11:10:13.000Z</time>
      </trkpt>
      <trkpt lat="43.64298" lon="7.04971">
        <ele>169.39999389648</ele>
        <time>2011-04-06T11:10:14.000Z</time>
      </trkpt>
      <trkpt lat="43.64295" lon="7.04979">
        <ele>170.19999694824</ele>
        <time>2011-04-06T11:10:17.000Z</time>
      </trkpt>
      <trkpt lat="43.64284" lon="7.04985">
        <ele>171</ele>
        <time>2011-04-06T11:10:21.000Z</time>
      </trkpt>
      <trkpt lat="43.64281" lon="7.04987">
        <ele>171.19999694824</ele>
        <time>2011-04-06T11:10:22.000Z</time>
      </trkpt>
      <trkpt lat="43.64266" lon="7.04989">
        <ele>171.60000610352</ele>
        <time>2011-04-06T11:10:27.000Z</time>
      </trkpt>
      <trkpt lat="43.64247" lon="7.04987">
        <ele>172</ele>
        <time>2011-04-06T11:10:33.000Z</time>
      </trkpt>
      <trkpt lat="43.64244" lon="7.04987">
        <ele>172</ele>
        <time>2011-04-06T11:10:34.000Z</time>
      </trkpt>
      <trkpt lat="43.64229" lon="7.04991">
        <ele>173</ele>
        <time>2011-04-06T11:10:39.000Z</time>
      </trkpt>
      <trkpt lat="43.64226" lon="7.04992">
        <ele>173.19999694824</ele>
        <time>2011-04-06T11:10:40.000Z</time>
      </trkpt>
      <trkpt lat="43.6421" lon="7.04996">
        <ele>174</ele>
        <time>2011-04-06T11:10:47.000Z</time>
      </trkpt>
      <trkpt lat="43.64202" lon="7.04992">
        <ele>174</ele>
        <time>2011-04-06T11:10:52.000Z</time>
      </trkpt>
      <trkpt lat="43.64202" lon="7.0498">
        <ele>173.19999694824</ele>
        <time>2011-04-06T11:10:55.000Z</time>
      </trkpt>
      <trkpt lat="43.64203" lon="7.04974">
        <ele>172.80000305176</ele>
        <time>2011-04-06T11:10:56.000Z</time>
      </trkpt>
      <trkpt lat="43.64206" lon="7.04951">
        <ele>171</ele>
        <time>2011-04-06T11:10:59.000Z</time>
      </trkpt>
      <trkpt lat="43.64208" lon="7.04936">
        <ele>169.80000305176</ele>
        <time>2011-04-06T11:11:01.000Z</time>
      </trkpt>
      <trkpt lat="43.64208" lon="7.04929">
        <ele>169.19999694824</ele>
        <time>2011-04-06T11:11:02.000Z</time>
      </trkpt>
      <trkpt lat="43.64208" lon="7.04922">
        <ele>168.80000305176</ele>
        <time>2011-04-06T11:11:03.000Z</time>
      </trkpt>
      <trkpt lat="43.64203" lon="7.04912">
        <ele>168.39999389648</ele>
        <time>2011-04-06T11:11:05.000Z</time>
      </trkpt>
      <trkpt lat="43.64196" lon="7.04905">
        <ele>168.39999389648</ele>
        <time>2011-04-06T11:11:07.000Z</time>
      </trkpt>
      <trkpt lat="43.64192" lon="7.04902">
        <ele>168.39999389648</ele>
        <time>2011-04-06T11:11:08.000Z</time>
      </trkpt>
      <trkpt lat="43.6419" lon="7.04899">
        <ele>168.39999389648</ele>
        <time>2011-04-06T11:11:09.000Z</time>
      </trkpt>
      <trkpt lat="43.64181" lon="7.04892">
        <ele>168.39999389648</ele>
        <time>2011-04-06T11:11:13.000Z</time>
      </trkpt>
      <trkpt lat="43.64178" lon="7.04885">
        <ele>168</ele>
        <time>2011-04-06T11:11:15.000Z</time>
      </trkpt>
      <trkpt lat="43.64176" lon="7.04883">
        <ele>168</ele>
        <time>2011-04-06T11:11:16.000Z</time>
      </trkpt>
      <trkpt lat="43.64168" lon="7.04885">
        <ele>168.60000610352</ele>
        <time>2011-04-06T11:11:19.000Z</time>
      </trkpt>
      <trkpt lat="43.64162" lon="7.04887">
        <ele>168.60000610352</ele>
        <time>2011-04-06T11:11:21.000Z</time>
      </trkpt>
      <trkpt lat="43.64159" lon="7.04889">
        <ele>168.60000610352</ele>
        <time>2011-04-06T11:11:22.000Z</time>
      </trkpt>
      <trkpt lat="43.6415" lon="7.04892">
        <ele>168.80000305176</ele>
        <time>2011-04-06T11:11:26.000Z</time>
      </trkpt>
      <trkpt lat="43.64149" lon="7.0489">
        <ele>168.60000610352</ele>
        <time>2011-04-06T11:11:27.000Z</time>
      </trkpt>
      <trkpt lat="43.64146" lon="7.04879">
        <ele>167.60000610352</ele>
        <time>2011-04-06T11:11:31.000Z</time>
      </trkpt>
      <trkpt lat="43.64145" lon="7.04875">
        <ele>167.19999694824</ele>
        <time>2011-04-06T11:11:32.000Z</time>
      </trkpt>
      <trkpt lat="43.64143" lon="7.04862">
        <ele>165.80000305176</ele>
        <time>2011-04-06T11:11:37.000Z</time>
      </trkpt>
      <trkpt lat="43.64138" lon="7.04856">
        <ele>165</ele>
        <time>2011-04-06T11:11:42.000Z</time>
      </trkpt>
      <trkpt lat="43.64137" lon="7.04855">
        <ele>164.80000305176</ele>
        <time>2011-04-06T11:11:43.000Z</time>
      </trkpt>
      <trkpt lat="43.64129" lon="7.04851">
        <ele>164</ele>
        <time>2011-04-06T11:11:49.000Z</time>
      </trkpt>
      <trkpt lat="43.64129" lon="7.04851">
        <ele>164</ele>
        <time>2011-04-06T11:11:50.000Z</time>
      </trkpt>
      <trkpt lat="43.64125" lon="7.04845">
        <ele>163.19999694824</ele>
        <time>2011-04-06T11:12:15.000Z</time>
      </trkpt>
      <trkpt lat="43.64123" lon="7.04844">
        <ele>162.80000305176</ele>
        <time>2011-04-06T11:12:19.000Z</time>
      </trkpt>
      <trkpt lat="43.64123" lon="7.04844">
        <ele>163</ele>
        <time>2011-04-06T11:12:21.000Z</time>
      </trkpt>
      <trkpt lat="43.6412" lon="7.04839">
        <ele>162.19999694824</ele>
        <time>2011-04-06T11:12:25.000Z</time>
      </trkpt>
      <trkpt lat="43.64109" lon="7.04838">
        <ele>161.39999389648</ele>
        <time>2011-04-06T11:12:29.000Z</time>
      </trkpt>
      <trkpt lat="43.64106" lon="7.04839">
        <ele>161.19999694824</ele>
        <time>2011-04-06T11:12:30.000Z</time>
      </trkpt>
      <trkpt lat="43.64094" lon="7.04846">
        <ele>161.39999389648</ele>
        <time>2011-04-06T11:12:35.000Z</time>
      </trkpt>
      <trkpt lat="43.64089" lon="7.04848">
        <ele>161.19999694824</ele>
        <time>2011-04-06T11:12:37.000Z</time>
      </trkpt>
      <trkpt lat="43.6407" lon="7.04852">
        <ele>161.19999694824</ele>
        <time>2011-04-06T11:12:44.000Z</time>
      </trkpt>
      <trkpt lat="43.64067" lon="7.04852">
        <ele>161.19999694824</ele>
        <time>2011-04-06T11:12:45.000Z</time>
      </trkpt>
      <trkpt lat="43.64053" lon="7.04855">
        <ele>161</ele>
        <time>2011-04-06T11:12:51.000Z</time>
      </trkpt>
      <trkpt lat="43.6405" lon="7.04855">
        <ele>160.80000305176</ele>
        <time>2011-04-06T11:12:52.000Z</time>
      </trkpt>
      <trkpt lat="43.64033" lon="7.04857">
        <ele>160.60000610352</ele>
        <time>2011-04-06T11:12:58.000Z</time>
      </trkpt>
      <trkpt lat="43.64031" lon="7.04858">
        <ele>160.60000610352</ele>
        <time>2011-04-06T11:12:59.000Z</time>
      </trkpt>
      <trkpt lat="43.64012" lon="7.04862">
        <ele>160.39999389648</ele>
        <time>2011-04-06T11:13:06.000Z</time>
      </trkpt>
      <trkpt lat="43.63994" lon="7.04869">
        <ele>160.39999389648</ele>
        <time>2011-04-06T11:13:13.000Z</time>
      </trkpt>
      <trkpt lat="43.63991" lon="7.0487">
        <ele>160.39999389648</ele>
        <time>2011-04-06T11:13:14.000Z</time>
      </trkpt>
      <trkpt lat="43.63976" lon="7.0488">
        <ele>160.60000610352</ele>
        <time>2011-04-06T11:13:20.000Z</time>
      </trkpt>
      <trkpt lat="43.63974" lon="7.04882">
        <ele>160.60000610352</ele>
        <time>2011-04-06T11:13:21.000Z</time>
      </trkpt>
      <trkpt lat="43.63968" lon="7.04897">
        <ele>161.60000610352</ele>
        <time>2011-04-06T11:13:25.000Z</time>
      </trkpt>
      <trkpt lat="43.63967" lon="7.04901">
        <ele>161.80000305176</ele>
        <time>2011-04-06T11:13:26.000Z</time>
      </trkpt>
      <trkpt lat="43.63961" lon="7.0491">
        <ele>162.19999694824</ele>
        <time>2011-04-06T11:13:30.000Z</time>
      </trkpt>
      <trkpt lat="43.63958" lon="7.04913">
        <ele>162</ele>
        <time>2011-04-06T11:13:32.000Z</time>
      </trkpt>
      <trkpt lat="43.63955" lon="7.04917">
        <ele>162.19999694824</ele>
        <time>2011-04-06T11:13:35.000Z</time>
      </trkpt>
      <trkpt lat="43.63953" lon="7.04916">
        <ele>162</ele>
        <time>2011-04-06T11:13:40.000Z</time>
      </trkpt>
      <trkpt lat="43.63953" lon="7.04917">
        <ele>162</ele>
        <time>2011-04-06T11:13:42.000Z</time>
      </trkpt>
      <trkpt lat="43.63953" lon="7.04923">
        <ele>162.19999694824</ele>
        <time>2011-04-06T11:14:48.000Z</time>
      </trkpt>
      <trkpt lat="43.6396" lon="7.04913">
        <ele>162.19999694824</ele>
        <time>2011-04-06T11:14:54.000Z</time>
      </trkpt>
      <trkpt lat="43.63969" lon="7.0489">
        <ele>161</ele>
        <time>2011-04-06T11:15:00.000Z</time>
      </trkpt>
      <trkpt lat="43.63979" lon="7.04877">
        <ele>160.39999389648</ele>
        <time>2011-04-06T11:15:04.000Z</time>
      </trkpt>
      <trkpt lat="43.63986" lon="7.04873">
        <ele>160.39999389648</ele>
        <time>2011-04-06T11:15:06.000Z</time>
      </trkpt>
      <trkpt lat="43.63996" lon="7.04868">
        <ele>160.60000610352</ele>
        <time>2011-04-06T11:15:09.000Z</time>
      </trkpt>
      <trkpt lat="43.64006" lon="7.04863">
        <ele>160.39999389648</ele>
        <time>2011-04-06T11:15:12.000Z</time>
      </trkpt>
      <trkpt lat="43.64015" lon="7.04861">
        <ele>160.39999389648</ele>
        <time>2011-04-06T11:15:14.000Z</time>
      </trkpt>
      <trkpt lat="43.64026" lon="7.04856">
        <ele>160.19999694824</ele>
        <time>2011-04-06T11:15:17.000Z</time>
      </trkpt>
      <trkpt lat="43.64034" lon="7.04855">
        <ele>160.39999389648</ele>
        <time>2011-04-06T11:15:19.000Z</time>
      </trkpt>
      <trkpt lat="43.64046" lon="7.04854">
        <ele>160.60000610352</ele>
        <time>2011-04-06T11:15:22.000Z</time>
      </trkpt>
      <trkpt lat="43.64054" lon="7.04853">
        <ele>160.80000305176</ele>
        <time>2011-04-06T11:15:24.000Z</time>
      </trkpt>
      <trkpt lat="43.64064" lon="7.04851">
        <ele>160.80000305176</ele>
        <time>2011-04-06T11:15:26.000Z</time>
      </trkpt>
      <trkpt lat="43.64082" lon="7.04847">
        <ele>160.80000305176</ele>
        <time>2011-04-06T11:15:30.000Z</time>
      </trkpt>
      <trkpt lat="43.64086" lon="7.04846">
        <ele>160.80000305176</ele>
        <time>2011-04-06T11:15:31.000Z</time>
      </trkpt>
      <trkpt lat="43.64103" lon="7.04839">
        <ele>161</ele>
        <time>2011-04-06T11:15:35.000Z</time>
      </trkpt>
      <trkpt lat="43.64107" lon="7.04832">
        <ele>160.39999389648</ele>
        <time>2011-04-06T11:15:37.000Z</time>
      </trkpt>
      <trkpt lat="43.6411" lon="7.04822">
        <ele>159.39999389648</ele>
        <time>2011-04-06T11:15:39.000Z</time>
      </trkpt>
      <trkpt lat="43.64111" lon="7.04817">
        <ele>158.80000305176</ele>
        <time>2011-04-06T11:15:40.000Z</time>
      </trkpt>
      <trkpt lat="43.64115" lon="7.04805">
        <ele>157.60000610352</ele>
        <time>2011-04-06T11:15:42.000Z</time>
      </trkpt>
      <trkpt lat="43.64121" lon="7.04796">
        <ele>157</ele>
        <time>2011-04-06T11:15:44.000Z</time>
      </trkpt>
      <trkpt lat="43.64128" lon="7.04788">
        <ele>156.39999389648</ele>
        <time>2011-04-06T11:15:46.000Z</time>
      </trkpt>
      <trkpt lat="43.64129" lon="7.04772">
        <ele>154.39999389648</ele>
        <time>2011-04-06T11:15:49.000Z</time>
      </trkpt>
      <trkpt lat="43.64128" lon="7.04745">
        <ele>151.80000305176</ele>
        <time>2011-04-06T11:15:54.000Z</time>
      </trkpt>
      <trkpt lat="43.64128" lon="7.04739">
        <ele>152</ele>
        <time>2011-04-06T11:15:55.000Z</time>
      </trkpt>
      <trkpt lat="43.64126" lon="7.04731">
        <ele>152.19999694824</ele>
        <time>2011-04-06T11:15:57.000Z</time>
      </trkpt>
      <trkpt lat="43.64126" lon="7.04731">
        <ele>152.19999694824</ele>
        <time>2011-04-06T11:16:00.000Z</time>
      </trkpt>
      <trkpt lat="43.64123" lon="7.04726">
        <ele>152.19999694824</ele>
        <time>2011-04-06T11:16:10.000Z</time>
      </trkpt>
      <trkpt lat="43.6412" lon="7.04724">
        <ele>152.19999694824</ele>
        <time>2011-04-06T11:16:11.000Z</time>
      </trkpt>
      <trkpt lat="43.6411" lon="7.04714">
        <ele>152.39999389648</ele>
        <time>2011-04-06T11:16:16.000Z</time>
      </trkpt>
      <trkpt lat="43.64104" lon="7.04712">
        <ele>152.39999389648</ele>
        <time>2011-04-06T11:16:20.000Z</time>
      </trkpt>
      <trkpt lat="43.64094" lon="7.04715">
        <ele>151.80000305176</ele>
        <time>2011-04-06T11:16:25.000Z</time>
      </trkpt>
      <trkpt lat="43.64086" lon="7.04711">
        <ele>151.80000305176</ele>
        <time>2011-04-06T11:16:29.000Z</time>
      </trkpt>
      <trkpt lat="43.64078" lon="7.04703">
        <ele>152</ele>
        <time>2011-04-06T11:16:35.000Z</time>
      </trkpt>
      <trkpt lat="43.64071" lon="7.04706">
        <ele>151.39999389648</ele>
        <time>2011-04-06T11:16:38.000Z</time>
      </trkpt>
      <trkpt lat="43.64068" lon="7.04707">
        <ele>151.19999694824</ele>
        <time>2011-04-06T11:16:39.000Z</time>
      </trkpt>
      <trkpt lat="43.64053" lon="7.0471">
        <ele>150.19999694824</ele>
        <time>2011-04-06T11:16:44.000Z</time>
      </trkpt>
      <trkpt lat="43.6405" lon="7.04711">
        <ele>150</ele>
        <time>2011-04-06T11:16:45.000Z</time>
      </trkpt>
      <trkpt lat="43.64035" lon="7.04714">
        <ele>149</ele>
        <time>2011-04-06T11:16:49.000Z</time>
      </trkpt>
      <trkpt lat="43.64027" lon="7.04713">
        <ele>148.60000610352</ele>
        <time>2011-04-06T11:16:51.000Z</time>
      </trkpt>
      <trkpt lat="43.64015" lon="7.04712">
        <ele>148</ele>
        <time>2011-04-06T11:16:54.000Z</time>
      </trkpt>
      <trkpt lat="43.64004" lon="7.04706">
        <ele>147.80000305176</ele>
        <time>2011-04-06T11:16:57.000Z</time>
      </trkpt>
      <trkpt lat="43.63996" lon="7.047">
        <ele>147.60000610352</ele>
        <time>2011-04-06T11:16:59.000Z</time>
      </trkpt>
      <trkpt lat="43.6398" lon="7.04692">
        <ele>146.80000305176</ele>
        <time>2011-04-06T11:17:02.000Z</time>
      </trkpt>
      <trkpt lat="43.63974" lon="7.04688">
        <ele>146.39999389648</ele>
        <time>2011-04-06T11:17:03.000Z</time>
      </trkpt>
      <trkpt lat="43.63954" lon="7.04677">
        <ele>144.39999389648</ele>
        <time>2011-04-06T11:17:06.000Z</time>
      </trkpt>
      <trkpt lat="43.63946" lon="7.04672">
        <ele>143.60000610352</ele>
        <time>2011-04-06T11:17:07.000Z</time>
      </trkpt>
      <trkpt lat="43.63931" lon="7.04662">
        <ele>141.80000305176</ele>
        <time>2011-04-06T11:17:09.000Z</time>
      </trkpt>
      <trkpt lat="43.63915" lon="7.04652">
        <ele>140.60000610352</ele>
        <time>2011-04-06T11:17:11.000Z</time>
      </trkpt>
      <trkpt lat="43.63898" lon="7.04642">
        <ele>139.80000305176</ele>
        <time>2011-04-06T11:17:13.000Z</time>
      </trkpt>
      <trkpt lat="43.63881" lon="7.04634">
        <ele>139</ele>
        <time>2011-04-06T11:17:15.000Z</time>
      </trkpt>
      <trkpt lat="43.63862" lon="7.04628">
        <ele>137.80000305176</ele>
        <time>2011-04-06T11:17:17.000Z</time>
      </trkpt>
      <trkpt lat="43.63852" lon="7.04626">
        <ele>137.19999694824</ele>
        <time>2011-04-06T11:17:18.000Z</time>
      </trkpt>
      <trkpt lat="43.63843" lon="7.04624">
        <ele>136.60000610352</ele>
        <time>2011-04-06T11:17:19.000Z</time>
      </trkpt>
      <trkpt lat="43.63823" lon="7.04621">
        <ele>135.39999389648</ele>
        <time>2011-04-06T11:17:21.000Z</time>
      </trkpt>
      <trkpt lat="43.63803" lon="7.04621">
        <ele>134.39999389648</ele>
        <time>2011-04-06T11:17:23.000Z</time>
      </trkpt>
      <trkpt lat="43.63794" lon="7.04621">
        <ele>133.80000305176</ele>
        <time>2011-04-06T11:17:24.000Z</time>
      </trkpt>
      <trkpt lat="43.63784" lon="7.04622">
        <ele>133.39999389648</ele>
        <time>2011-04-06T11:17:25.000Z</time>
      </trkpt>
      <trkpt lat="43.63765" lon="7.04626">
        <ele>132.19999694824</ele>
        <time>2011-04-06T11:17:27.000Z</time>
      </trkpt>
      <trkpt lat="43.63747" lon="7.04632">
        <ele>131</ele>
        <time>2011-04-06T11:17:29.000Z</time>
      </trkpt>
      <trkpt lat="43.63723" lon="7.04644">
        <ele>129.60000610352</ele>
        <time>2011-04-06T11:17:32.000Z</time>
      </trkpt>
      <trkpt lat="43.637" lon="7.04658">
        <ele>128</ele>
        <time>2011-04-06T11:17:35.000Z</time>
      </trkpt>
      <trkpt lat="43.63677" lon="7.04676">
        <ele>126</ele>
        <time>2011-04-06T11:17:38.000Z</time>
      </trkpt>
      <trkpt lat="43.63663" lon="7.04691">
        <ele>124.59999847412</ele>
        <time>2011-04-06T11:17:40.000Z</time>
      </trkpt>
      <trkpt lat="43.63648" lon="7.04708">
        <ele>123</ele>
        <time>2011-04-06T11:17:42.000Z</time>
      </trkpt>
      <trkpt lat="43.63633" lon="7.04727">
        <ele>121.19999694824</ele>
        <time>2011-04-06T11:17:44.000Z</time>
      </trkpt>
      <trkpt lat="43.63626" lon="7.04737">
        <ele>120.19999694824</ele>
        <time>2011-04-06T11:17:45.000Z</time>
      </trkpt>
      <trkpt lat="43.63619" lon="7.04749">
        <ele>119</ele>
        <time>2011-04-06T11:17:46.000Z</time>
      </trkpt>
      <trkpt lat="43.63606" lon="7.04772">
        <ele>117.59999847412</ele>
        <time>2011-04-06T11:17:48.000Z</time>
      </trkpt>
      <trkpt lat="43.63594" lon="7.04798">
        <ele>115.80000305176</ele>
        <time>2011-04-06T11:17:50.000Z</time>
      </trkpt>
      <trkpt lat="43.63581" lon="7.04825">
        <ele>113</ele>
        <time>2011-04-06T11:17:52.000Z</time>
      </trkpt>
      <trkpt lat="43.63567" lon="7.04852">
        <ele>111</ele>
        <time>2011-04-06T11:17:54.000Z</time>
      </trkpt>
      <trkpt lat="43.63559" lon="7.04864">
        <ele>109.80000305176</ele>
        <time>2011-04-06T11:17:55.000Z</time>
      </trkpt>
      <trkpt lat="43.6355" lon="7.04876">
        <ele>108.59999847412</ele>
        <time>2011-04-06T11:17:56.000Z</time>
      </trkpt>
      <trkpt lat="43.63532" lon="7.04897">
        <ele>105.59999847412</ele>
        <time>2011-04-06T11:17:58.000Z</time>
      </trkpt>
      <trkpt lat="43.63523" lon="7.04907">
        <ele>103.80000305176</ele>
        <time>2011-04-06T11:17:59.000Z</time>
      </trkpt>
      <trkpt lat="43.63513" lon="7.04917">
        <ele>101.80000305176</ele>
        <time>2011-04-06T11:18:00.000Z</time>
      </trkpt>
      <trkpt lat="43.63494" lon="7.04938">
        <ele>100.19999694824</ele>
        <time>2011-04-06T11:18:02.000Z</time>
      </trkpt>
      <trkpt lat="43.63477" lon="7.04961">
        <ele>101.40000152588</ele>
        <time>2011-04-06T11:18:04.000Z</time>
      </trkpt>
      <trkpt lat="43.63471" lon="7.04973">
        <ele>102.19999694824</ele>
        <time>2011-04-06T11:18:05.000Z</time>
      </trkpt>
      <trkpt lat="43.63465" lon="7.04986">
        <ele>102.80000305176</ele>
        <time>2011-04-06T11:18:06.000Z</time>
      </trkpt>
      <trkpt lat="43.63458" lon="7.05006">
        <ele>104</ele>
        <time>2011-04-06T11:18:08.000Z</time>
      </trkpt>
      <trkpt lat="43.63456" lon="7.05013">
        <ele>104.19999694824</ele>
        <time>2011-04-06T11:18:09.000Z</time>
      </trkpt>
      <trkpt lat="43.63454" lon="7.05017">
        <ele>104.40000152588</ele>
        <time>2011-04-06T11:18:10.000Z</time>
      </trkpt>
      <trkpt lat="43.63453" lon="7.05018">
        <ele>104.59999847412</ele>
        <time>2011-04-06T11:18:11.000Z</time>
      </trkpt>
      <trkpt lat="43.6345" lon="7.05012">
        <ele>104.80000305176</ele>
        <time>2011-04-06T11:18:14.000Z</time>
      </trkpt>
      <trkpt lat="43.63451" lon="7.05002">
        <ele>104.80000305176</ele>
        <time>2011-04-06T11:18:16.000Z</time>
      </trkpt>
      <trkpt lat="43.63452" lon="7.04996">
        <ele>104.59999847412</ele>
        <time>2011-04-06T11:18:17.000Z</time>
      </trkpt>
      <trkpt lat="43.63453" lon="7.04989">
        <ele>104.40000152588</ele>
        <time>2011-04-06T11:18:18.000Z</time>
      </trkpt>
      <trkpt lat="43.63451" lon="7.04974">
        <ele>104.19999694824</ele>
        <time>2011-04-06T11:18:20.000Z</time>
      </trkpt>
      <trkpt lat="43.63447" lon="7.04954">
        <ele>104</ele>
        <time>2011-04-06T11:18:23.000Z</time>
      </trkpt>
      <trkpt lat="43.63447" lon="7.04947">
        <ele>103.80000305176</ele>
        <time>2011-04-06T11:18:24.000Z</time>
      </trkpt>
      <trkpt lat="43.63449" lon="7.04929">
        <ele>103.19999694824</ele>
        <time>2011-04-06T11:18:27.000Z</time>
      </trkpt>
      <trkpt lat="43.63453" lon="7.04921">
        <ele>102.80000305176</ele>
        <time>2011-04-06T11:18:31.000Z</time>
      </trkpt>
      <trkpt lat="43.63456" lon="7.04924">
        <ele>102.80000305176</ele>
        <time>2011-04-06T11:18:35.000Z</time>
      </trkpt>
      <trkpt lat="43.63458" lon="7.04936">
        <ele>102.80000305176</ele>
        <time>2011-04-06T11:18:40.000Z</time>
      </trkpt>
      <trkpt lat="43.63461" lon="7.04941">
        <ele>102.59999847412</ele>
        <time>2011-04-06T11:18:42.000Z</time>
      </trkpt>
      <trkpt lat="43.63462" lon="7.04944">
        <ele>102.59999847412</ele>
        <time>2011-04-06T11:18:43.000Z</time>
      </trkpt>
      <trkpt lat="43.63463" lon="7.04946">
        <ele>102.59999847412</ele>
        <time>2011-04-06T11:18:45.000Z</time>
      </trkpt>
      <trkpt lat="43.63464" lon="7.04951">
        <ele>102.59999847412</ele>
        <time>2011-04-06T11:18:55.000Z</time>
      </trkpt>
      <trkpt lat="43.63465" lon="7.04956">
        <ele>102.59999847412</ele>
        <time>2011-04-06T11:19:01.000Z</time>
      </trkpt>
      <trkpt lat="43.63465" lon="7.04967">
        <ele>102.59999847412</ele>
        <time>2011-04-06T11:19:06.000Z</time>
      </trkpt>
      <trkpt lat="43.63465" lon="7.04975">
        <ele>102.80000305176</ele>
        <time>2011-04-06T11:19:10.000Z</time>
      </trkpt>
      <trkpt lat="43.63466" lon="7.04978">
        <ele>102.59999847412</ele>
        <time>2011-04-06T11:19:11.000Z</time>
      </trkpt>
      <trkpt lat="43.63469" lon="7.04986">
        <ele>102.40000152588</ele>
        <time>2011-04-06T11:19:15.000Z</time>
      </trkpt>
      <trkpt lat="43.63472" lon="7.04993">
        <ele>102.19999694824</ele>
        <time>2011-04-06T11:19:18.000Z</time>
      </trkpt>
      <trkpt lat="43.63473" lon="7.04998">
        <ele>102.19999694824</ele>
        <time>2011-04-06T11:19:20.000Z</time>
      </trkpt>
      <trkpt lat="43.63474" lon="7.05005">
        <ele>102</ele>
        <time>2011-04-06T11:19:23.000Z</time>
      </trkpt>
      <trkpt lat="43.63476" lon="7.05009">
        <ele>102</ele>
        <time>2011-04-06T11:19:25.000Z</time>
      </trkpt>
      <trkpt lat="43.63477" lon="7.05016">
        <ele>101.80000305176</ele>
        <time>2011-04-06T11:19:27.000Z</time>
      </trkpt>
      <trkpt lat="43.63478" lon="7.0502">
        <ele>101.80000305176</ele>
        <time>2011-04-06T11:19:28.000Z</time>
      </trkpt>
      <trkpt lat="43.63479" lon="7.05024">
        <ele>101.80000305176</ele>
        <time>2011-04-06T11:19:29.000Z</time>
      </trkpt>
      <trkpt lat="43.63479" lon="7.05033">
        <ele>101.80000305176</ele>
        <time>2011-04-06T11:19:32.000Z</time>
      </trkpt>
      <trkpt lat="43.6348" lon="7.05035">
        <ele>101.80000305176</ele>
        <time>2011-04-06T11:19:33.000Z</time>
      </trkpt>
      <trkpt lat="43.63482" lon="7.05042">
        <ele>101.80000305176</ele>
        <time>2011-04-06T11:19:35.000Z</time>
      </trkpt>
      <trkpt lat="43.63482" lon="7.05053">
        <ele>102</ele>
        <time>2011-04-06T11:19:38.000Z</time>
      </trkpt>
      <trkpt lat="43.63484" lon="7.0507">
        <ele>102</ele>
        <time>2011-04-06T11:19:42.000Z</time>
      </trkpt>
      <trkpt lat="43.63485" lon="7.05075">
        <ele>102</ele>
        <time>2011-04-06T11:19:43.000Z</time>
      </trkpt>
      <trkpt lat="43.63488" lon="7.05099">
        <ele>102.19999694824</ele>
        <time>2011-04-06T11:19:48.000Z</time>
      </trkpt>
      <trkpt lat="43.63484" lon="7.05121">
        <ele>102.80000305176</ele>
        <time>2011-04-06T11:19:53.000Z</time>
      </trkpt>
      <trkpt lat="43.63482" lon="7.05125">
        <ele>103</ele>
        <time>2011-04-06T11:19:54.000Z</time>
      </trkpt>
      <trkpt lat="43.63481" lon="7.05146">
        <ele>103.19999694824</ele>
        <time>2011-04-06T11:19:59.000Z</time>
      </trkpt>
      <trkpt lat="43.63481" lon="7.0515">
        <ele>103.19999694824</ele>
        <time>2011-04-06T11:20:00.000Z</time>
      </trkpt>
      <trkpt lat="43.63477" lon="7.05162">
        <ele>103.40000152588</ele>
        <time>2011-04-06T11:20:04.000Z</time>
      </trkpt>
      <trkpt lat="43.63473" lon="7.05175">
        <ele>103.80000305176</ele>
        <time>2011-04-06T11:20:08.000Z</time>
      </trkpt>
      <trkpt lat="43.63472" lon="7.05178">
        <ele>103.80000305176</ele>
        <time>2011-04-06T11:20:09.000Z</time>
      </trkpt>
      <trkpt lat="43.63468" lon="7.05188">
        <ele>104.19999694824</ele>
        <time>2011-04-06T11:20:14.000Z</time>
      </trkpt>
      <trkpt lat="43.63465" lon="7.05192">
        <ele>104.19999694824</ele>
        <time>2011-04-06T11:20:21.000Z</time>
      </trkpt>
      <trkpt lat="43.63463" lon="7.05195">
        <ele>104.19999694824</ele>
        <time>2011-04-06T11:20:28.000Z</time>
      </trkpt>
      <trkpt lat="43.63462" lon="7.05196">
        <ele>104.19999694824</ele>
        <time>2011-04-06T11:20:30.000Z</time>
      </trkpt>
      <trkpt lat="43.63459" lon="7.05196">
        <ele>104</ele>
        <time>2011-04-06T11:20:32.000Z</time>
      </trkpt>
      <trkpt lat="43.63453" lon="7.052">
        <ele>103.59999847412</ele>
        <time>2011-04-06T11:20:35.000Z</time>
      </trkpt>
      <trkpt lat="43.63451" lon="7.05203">
        <ele>103.59999847412</ele>
        <time>2011-04-06T11:20:36.000Z</time>
      </trkpt>
      <trkpt lat="43.6345" lon="7.05207">
        <ele>103.59999847412</ele>
        <time>2011-04-06T11:20:37.000Z</time>
      </trkpt>
      <trkpt lat="43.63445" lon="7.0522">
        <ele>103.40000152588</ele>
        <time>2011-04-06T11:20:40.000Z</time>
      </trkpt>
      <trkpt lat="43.6344" lon="7.05227">
        <ele>103</ele>
        <time>2011-04-06T11:20:42.000Z</time>
      </trkpt>
      <trkpt lat="43.6343" lon="7.05237">
        <ele>102</ele>
        <time>2011-04-06T11:20:45.000Z</time>
      </trkpt>
      <trkpt lat="43.63423" lon="7.05241">
        <ele>101</ele>
        <time>2011-04-06T11:20:47.000Z</time>
      </trkpt>
      <trkpt lat="43.6342" lon="7.05241">
        <ele>100.59999847412</ele>
        <time>2011-04-06T11:20:48.000Z</time>
      </trkpt>
      <trkpt lat="43.63417" lon="7.05241">
        <ele>100.19999694824</ele>
        <time>2011-04-06T11:20:49.000Z</time>
      </trkpt>
      <trkpt lat="43.63406" lon="7.05245">
        <ele>100.59999847412</ele>
        <time>2011-04-06T11:20:53.000Z</time>
      </trkpt>
      <trkpt lat="43.63403" lon="7.05245">
        <ele>100.80000305176</ele>
        <time>2011-04-06T11:20:54.000Z</time>
      </trkpt>
      <trkpt lat="43.63397" lon="7.05254">
        <ele>101</ele>
        <time>2011-04-06T11:20:58.000Z</time>
      </trkpt>
      <trkpt lat="43.63395" lon="7.05265">
        <ele>101.19999694824</ele>
        <time>2011-04-06T11:21:02.000Z</time>
      </trkpt>
      <trkpt lat="43.63395" lon="7.05267">
        <ele>101.19999694824</ele>
        <time>2011-04-06T11:21:03.000Z</time>
      </trkpt>
      <trkpt lat="43.63392" lon="7.05283">
        <ele>101.40000152588</ele>
        <time>2011-04-06T11:21:10.000Z</time>
      </trkpt>
      <trkpt lat="43.63389" lon="7.05292">
        <ele>101.40000152588</ele>
        <time>2011-04-06T11:21:14.000Z</time>
      </trkpt>
      <trkpt lat="43.63388" lon="7.05296">
        <ele>101.40000152588</ele>
        <time>2011-04-06T11:21:16.000Z</time>
      </trkpt>
      <trkpt lat="43.63382" lon="7.05309">
        <ele>101.59999847412</ele>
        <time>2011-04-06T11:21:22.000Z</time>
      </trkpt>
      <trkpt lat="43.6338" lon="7.05314">
        <ele>101.59999847412</ele>
        <time>2011-04-06T11:21:24.000Z</time>
      </trkpt>
      <trkpt lat="43.63373" lon="7.05326">
        <ele>101.59999847412</ele>
        <time>2011-04-06T11:21:30.000Z</time>
      </trkpt>
      <trkpt lat="43.63368" lon="7.05333">
        <ele>101.40000152588</ele>
        <time>2011-04-06T11:21:34.000Z</time>
      </trkpt>
      <trkpt lat="43.63365" lon="7.05336">
        <ele>101.59999847412</ele>
        <time>2011-04-06T11:21:36.000Z</time>
      </trkpt>
      <trkpt lat="43.63354" lon="7.05345">
        <ele>101.40000152588</ele>
        <time>2011-04-06T11:21:43.000Z</time>
      </trkpt>
      <trkpt lat="43.63352" lon="7.05345">
        <ele>101.40000152588</ele>
        <time>2011-04-06T11:21:44.000Z</time>
      </trkpt>
      <trkpt lat="43.6334" lon="7.0534">
        <ele>101.59999847412</ele>
        <time>2011-04-06T11:21:51.000Z</time>
      </trkpt>
      <trkpt lat="43.63336" lon="7.05334">
        <ele>101.80000305176</ele>
        <time>2011-04-06T11:21:54.000Z</time>
      </trkpt>
      <trkpt lat="43.63333" lon="7.05329">
        <ele>102.19999694824</ele>
        <time>2011-04-06T11:21:57.000Z</time>
      </trkpt>
      <trkpt lat="43.63324" lon="7.05327">
        <ele>102.59999847412</ele>
        <time>2011-04-06T11:22:02.000Z</time>
      </trkpt>
      <trkpt lat="43.6332" lon="7.05324">
        <ele>103</ele>
        <time>2011-04-06T11:22:04.000Z</time>
      </trkpt>
      <trkpt lat="43.63316" lon="7.0532">
        <ele>103.40000152588</ele>
        <time>2011-04-06T11:22:06.000Z</time>
      </trkpt>
      <trkpt lat="43.63315" lon="7.05315">
        <ele>103.59999847412</ele>
        <time>2011-04-06T11:22:07.000Z</time>
      </trkpt>
      <trkpt lat="43.63311" lon="7.05299">
        <ele>104.40000152588</ele>
        <time>2011-04-06T11:22:11.000Z</time>
      </trkpt>
      <trkpt lat="43.63309" lon="7.05295">
        <ele>104.80000305176</ele>
        <time>2011-04-06T11:22:12.000Z</time>
      </trkpt>
      <trkpt lat="43.63302" lon="7.05282">
        <ele>105.59999847412</ele>
        <time>2011-04-06T11:22:16.000Z</time>
      </trkpt>
      <trkpt lat="43.633" lon="7.05281">
        <ele>105.80000305176</ele>
        <time>2011-04-06T11:22:17.000Z</time>
      </trkpt>
      <trkpt lat="43.63297" lon="7.05281">
        <ele>106</ele>
        <time>2011-04-06T11:22:19.000Z</time>
      </trkpt>
      <trkpt lat="43.63295" lon="7.05284">
        <ele>106</ele>
        <time>2011-04-06T11:22:21.000Z</time>
      </trkpt>
      <trkpt lat="43.63292" lon="7.05299">
        <ele>105.59999847412</ele>
        <time>2011-04-06T11:22:26.000Z</time>
      </trkpt>
      <trkpt lat="43.63291" lon="7.05302">
        <ele>105.59999847412</ele>
        <time>2011-04-06T11:22:27.000Z</time>
      </trkpt>
      <trkpt lat="43.6329" lon="7.05305">
        <ele>105.59999847412</ele>
        <time>2011-04-06T11:22:28.000Z</time>
      </trkpt>
      <trkpt lat="43.63287" lon="7.05316">
        <ele>105.19999694824</ele>
        <time>2011-04-06T11:22:33.000Z</time>
      </trkpt>
      <trkpt lat="43.63285" lon="7.05326">
        <ele>105</ele>
        <time>2011-04-06T11:22:37.000Z</time>
      </trkpt>
      <trkpt lat="43.63284" lon="7.05328">
        <ele>105</ele>
        <time>2011-04-06T11:22:38.000Z</time>
      </trkpt>
      <trkpt lat="43.63281" lon="7.05343">
        <ele>104</ele>
        <time>2011-04-06T11:22:44.000Z</time>
      </trkpt>
      <trkpt lat="43.63275" lon="7.05351">
        <ele>103.59999847412</ele>
        <time>2011-04-06T11:22:48.000Z</time>
      </trkpt>
      <trkpt lat="43.63272" lon="7.05356">
        <ele>103.19999694824</ele>
        <time>2011-04-06T11:22:50.000Z</time>
      </trkpt>
      <trkpt lat="43.63262" lon="7.05367">
        <ele>102.40000152588</ele>
        <time>2011-04-06T11:22:55.000Z</time>
      </trkpt>
      <trkpt lat="43.6326" lon="7.05369">
        <ele>102.40000152588</ele>
        <time>2011-04-06T11:22:56.000Z</time>
      </trkpt>
      <trkpt lat="43.63247" lon="7.05379">
        <ele>102.19999694824</ele>
        <time>2011-04-06T11:23:01.000Z</time>
      </trkpt>
      <trkpt lat="43.63234" lon="7.0539">
        <ele>104</ele>
        <time>2011-04-06T11:23:06.000Z</time>
      </trkpt>
      <trkpt lat="43.63232" lon="7.05393">
        <ele>104</ele>
        <time>2011-04-06T11:23:07.000Z</time>
      </trkpt>
      <trkpt lat="43.63226" lon="7.05397">
        <ele>104.80000305176</ele>
        <time>2011-04-06T11:23:10.000Z</time>
      </trkpt>
      <trkpt lat="43.63221" lon="7.05397">
        <ele>106.19999694824</ele>
        <time>2011-04-06T11:23:15.000Z</time>
      </trkpt>
      <trkpt lat="43.63219" lon="7.05395">
        <ele>107</ele>
        <time>2011-04-06T11:23:23.000Z</time>
      </trkpt>
      <trkpt lat="43.63218" lon="7.05394">
        <ele>107.40000152588</ele>
        <time>2011-04-06T11:23:30.000Z</time>
      </trkpt>
      <trkpt lat="43.63219" lon="7.05392">
        <ele>107.40000152588</ele>
        <time>2011-04-06T11:23:46.000Z</time>
      </trkpt>
      <trkpt lat="43.6322" lon="7.05389">
        <ele>107.59999847412</ele>
        <time>2011-04-06T11:23:48.000Z</time>
      </trkpt>
      <trkpt lat="43.63224" lon="7.05381">
        <ele>107.80000305176</ele>
        <time>2011-04-06T11:23:54.000Z</time>
      </trkpt>
      <trkpt lat="43.63226" lon="7.05373">
        <ele>108.19999694824</ele>
        <time>2011-04-06T11:23:59.000Z</time>
      </trkpt>
      <trkpt lat="43.63227" lon="7.0537">
        <ele>108.40000152588</ele>
        <time>2011-04-06T11:24:01.000Z</time>
      </trkpt>
      <trkpt lat="43.63227" lon="7.05368">
        <ele>108.59999847412</ele>
        <time>2011-04-06T11:24:02.000Z</time>
      </trkpt>
      <trkpt lat="43.63231" lon="7.05359">
        <ele>109</ele>
        <time>2011-04-06T11:24:07.000Z</time>
      </trkpt>
      <trkpt lat="43.63232" lon="7.05354">
        <ele>109.19999694824</ele>
        <time>2011-04-06T11:24:09.000Z</time>
      </trkpt>
      <trkpt lat="43.63233" lon="7.05346">
        <ele>109.80000305176</ele>
        <time>2011-04-06T11:24:12.000Z</time>
      </trkpt>
      <trkpt lat="43.63236" lon="7.05341">
        <ele>109.80000305176</ele>
        <time>2011-04-06T11:24:15.000Z</time>
      </trkpt>
      <trkpt lat="43.63239" lon="7.05335">
        <ele>109.80000305176</ele>
        <time>2011-04-06T11:24:19.000Z</time>
      </trkpt>
      <trkpt lat="43.63238" lon="7.0533">
        <ele>110.19999694824</ele>
        <time>2011-04-06T11:24:22.000Z</time>
      </trkpt>
      <trkpt lat="43.63238" lon="7.05325">
        <ele>110.59999847412</ele>
        <time>2011-04-06T11:24:25.000Z</time>
      </trkpt>
      <trkpt lat="43.63238" lon="7.05323">
        <ele>110.59999847412</ele>
        <time>2011-04-06T11:24:26.000Z</time>
      </trkpt>
      <trkpt lat="43.63238" lon="7.05317">
        <ele>110.80000305176</ele>
        <time>2011-04-06T11:24:29.000Z</time>
      </trkpt>
      <trkpt lat="43.63235" lon="7.05308">
        <ele>112.19999694824</ele>
        <time>2011-04-06T11:24:35.000Z</time>
      </trkpt>
      <trkpt lat="43.6323" lon="7.05301">
        <ele>113.80000305176</ele>
        <time>2011-04-06T11:24:40.000Z</time>
      </trkpt>
      <trkpt lat="43.63228" lon="7.05296">
        <ele>114.59999847412</ele>
        <time>2011-04-06T11:24:43.000Z</time>
      </trkpt>
      <trkpt lat="43.63222" lon="7.05289">
        <ele>116.59999847412</ele>
        <time>2011-04-06T11:24:48.000Z</time>
      </trkpt>
      <trkpt lat="43.6322" lon="7.05288">
        <ele>117.19999694824</ele>
        <time>2011-04-06T11:24:50.000Z</time>
      </trkpt>
      <trkpt lat="43.63216" lon="7.05288">
        <ele>118.40000152588</ele>
        <time>2011-04-06T11:24:53.000Z</time>
      </trkpt>
      <trkpt lat="43.63215" lon="7.05287">
        <ele>118.80000305176</ele>
        <time>2011-04-06T11:24:54.000Z</time>
      </trkpt>
      <trkpt lat="43.63211" lon="7.05285">
        <ele>120</ele>
        <time>2011-04-06T11:24:57.000Z</time>
      </trkpt>
      <trkpt lat="43.63203" lon="7.05278">
        <ele>122.59999847412</ele>
        <time>2011-04-06T11:25:04.000Z</time>
      </trkpt>
      <trkpt lat="43.63201" lon="7.05272">
        <ele>123.40000152588</ele>
        <time>2011-04-06T11:25:07.000Z</time>
      </trkpt>
      <trkpt lat="43.63201" lon="7.05267">
        <ele>123.80000305176</ele>
        <time>2011-04-06T11:25:10.000Z</time>
      </trkpt>
      <trkpt lat="43.632" lon="7.05265">
        <ele>124.19999694824</ele>
        <time>2011-04-06T11:25:11.000Z</time>
      </trkpt>
      <trkpt lat="43.63196" lon="7.05258">
        <ele>125.80000305176</ele>
        <time>2011-04-06T11:25:16.000Z</time>
      </trkpt>
      <trkpt lat="43.63192" lon="7.05251">
        <ele>127.40000152588</ele>
        <time>2011-04-06T11:25:21.000Z</time>
      </trkpt>
      <trkpt lat="43.6319" lon="7.05247">
        <ele>128</ele>
        <time>2011-04-06T11:25:23.000Z</time>
      </trkpt>
      <trkpt lat="43.6319" lon="7.05245">
        <ele>128.19999694824</ele>
        <time>2011-04-06T11:25:24.000Z</time>
      </trkpt>
      <trkpt lat="43.63187" lon="7.05239">
        <ele>129.19999694824</ele>
        <time>2011-04-06T11:25:28.000Z</time>
      </trkpt>
      <trkpt lat="43.63188" lon="7.05226">
        <ele>129.60000610352</ele>
        <time>2011-04-06T11:25:34.000Z</time>
      </trkpt>
      <trkpt lat="43.6319" lon="7.05213">
        <ele>129.60000610352</ele>
        <time>2011-04-06T11:25:39.000Z</time>
      </trkpt>
      <trkpt lat="43.6319" lon="7.052">
        <ele>130</ele>
        <time>2011-04-06T11:25:43.000Z</time>
      </trkpt>
      <trkpt lat="43.63191" lon="7.05197">
        <ele>130</ele>
        <time>2011-04-06T11:25:44.000Z</time>
      </trkpt>
      <trkpt lat="43.63191" lon="7.0518">
        <ele>130.80000305176</ele>
        <time>2011-04-06T11:25:51.000Z</time>
      </trkpt>
      <trkpt lat="43.63191" lon="7.05173">
        <ele>131.19999694824</ele>
        <time>2011-04-06T11:25:54.000Z</time>
      </trkpt>
      <trkpt lat="43.63192" lon="7.05165">
        <ele>131</ele>
        <time>2011-04-06T11:25:57.000Z</time>
      </trkpt>
      <trkpt lat="43.63198" lon="7.05149">
        <ele>129.60000610352</ele>
        <time>2011-04-06T11:26:02.000Z</time>
      </trkpt>
      <trkpt lat="43.63198" lon="7.05146">
        <ele>129.39999389648</ele>
        <time>2011-04-06T11:26:03.000Z</time>
      </trkpt>
      <trkpt lat="43.63204" lon="7.05131">
        <ele>128.19999694824</ele>
        <time>2011-04-06T11:26:09.000Z</time>
      </trkpt>
      <trkpt lat="43.63204" lon="7.05125">
        <ele>128.19999694824</ele>
        <time>2011-04-06T11:26:11.000Z</time>
      </trkpt>
      <trkpt lat="43.63206" lon="7.05112">
        <ele>128</ele>
        <time>2011-04-06T11:26:15.000Z</time>
      </trkpt>
      <trkpt lat="43.63209" lon="7.05099">
        <ele>127.19999694824</ele>
        <time>2011-04-06T11:26:20.000Z</time>
      </trkpt>
      <trkpt lat="43.63209" lon="7.05096">
        <ele>127.40000152588</ele>
        <time>2011-04-06T11:26:21.000Z</time>
      </trkpt>
      <trkpt lat="43.63209" lon="7.05078">
        <ele>127.80000305176</ele>
        <time>2011-04-06T11:26:29.000Z</time>
      </trkpt>
      <trkpt lat="43.63208" lon="7.05073">
        <ele>128</ele>
        <time>2011-04-06T11:26:32.000Z</time>
      </trkpt>
      <trkpt lat="43.63207" lon="7.05062">
        <ele>128.39999389648</ele>
        <time>2011-04-06T11:26:37.000Z</time>
      </trkpt>
      <trkpt lat="43.63202" lon="7.05051">
        <ele>129.39999389648</ele>
        <time>2011-04-06T11:26:42.000Z</time>
      </trkpt>
      <trkpt lat="43.63199" lon="7.05047">
        <ele>130</ele>
        <time>2011-04-06T11:26:44.000Z</time>
      </trkpt>
      <trkpt lat="43.63191" lon="7.0503">
        <ele>131.39999389648</ele>
        <time>2011-04-06T11:26:51.000Z</time>
      </trkpt>
      <trkpt lat="43.63187" lon="7.05021">
        <ele>132</ele>
        <time>2011-04-06T11:26:54.000Z</time>
      </trkpt>
      <trkpt lat="43.63187" lon="7.05015">
        <ele>132</ele>
        <time>2011-04-06T11:26:56.000Z</time>
      </trkpt>
      <trkpt lat="43.63188" lon="7.0501">
        <ele>131.80000305176</ele>
        <time>2011-04-06T11:26:58.000Z</time>
      </trkpt>
      <trkpt lat="43.63188" lon="7.05005">
        <ele>131.60000610352</ele>
        <time>2011-04-06T11:27:00.000Z</time>
      </trkpt>
      <trkpt lat="43.6319" lon="7.04998">
        <ele>131.39999389648</ele>
        <time>2011-04-06T11:27:03.000Z</time>
      </trkpt>
      <trkpt lat="43.6319" lon="7.04996">
        <ele>131.60000610352</ele>
        <time>2011-04-06T11:27:04.000Z</time>
      </trkpt>
      <trkpt lat="43.63192" lon="7.04985">
        <ele>132</ele>
        <time>2011-04-06T11:27:09.000Z</time>
      </trkpt>
      <trkpt lat="43.63192" lon="7.04981">
        <ele>132.39999389648</ele>
        <time>2011-04-06T11:27:11.000Z</time>
      </trkpt>
      <trkpt lat="43.63191" lon="7.04974">
        <ele>133</ele>
        <time>2011-04-06T11:27:15.000Z</time>
      </trkpt>
      <trkpt lat="43.63191" lon="7.04971">
        <ele>133.39999389648</ele>
        <time>2011-04-06T11:27:20.000Z</time>
      </trkpt>
      <trkpt lat="43.63186" lon="7.04964">
        <ele>134.60000610352</ele>
        <time>2011-04-06T11:27:28.000Z</time>
      </trkpt>
      <trkpt lat="43.63183" lon="7.0496">
        <ele>135.39999389648</ele>
        <time>2011-04-06T11:27:32.000Z</time>
      </trkpt>
      <trkpt lat="43.63181" lon="7.04955">
        <ele>136.19999694824</ele>
        <time>2011-04-06T11:27:37.000Z</time>
      </trkpt>
      <trkpt lat="43.6318" lon="7.04955">
        <ele>136.19999694824</ele>
        <time>2011-04-06T11:27:38.000Z</time>
      </trkpt>
      <trkpt lat="43.63175" lon="7.04956">
        <ele>137.19999694824</ele>
        <time>2011-04-06T11:27:43.000Z</time>
      </trkpt>
      <trkpt lat="43.63169" lon="7.04956">
        <ele>138.19999694824</ele>
        <time>2011-04-06T11:27:51.000Z</time>
      </trkpt>
      <trkpt lat="43.63167" lon="7.04956">
        <ele>138.60000610352</ele>
        <time>2011-04-06T11:27:53.000Z</time>
      </trkpt>
      <trkpt lat="43.63162" lon="7.04954">
        <ele>140.19999694824</ele>
        <time>2011-04-06T11:27:59.000Z</time>
      </trkpt>
      <trkpt lat="43.63159" lon="7.04953">
        <ele>141.19999694824</ele>
        <time>2011-04-06T11:28:03.000Z</time>
      </trkpt>
      <trkpt lat="43.63158" lon="7.0495">
        <ele>141.60000610352</ele>
        <time>2011-04-06T11:28:07.000Z</time>
      </trkpt>
      <trkpt lat="43.63155" lon="7.04947">
        <ele>142.60000610352</ele>
        <time>2011-04-06T11:28:12.000Z</time>
      </trkpt>
      <trkpt lat="43.63153" lon="7.04943">
        <ele>143.60000610352</ele>
        <time>2011-04-06T11:28:19.000Z</time>
      </trkpt>
      <trkpt lat="43.63152" lon="7.04942">
        <ele>143.80000305176</ele>
        <time>2011-04-06T11:28:21.000Z</time>
      </trkpt>
      <trkpt lat="43.6315" lon="7.04941">
        <ele>144.60000610352</ele>
        <time>2011-04-06T11:28:25.000Z</time>
      </trkpt>
      <trkpt lat="43.63149" lon="7.04938">
        <ele>145</ele>
        <time>2011-04-06T11:28:34.000Z</time>
      </trkpt>
      <trkpt lat="43.63147" lon="7.04931">
        <ele>146.19999694824</ele>
        <time>2011-04-06T11:28:39.000Z</time>
      </trkpt>
      <trkpt lat="43.63144" lon="7.04921">
        <ele>147.60000610352</ele>
        <time>2011-04-06T11:28:45.000Z</time>
      </trkpt>
      <trkpt lat="43.63141" lon="7.04911">
        <ele>148.60000610352</ele>
        <time>2011-04-06T11:28:51.000Z</time>
      </trkpt>
      <trkpt lat="43.63138" lon="7.049">
        <ele>149.39999389648</ele>
        <time>2011-04-06T11:28:58.000Z</time>
      </trkpt>
      <trkpt lat="43.63137" lon="7.04897">
        <ele>149.60000610352</ele>
        <time>2011-04-06T11:29:00.000Z</time>
      </trkpt>
      <trkpt lat="43.63134" lon="7.04889">
        <ele>150.60000610352</ele>
        <time>2011-04-06T11:29:05.000Z</time>
      </trkpt>
      <trkpt lat="43.6313" lon="7.04874">
        <ele>151.19999694824</ele>
        <time>2011-04-06T11:29:12.000Z</time>
      </trkpt>
      <trkpt lat="43.6313" lon="7.04872">
        <ele>151.39999389648</ele>
        <time>2011-04-06T11:29:13.000Z</time>
      </trkpt>
      <trkpt lat="43.63127" lon="7.04854">
        <ele>152</ele>
        <time>2011-04-06T11:29:21.000Z</time>
      </trkpt>
      <trkpt lat="43.63125" lon="7.04849">
        <ele>152.39999389648</ele>
        <time>2011-04-06T11:29:23.000Z</time>
      </trkpt>
      <trkpt lat="43.63118" lon="7.04834">
        <ele>154.19999694824</ele>
        <time>2011-04-06T11:29:29.000Z</time>
      </trkpt>
      <trkpt lat="43.63115" lon="7.04828">
        <ele>154.80000305176</ele>
        <time>2011-04-06T11:29:32.000Z</time>
      </trkpt>
      <trkpt lat="43.63114" lon="7.04819">
        <ele>155</ele>
        <time>2011-04-06T11:29:35.000Z</time>
      </trkpt>
      <trkpt lat="43.63112" lon="7.04809">
        <ele>155</ele>
        <time>2011-04-06T11:29:38.000Z</time>
      </trkpt>
      <trkpt lat="43.6311" lon="7.04804">
        <ele>155.60000610352</ele>
        <time>2011-04-06T11:29:40.000Z</time>
      </trkpt>
      <trkpt lat="43.63101" lon="7.04797">
        <ele>157.80000305176</ele>
        <time>2011-04-06T11:29:47.000Z</time>
      </trkpt>
      <trkpt lat="43.63094" lon="7.04789">
        <ele>159.39999389648</ele>
        <time>2011-04-06T11:29:52.000Z</time>
      </trkpt>
      <trkpt lat="43.63092" lon="7.04785">
        <ele>159.60000610352</ele>
        <time>2011-04-06T11:29:53.000Z</time>
      </trkpt>
      <trkpt lat="43.6309" lon="7.04778">
        <ele>160</ele>
        <time>2011-04-06T11:29:56.000Z</time>
      </trkpt>
      <trkpt lat="43.63087" lon="7.04775">
        <ele>160.80000305176</ele>
        <time>2011-04-06T11:29:58.000Z</time>
      </trkpt>
      <trkpt lat="43.63082" lon="7.04767">
        <ele>161.60000610352</ele>
        <time>2011-04-06T11:30:01.000Z</time>
      </trkpt>
      <trkpt lat="43.63082" lon="7.04764">
        <ele>161.39999389648</ele>
        <time>2011-04-06T11:30:02.000Z</time>
      </trkpt>
      <trkpt lat="43.63082" lon="7.0476">
        <ele>161.39999389648</ele>
        <time>2011-04-06T11:30:03.000Z</time>
      </trkpt>
      <trkpt lat="43.63082" lon="7.04744">
        <ele>161</ele>
        <time>2011-04-06T11:30:07.000Z</time>
      </trkpt>
      <trkpt lat="43.63082" lon="7.0474">
        <ele>160.80000305176</ele>
        <time>2011-04-06T11:30:08.000Z</time>
      </trkpt>
      <trkpt lat="43.6308" lon="7.04717">
        <ele>160.39999389648</ele>
        <time>2011-04-06T11:30:14.000Z</time>
      </trkpt>
      <trkpt lat="43.63079" lon="7.04714">
        <ele>160.60000610352</ele>
        <time>2011-04-06T11:30:15.000Z</time>
      </trkpt>
      <trkpt lat="43.63075" lon="7.047">
        <ele>160.80000305176</ele>
        <time>2011-04-06T11:30:19.000Z</time>
      </trkpt>
      <trkpt lat="43.63072" lon="7.0469">
        <ele>161</ele>
        <time>2011-04-06T11:30:22.000Z</time>
      </trkpt>
      <trkpt lat="43.63067" lon="7.04681">
        <ele>161.60000610352</ele>
        <time>2011-04-06T11:30:25.000Z</time>
      </trkpt>
      <trkpt lat="43.63059" lon="7.04669">
        <ele>162.80000305176</ele>
        <time>2011-04-06T11:30:30.000Z</time>
      </trkpt>
      <trkpt lat="43.63057" lon="7.04667">
        <ele>163</ele>
        <time>2011-04-06T11:30:31.000Z</time>
      </trkpt>
      <trkpt lat="43.63047" lon="7.04657">
        <ele>165</ele>
        <time>2011-04-06T11:30:39.000Z</time>
      </trkpt>
      <trkpt lat="43.63042" lon="7.04654">
        <ele>165.80000305176</ele>
        <time>2011-04-06T11:30:42.000Z</time>
      </trkpt>
      <trkpt lat="43.63036" lon="7.0465">
        <ele>167</ele>
        <time>2011-04-06T11:30:47.000Z</time>
      </trkpt>
      <trkpt lat="43.63025" lon="7.04646">
        <ele>168.80000305176</ele>
        <time>2011-04-06T11:30:55.000Z</time>
      </trkpt>
      <trkpt lat="43.63023" lon="7.04646">
        <ele>169</ele>
        <time>2011-04-06T11:30:56.000Z</time>
      </trkpt>
      <trkpt lat="43.63013" lon="7.04635">
        <ele>170.60000610352</ele>
        <time>2011-04-06T11:31:04.000Z</time>
      </trkpt>
      <trkpt lat="43.63009" lon="7.04631">
        <ele>171.19999694824</ele>
        <time>2011-04-06T11:31:07.000Z</time>
      </trkpt>
      <trkpt lat="43.63003" lon="7.04621">
        <ele>171.80000305176</ele>
        <time>2011-04-06T11:31:12.000Z</time>
      </trkpt>
      <trkpt lat="43.62996" lon="7.04612">
        <ele>172.39999389648</ele>
        <time>2011-04-06T11:31:17.000Z</time>
      </trkpt>
      <trkpt lat="43.62992" lon="7.04605">
        <ele>172.60000610352</ele>
        <time>2011-04-06T11:31:20.000Z</time>
      </trkpt>
      <trkpt lat="43.62984" lon="7.04591">
        <ele>173.19999694824</ele>
        <time>2011-04-06T11:31:26.000Z</time>
      </trkpt>
      <trkpt lat="43.62981" lon="7.04587">
        <ele>173.39999389648</ele>
        <time>2011-04-06T11:31:28.000Z</time>
      </trkpt>
      <trkpt lat="43.6297" lon="7.04579">
        <ele>174.60000610352</ele>
        <time>2011-04-06T11:31:35.000Z</time>
      </trkpt>
      <trkpt lat="43.62968" lon="7.04578">
        <ele>175</ele>
        <time>2011-04-06T11:31:36.000Z</time>
      </trkpt>
      <trkpt lat="43.6296" lon="7.04575">
        <ele>175.80000305176</ele>
        <time>2011-04-06T11:31:41.000Z</time>
      </trkpt>
      <trkpt lat="43.62959" lon="7.04576">
        <ele>176</ele>
        <time>2011-04-06T11:31:43.000Z</time>
      </trkpt>
      <trkpt lat="43.62956" lon="7.04578">
        <ele>176.19999694824</ele>
        <time>2011-04-06T11:31:46.000Z</time>
      </trkpt>
      <trkpt lat="43.62956" lon="7.04579">
        <ele>176.19999694824</ele>
        <time>2011-04-06T11:31:47.000Z</time>
      </trkpt>
      <trkpt lat="43.62956" lon="7.04582">
        <ele>176.19999694824</ele>
        <time>2011-04-06T11:31:51.000Z</time>
      </trkpt>
      <trkpt lat="43.62958" lon="7.04586">
        <ele>176</ele>
        <time>2011-04-06T11:31:56.000Z</time>
      </trkpt>
      <trkpt lat="43.62966" lon="7.04595">
        <ele>175.60000610352</ele>
        <time>2011-04-06T11:32:01.000Z</time>
      </trkpt>
      <trkpt lat="43.62974" lon="7.04603">
        <ele>175</ele>
        <time>2011-04-06T11:32:04.000Z</time>
      </trkpt>
      <trkpt lat="43.62976" lon="7.04606">
        <ele>174.80000305176</ele>
        <time>2011-04-06T11:32:05.000Z</time>
      </trkpt>
      <trkpt lat="43.62987" lon="7.04621">
        <ele>174</ele>
        <time>2011-04-06T11:32:09.000Z</time>
      </trkpt>
      <trkpt lat="43.62992" lon="7.0463">
        <ele>173.60000610352</ele>
        <time>2011-04-06T11:32:11.000Z</time>
      </trkpt>
      <trkpt lat="43.62998" lon="7.0464">
        <ele>173.19999694824</ele>
        <time>2011-04-06T11:32:13.000Z</time>
      </trkpt>
      <trkpt lat="43.63003" lon="7.04651">
        <ele>172.80000305176</ele>
        <time>2011-04-06T11:32:15.000Z</time>
      </trkpt>
      <trkpt lat="43.63008" lon="7.04663">
        <ele>172.19999694824</ele>
        <time>2011-04-06T11:32:17.000Z</time>
      </trkpt>
      <trkpt lat="43.63014" lon="7.04676">
        <ele>171.80000305176</ele>
        <time>2011-04-06T11:32:19.000Z</time>
      </trkpt>
      <trkpt lat="43.63018" lon="7.04691">
        <ele>171.80000305176</ele>
        <time>2011-04-06T11:32:21.000Z</time>
      </trkpt>
      <trkpt lat="43.63022" lon="7.04705">
        <ele>171.60000610352</ele>
        <time>2011-04-06T11:32:23.000Z</time>
      </trkpt>
      <trkpt lat="43.63026" lon="7.0472">
        <ele>171.80000305176</ele>
        <time>2011-04-06T11:32:25.000Z</time>
      </trkpt>
      <trkpt lat="43.63029" lon="7.04743">
        <ele>172.19999694824</ele>
        <time>2011-04-06T11:32:28.000Z</time>
      </trkpt>
      <trkpt lat="43.6303" lon="7.04751">
        <ele>172.39999389648</ele>
        <time>2011-04-06T11:32:29.000Z</time>
      </trkpt>
      <trkpt lat="43.63032" lon="7.04776">
        <ele>172.19999694824</ele>
        <time>2011-04-06T11:32:32.000Z</time>
      </trkpt>
      <trkpt lat="43.63032" lon="7.04785">
        <ele>172.19999694824</ele>
        <time>2011-04-06T11:32:33.000Z</time>
      </trkpt>
      <trkpt lat="43.63032" lon="7.04802">
        <ele>172</ele>
        <time>2011-04-06T11:32:35.000Z</time>
      </trkpt>
      <trkpt lat="43.63038" lon="7.04828">
        <ele>171.19999694824</ele>
        <time>2011-04-06T11:32:38.000Z</time>
      </trkpt>
      <trkpt lat="43.63048" lon="7.04851">
        <ele>169.60000610352</ele>
        <time>2011-04-06T11:32:41.000Z</time>
      </trkpt>
      <trkpt lat="43.6305" lon="7.04858">
        <ele>169.19999694824</ele>
        <time>2011-04-06T11:32:42.000Z</time>
      </trkpt>
      <trkpt lat="43.63053" lon="7.04877">
        <ele>169</ele>
        <time>2011-04-06T11:32:45.000Z</time>
      </trkpt>
      <trkpt lat="43.63049" lon="7.04894">
        <ele>169.80000305176</ele>
        <time>2011-04-06T11:32:48.000Z</time>
      </trkpt>
      <trkpt lat="43.63047" lon="7.04899">
        <ele>170.19999694824</ele>
        <time>2011-04-06T11:32:49.000Z</time>
      </trkpt>
      <trkpt lat="43.63045" lon="7.04903">
        <ele>170.60000610352</ele>
        <time>2011-04-06T11:32:50.000Z</time>
      </trkpt>
      <trkpt lat="43.63034" lon="7.04926">
        <ele>172.80000305176</ele>
        <time>2011-04-06T11:32:55.000Z</time>
      </trkpt>
      <trkpt lat="43.63025" lon="7.04943">
        <ele>174.19999694824</ele>
        <time>2011-04-06T11:32:59.000Z</time>
      </trkpt>
      <trkpt lat="43.63023" lon="7.04948">
        <ele>174.60000610352</ele>
        <time>2011-04-06T11:33:00.000Z</time>
      </trkpt>
      <trkpt lat="43.63016" lon="7.04975">
        <ele>176</ele>
        <time>2011-04-06T11:33:05.000Z</time>
      </trkpt>
      <trkpt lat="43.63009" lon="7.05001">
        <ele>177.19999694824</ele>
        <time>2011-04-06T11:33:10.000Z</time>
      </trkpt>
      <trkpt lat="43.63005" lon="7.0501">
        <ele>178</ele>
        <time>2011-04-06T11:33:12.000Z</time>
      </trkpt>
      <trkpt lat="43.63" lon="7.05024">
        <ele>179.19999694824</ele>
        <time>2011-04-06T11:33:15.000Z</time>
      </trkpt>
      <trkpt lat="43.62995" lon="7.05041">
        <ele>179.60000610352</ele>
        <time>2011-04-06T11:33:19.000Z</time>
      </trkpt>
      <trkpt lat="43.62995" lon="7.0505">
        <ele>179.60000610352</ele>
        <time>2011-04-06T11:33:21.000Z</time>
      </trkpt>
      <trkpt lat="43.62996" lon="7.05068">
        <ele>179.80000305176</ele>
        <time>2011-04-06T11:33:25.000Z</time>
      </trkpt>
      <trkpt lat="43.62996" lon="7.05077">
        <ele>179.80000305176</ele>
        <time>2011-04-06T11:33:27.000Z</time>
      </trkpt>
      <trkpt lat="43.62991" lon="7.05095">
        <ele>180.19999694824</ele>
        <time>2011-04-06T11:33:31.000Z</time>
      </trkpt>
      <trkpt lat="43.6299" lon="7.051">
        <ele>180.39999389648</ele>
        <time>2011-04-06T11:33:32.000Z</time>
      </trkpt>
      <trkpt lat="43.62985" lon="7.05128">
        <ele>181.39999389648</ele>
        <time>2011-04-06T11:33:38.000Z</time>
      </trkpt>
      <trkpt lat="43.62985" lon="7.05132">
        <ele>181.60000610352</ele>
        <time>2011-04-06T11:33:39.000Z</time>
      </trkpt>
      <trkpt lat="43.62986" lon="7.05155">
        <ele>182.60000610352</ele>
        <time>2011-04-06T11:33:45.000Z</time>
      </trkpt>
      <trkpt lat="43.62986" lon="7.05158">
        <ele>182.80000305176</ele>
        <time>2011-04-06T11:33:46.000Z</time>
      </trkpt>
      <trkpt lat="43.62991" lon="7.05181">
        <ele>183.80000305176</ele>
        <time>2011-04-06T11:33:53.000Z</time>
      </trkpt>
      <trkpt lat="43.62993" lon="7.05184">
        <ele>184</ele>
        <time>2011-04-06T11:33:54.000Z</time>
      </trkpt>
      <trkpt lat="43.63002" lon="7.05204">
        <ele>184.80000305176</ele>
        <time>2011-04-06T11:34:01.000Z</time>
      </trkpt>
      <trkpt lat="43.63003" lon="7.0521">
        <ele>184.60000610352</ele>
        <time>2011-04-06T11:34:03.000Z</time>
      </trkpt>
      <trkpt lat="43.63007" lon="7.05229">
        <ele>184.39999389648</ele>
        <time>2011-04-06T11:34:09.000Z</time>
      </trkpt>
      <trkpt lat="43.63008" lon="7.05234">
        <ele>184.39999389648</ele>
        <time>2011-04-06T11:34:10.000Z</time>
      </trkpt>
      <trkpt lat="43.63014" lon="7.05252">
        <ele>183.39999389648</ele>
        <time>2011-04-06T11:34:14.000Z</time>
      </trkpt>
      <trkpt lat="43.63015" lon="7.05256">
        <ele>183</ele>
        <time>2011-04-06T11:34:15.000Z</time>
      </trkpt>
      <trkpt lat="43.63017" lon="7.05276">
        <ele>181.60000610352</ele>
        <time>2011-04-06T11:34:18.000Z</time>
      </trkpt>
      <trkpt lat="43.6301" lon="7.05307">
        <ele>182</ele>
        <time>2011-04-06T11:34:22.000Z</time>
      </trkpt>
      <trkpt lat="43.63007" lon="7.05315">
        <ele>182.19999694824</ele>
        <time>2011-04-06T11:34:23.000Z</time>
      </trkpt>
      <trkpt lat="43.63" lon="7.05331">
        <ele>183</ele>
        <time>2011-04-06T11:34:25.000Z</time>
      </trkpt>
      <trkpt lat="43.62992" lon="7.05349">
        <ele>181.39999389648</ele>
        <time>2011-04-06T11:34:27.000Z</time>
      </trkpt>
      <trkpt lat="43.62988" lon="7.05358">
        <ele>180.60000610352</ele>
        <time>2011-04-06T11:34:28.000Z</time>
      </trkpt>
      <trkpt lat="43.62984" lon="7.05368">
        <ele>179.80000305176</ele>
        <time>2011-04-06T11:34:29.000Z</time>
      </trkpt>
      <trkpt lat="43.62978" lon="7.05389">
        <ele>178.60000610352</ele>
        <time>2011-04-06T11:34:31.000Z</time>
      </trkpt>
      <trkpt lat="43.62975" lon="7.054">
        <ele>178</ele>
        <time>2011-04-06T11:34:32.000Z</time>
      </trkpt>
      <trkpt lat="43.6297" lon="7.05421">
        <ele>177.19999694824</ele>
        <time>2011-04-06T11:34:34.000Z</time>
      </trkpt>
      <trkpt lat="43.62961" lon="7.05449">
        <ele>177.80000305176</ele>
        <time>2011-04-06T11:34:37.000Z</time>
      </trkpt>
      <trkpt lat="43.62949" lon="7.05477">
        <ele>178.39999389648</ele>
        <time>2011-04-06T11:34:41.000Z</time>
      </trkpt>
      <trkpt lat="43.62945" lon="7.05483">
        <ele>178.60000610352</ele>
        <time>2011-04-06T11:34:42.000Z</time>
      </trkpt>
      <trkpt lat="43.62933" lon="7.05501">
        <ele>179.19999694824</ele>
        <time>2011-04-06T11:34:45.000Z</time>
      </trkpt>
      <trkpt lat="43.62924" lon="7.0551">
        <ele>179.19999694824</ele>
        <time>2011-04-06T11:34:47.000Z</time>
      </trkpt>
      <trkpt lat="43.62919" lon="7.05514">
        <ele>179.19999694824</ele>
        <time>2011-04-06T11:34:48.000Z</time>
      </trkpt>
      <trkpt lat="43.62914" lon="7.05519">
        <ele>178.60000610352</ele>
        <time>2011-04-06T11:34:49.000Z</time>
      </trkpt>
      <trkpt lat="43.62908" lon="7.05531">
        <ele>177.39999389648</ele>
        <time>2011-04-06T11:34:51.000Z</time>
      </trkpt>
      <trkpt lat="43.62907" lon="7.05547">
        <ele>176.60000610352</ele>
        <time>2011-04-06T11:34:53.000Z</time>
      </trkpt>
      <trkpt lat="43.62907" lon="7.05555">
        <ele>176.19999694824</ele>
        <time>2011-04-06T11:34:54.000Z</time>
      </trkpt>
      <trkpt lat="43.62907" lon="7.05564">
        <ele>175.80000305176</ele>
        <time>2011-04-06T11:34:55.000Z</time>
      </trkpt>
      <trkpt lat="43.62906" lon="7.05572">
        <ele>175.39999389648</ele>
        <time>2011-04-06T11:34:56.000Z</time>
      </trkpt>
      <trkpt lat="43.62902" lon="7.05599">
        <ele>173.60000610352</ele>
        <time>2011-04-06T11:34:59.000Z</time>
      </trkpt>
      <trkpt lat="43.629" lon="7.05608">
        <ele>173</ele>
        <time>2011-04-06T11:35:00.000Z</time>
      </trkpt>
      <trkpt lat="43.62895" lon="7.05625">
        <ele>171.60000610352</ele>
        <time>2011-04-06T11:35:02.000Z</time>
      </trkpt>
      <trkpt lat="43.62891" lon="7.05644">
        <ele>170.39999389648</ele>
        <time>2011-04-06T11:35:04.000Z</time>
      </trkpt>
      <trkpt lat="43.62887" lon="7.05653">
        <ele>170</ele>
        <time>2011-04-06T11:35:05.000Z</time>
      </trkpt>
      <trkpt lat="43.62883" lon="7.05661">
        <ele>169.60000610352</ele>
        <time>2011-04-06T11:35:06.000Z</time>
      </trkpt>
      <trkpt lat="43.6288" lon="7.0567">
        <ele>169.19999694824</ele>
        <time>2011-04-06T11:35:07.000Z</time>
      </trkpt>
      <trkpt lat="43.62877" lon="7.0568">
        <ele>169.19999694824</ele>
        <time>2011-04-06T11:35:08.000Z</time>
      </trkpt>
      <trkpt lat="43.62866" lon="7.05705">
        <ele>169</ele>
        <time>2011-04-06T11:35:11.000Z</time>
      </trkpt>
      <trkpt lat="43.62861" lon="7.05709">
        <ele>169.19999694824</ele>
        <time>2011-04-06T11:35:12.000Z</time>
      </trkpt>
      <trkpt lat="43.62848" lon="7.05713">
        <ele>169.80000305176</ele>
        <time>2011-04-06T11:35:14.000Z</time>
      </trkpt>
      <trkpt lat="43.62841" lon="7.05715">
        <ele>170.19999694824</ele>
        <time>2011-04-06T11:35:15.000Z</time>
      </trkpt>
      <trkpt lat="43.62833" lon="7.05716">
        <ele>170.39999389648</ele>
        <time>2011-04-06T11:35:16.000Z</time>
      </trkpt>
      <trkpt lat="43.62825" lon="7.05719">
        <ele>169.80000305176</ele>
        <time>2011-04-06T11:35:17.000Z</time>
      </trkpt>
      <trkpt lat="43.62806" lon="7.05726">
        <ele>168.60000610352</ele>
        <time>2011-04-06T11:35:20.000Z</time>
      </trkpt>
      <trkpt lat="43.62795" lon="7.05732">
        <ele>168.19999694824</ele>
        <time>2011-04-06T11:35:22.000Z</time>
      </trkpt>
      <trkpt lat="43.62783" lon="7.05738">
        <ele>167.80000305176</ele>
        <time>2011-04-06T11:35:24.000Z</time>
      </trkpt>
      <trkpt lat="43.62762" lon="7.05751">
        <ele>167.60000610352</ele>
        <time>2011-04-06T11:35:28.000Z</time>
      </trkpt>
      <trkpt lat="43.62757" lon="7.05754">
        <ele>167.39999389648</ele>
        <time>2011-04-06T11:35:29.000Z</time>
      </trkpt>
      <trkpt lat="43.62743" lon="7.05755">
        <ele>166.39999389648</ele>
        <time>2011-04-06T11:35:32.000Z</time>
      </trkpt>
      <trkpt lat="43.62725" lon="7.05742">
        <ele>163.39999389648</ele>
        <time>2011-04-06T11:35:36.000Z</time>
      </trkpt>
      <trkpt lat="43.62707" lon="7.05734">
        <ele>160.60000610352</ele>
        <time>2011-04-06T11:35:39.000Z</time>
      </trkpt>
      <trkpt lat="43.62692" lon="7.05731">
        <ele>158.80000305176</ele>
        <time>2011-04-06T11:35:41.000Z</time>
      </trkpt>
      <trkpt lat="43.62684" lon="7.05732">
        <ele>158</ele>
        <time>2011-04-06T11:35:42.000Z</time>
      </trkpt>
      <trkpt lat="43.62676" lon="7.05735">
        <ele>157.39999389648</ele>
        <time>2011-04-06T11:35:43.000Z</time>
      </trkpt>
      <trkpt lat="43.6266" lon="7.0574">
        <ele>156.39999389648</ele>
        <time>2011-04-06T11:35:45.000Z</time>
      </trkpt>
      <trkpt lat="43.62653" lon="7.05744">
        <ele>156</ele>
        <time>2011-04-06T11:35:46.000Z</time>
      </trkpt>
      <trkpt lat="43.6264" lon="7.05755">
        <ele>155.60000610352</ele>
        <time>2011-04-06T11:35:48.000Z</time>
      </trkpt>
      <trkpt lat="43.62629" lon="7.05779">
        <ele>156.39999389648</ele>
        <time>2011-04-06T11:35:51.000Z</time>
      </trkpt>
      <trkpt lat="43.62614" lon="7.05798">
        <ele>156.39999389648</ele>
        <time>2011-04-06T11:35:54.000Z</time>
      </trkpt>
      <trkpt lat="43.62598" lon="7.05817">
        <ele>156.19999694824</ele>
        <time>2011-04-06T11:35:57.000Z</time>
      </trkpt>
      <trkpt lat="43.62592" lon="7.05822">
        <ele>156</ele>
        <time>2011-04-06T11:35:58.000Z</time>
      </trkpt>
      <trkpt lat="43.62579" lon="7.05831">
        <ele>155.39999389648</ele>
        <time>2011-04-06T11:36:00.000Z</time>
      </trkpt>
      <trkpt lat="43.62568" lon="7.05842">
        <ele>154.80000305176</ele>
        <time>2011-04-06T11:36:02.000Z</time>
      </trkpt>
      <trkpt lat="43.62563" lon="7.05849">
        <ele>154.39999389648</ele>
        <time>2011-04-06T11:36:03.000Z</time>
      </trkpt>
      <trkpt lat="43.62544" lon="7.05863">
        <ele>153.39999389648</ele>
        <time>2011-04-06T11:36:06.000Z</time>
      </trkpt>
      <trkpt lat="43.62526" lon="7.05874">
        <ele>152.39999389648</ele>
        <time>2011-04-06T11:36:09.000Z</time>
      </trkpt>
      <trkpt lat="43.62509" lon="7.05885">
        <ele>151.60000610352</ele>
        <time>2011-04-06T11:36:12.000Z</time>
      </trkpt>
      <trkpt lat="43.62503" lon="7.05888">
        <ele>151.39999389648</ele>
        <time>2011-04-06T11:36:13.000Z</time>
      </trkpt>
      <trkpt lat="43.62487" lon="7.05897">
        <ele>150.60000610352</ele>
        <time>2011-04-06T11:36:16.000Z</time>
      </trkpt>
      <trkpt lat="43.62476" lon="7.05901">
        <ele>150</ele>
        <time>2011-04-06T11:36:18.000Z</time>
      </trkpt>
      <trkpt lat="43.6247" lon="7.05902">
        <ele>149.80000305176</ele>
        <time>2011-04-06T11:36:19.000Z</time>
      </trkpt>
      <trkpt lat="43.62465" lon="7.05902">
        <ele>149.19999694824</ele>
        <time>2011-04-06T11:36:20.000Z</time>
      </trkpt>
      <trkpt lat="43.62453" lon="7.05901">
        <ele>148.39999389648</ele>
        <time>2011-04-06T11:36:22.000Z</time>
      </trkpt>
      <trkpt lat="43.62442" lon="7.05906">
        <ele>147.60000610352</ele>
        <time>2011-04-06T11:36:24.000Z</time>
      </trkpt>
      <trkpt lat="43.6243" lon="7.05908">
        <ele>146.80000305176</ele>
        <time>2011-04-06T11:36:26.000Z</time>
      </trkpt>
      <trkpt lat="43.62425" lon="7.0591">
        <ele>146.39999389648</ele>
        <time>2011-04-06T11:36:27.000Z</time>
      </trkpt>
      <trkpt lat="43.62421" lon="7.05914">
        <ele>146.19999694824</ele>
        <time>2011-04-06T11:36:28.000Z</time>
      </trkpt>
      <trkpt lat="43.62418" lon="7.05919">
        <ele>146</ele>
        <time>2011-04-06T11:36:29.000Z</time>
      </trkpt>
      <trkpt lat="43.62419" lon="7.05937">
        <ele>146.39999389648</ele>
        <time>2011-04-06T11:36:32.000Z</time>
      </trkpt>
      <trkpt lat="43.62421" lon="7.05959">
        <ele>146.80000305176</ele>
        <time>2011-04-06T11:36:36.000Z</time>
      </trkpt>
      <trkpt lat="43.6242" lon="7.05964">
        <ele>146.60000610352</ele>
        <time>2011-04-06T11:36:37.000Z</time>
      </trkpt>
      <trkpt lat="43.6241" lon="7.05973">
        <ele>146.60000610352</ele>
        <time>2011-04-06T11:36:40.000Z</time>
      </trkpt>
      <trkpt lat="43.62401" lon="7.05975">
        <ele>146.60000610352</ele>
        <time>2011-04-06T11:36:42.000Z</time>
      </trkpt>
      <trkpt lat="43.62392" lon="7.05977">
        <ele>146.60000610352</ele>
        <time>2011-04-06T11:36:44.000Z</time>
      </trkpt>
      <trkpt lat="43.62388" lon="7.05981">
        <ele>146.80000305176</ele>
        <time>2011-04-06T11:36:45.000Z</time>
      </trkpt>
      <trkpt lat="43.62385" lon="7.05987">
        <ele>147</ele>
        <time>2011-04-06T11:36:46.000Z</time>
      </trkpt>
      <trkpt lat="43.62383" lon="7.05994">
        <ele>147.19999694824</ele>
        <time>2011-04-06T11:36:47.000Z</time>
      </trkpt>
      <trkpt lat="43.62383" lon="7.06003">
        <ele>147.19999694824</ele>
        <time>2011-04-06T11:36:48.000Z</time>
      </trkpt>
      <trkpt lat="43.62382" lon="7.06011">
        <ele>146.80000305176</ele>
        <time>2011-04-06T11:36:49.000Z</time>
      </trkpt>
      <trkpt lat="43.62382" lon="7.0602">
        <ele>146.39999389648</ele>
        <time>2011-04-06T11:36:50.000Z</time>
      </trkpt>
      <trkpt lat="43.6238" lon="7.0603">
        <ele>146</ele>
        <time>2011-04-06T11:36:51.000Z</time>
      </trkpt>
      <trkpt lat="43.62378" lon="7.06039">
        <ele>145.60000610352</ele>
        <time>2011-04-06T11:36:52.000Z</time>
      </trkpt>
      <trkpt lat="43.62367" lon="7.0607">
        <ele>144</ele>
        <time>2011-04-06T11:36:55.000Z</time>
      </trkpt>
      <trkpt lat="43.62359" lon="7.06092">
        <ele>142.39999389648</ele>
        <time>2011-04-06T11:36:57.000Z</time>
      </trkpt>
      <trkpt lat="43.62348" lon="7.06126">
        <ele>139.39999389648</ele>
        <time>2011-04-06T11:37:00.000Z</time>
      </trkpt>
      <trkpt lat="43.62344" lon="7.06136">
        <ele>138.60000610352</ele>
        <time>2011-04-06T11:37:01.000Z</time>
      </trkpt>
      <trkpt lat="43.62336" lon="7.06157">
        <ele>136.80000305176</ele>
        <time>2011-04-06T11:37:03.000Z</time>
      </trkpt>
      <trkpt lat="43.62332" lon="7.06167">
        <ele>135.80000305176</ele>
        <time>2011-04-06T11:37:04.000Z</time>
      </trkpt>
      <trkpt lat="43.62321" lon="7.06184">
        <ele>132.80000305176</ele>
        <time>2011-04-06T11:37:06.000Z</time>
      </trkpt>
      <trkpt lat="43.62315" lon="7.06192">
        <ele>131.60000610352</ele>
        <time>2011-04-06T11:37:07.000Z</time>
      </trkpt>
      <trkpt lat="43.62304" lon="7.06201">
        <ele>130.19999694824</ele>
        <time>2011-04-06T11:37:09.000Z</time>
      </trkpt>
      <trkpt lat="43.62286" lon="7.06197">
        <ele>129.80000305176</ele>
        <time>2011-04-06T11:37:12.000Z</time>
      </trkpt>
      <trkpt lat="43.62282" lon="7.06194">
        <ele>129.80000305176</ele>
        <time>2011-04-06T11:37:13.000Z</time>
      </trkpt>
      <trkpt lat="43.62276" lon="7.06191">
        <ele>129.80000305176</ele>
        <time>2011-04-06T11:37:15.000Z</time>
      </trkpt>
      <trkpt lat="43.62268" lon="7.06175">
        <ele>130.60000610352</ele>
        <time>2011-04-06T11:37:19.000Z</time>
      </trkpt>
      <trkpt lat="43.62266" lon="7.06169">
        <ele>130.80000305176</ele>
        <time>2011-04-06T11:37:20.000Z</time>
      </trkpt>
      <trkpt lat="43.62259" lon="7.06154">
        <ele>131.39999389648</ele>
        <time>2011-04-06T11:37:23.000Z</time>
      </trkpt>
      <trkpt lat="43.62256" lon="7.0615">
        <ele>131.39999389648</ele>
        <time>2011-04-06T11:37:24.000Z</time>
      </trkpt>
      <trkpt lat="43.62253" lon="7.06145">
        <ele>131.39999389648</ele>
        <time>2011-04-06T11:37:25.000Z</time>
      </trkpt>
      <trkpt lat="43.62241" lon="7.06127">
        <ele>131.19999694824</ele>
        <time>2011-04-06T11:37:29.000Z</time>
      </trkpt>
      <trkpt lat="43.62233" lon="7.06116">
        <ele>130.80000305176</ele>
        <time>2011-04-06T11:37:32.000Z</time>
      </trkpt>
      <trkpt lat="43.62225" lon="7.06106">
        <ele>130.39999389648</ele>
        <time>2011-04-06T11:37:35.000Z</time>
      </trkpt>
      <trkpt lat="43.62219" lon="7.06094">
        <ele>130.19999694824</ele>
        <time>2011-04-06T11:37:38.000Z</time>
      </trkpt>
      <trkpt lat="43.62214" lon="7.06083">
        <ele>130.19999694824</ele>
        <time>2011-04-06T11:37:41.000Z</time>
      </trkpt>
      <trkpt lat="43.62212" lon="7.06078">
        <ele>130.19999694824</ele>
        <time>2011-04-06T11:37:43.000Z</time>
      </trkpt>
      <trkpt lat="43.62207" lon="7.06062">
        <ele>130</ele>
        <time>2011-04-06T11:37:49.000Z</time>
      </trkpt>
      <trkpt lat="43.62205" lon="7.06057">
        <ele>130</ele>
        <time>2011-04-06T11:37:50.000Z</time>
      </trkpt>
      <trkpt lat="43.62202" lon="7.06039">
        <ele>130</ele>
        <time>2011-04-06T11:37:53.000Z</time>
      </trkpt>
      <trkpt lat="43.62202" lon="7.06032">
        <ele>130.19999694824</ele>
        <time>2011-04-06T11:37:54.000Z</time>
      </trkpt>
      <trkpt lat="43.62202" lon="7.06005">
        <ele>131.19999694824</ele>
        <time>2011-04-06T11:37:58.000Z</time>
      </trkpt>
      <trkpt lat="43.62203" lon="7.05992">
        <ele>131.19999694824</ele>
        <time>2011-04-06T11:38:00.000Z</time>
      </trkpt>
      <trkpt lat="43.62204" lon="7.05986">
        <ele>131</ele>
        <time>2011-04-06T11:38:01.000Z</time>
      </trkpt>
      <trkpt lat="43.622" lon="7.05976">
        <ele>130</ele>
        <time>2011-04-06T11:38:03.000Z</time>
      </trkpt>
      <trkpt lat="43.62189" lon="7.05958">
        <ele>127.19999694824</ele>
        <time>2011-04-06T11:38:06.000Z</time>
      </trkpt>
      <trkpt lat="43.6219" lon="7.05953">
        <ele>127.19999694824</ele>
        <time>2011-04-06T11:38:07.000Z</time>
      </trkpt>
      <trkpt lat="43.62194" lon="7.05941">
        <ele>127.40000152588</ele>
        <time>2011-04-06T11:38:09.000Z</time>
      </trkpt>
      <trkpt lat="43.62196" lon="7.05935">
        <ele>127.59999847412</ele>
        <time>2011-04-06T11:38:10.000Z</time>
      </trkpt>
      <trkpt lat="43.62198" lon="7.0593">
        <ele>127.80000305176</ele>
        <time>2011-04-06T11:38:11.000Z</time>
      </trkpt>
      <trkpt lat="43.62208" lon="7.0591">
        <ele>128.60000610352</ele>
        <time>2011-04-06T11:38:15.000Z</time>
      </trkpt>
      <trkpt lat="43.6221" lon="7.05905">
        <ele>128.80000305176</ele>
        <time>2011-04-06T11:38:16.000Z</time>
      </trkpt>
      <trkpt lat="43.62214" lon="7.05898">
        <ele>129</ele>
        <time>2011-04-06T11:38:18.000Z</time>
      </trkpt>
      <trkpt lat="43.62216" lon="7.05892">
        <ele>128.80000305176</ele>
        <time>2011-04-06T11:38:20.000Z</time>
      </trkpt>
      <trkpt lat="43.62216" lon="7.0589">
        <ele>128.60000610352</ele>
        <time>2011-04-06T11:38:25.000Z</time>
      </trkpt>
    </trkseg>
  </trk>
</gpx>